[[{"header":{"parameterUnit":"m.s-1","parameterCategory":1,"la1":31.0,"la2":29.5877,"lo1":-88.7671,"lo2":-86.6584,"dy":0.0162,"dx":0.0185,"nx":115,"ny":88,"refTime":"2026-04-02T12:00:00:Z","depth":0,"parameterNumber":2,"parameterNumberName":"U-component_of_WINDS"},"data":[0.0,0.0,0.0,0.0,0.0,0.0,0.0,0.0,0.0,0.0,0.0,0.0,0.0,0.0,0.0,0.0,0.0,0.0,0.0,0.0,0.0,0.0,0.0,0.0,0.0,0.0,0.0,0.0,0.0,0.0,0.0,0.0,0.0,0.0,0.0,0.0,0.0,0.0,0.0,0.0,0.0,0.0,0.0,0.0,0.0,0.0,0.0,0.0,0.0,0.0,0.0,0.0,0.0,0.0,0.0,0.0,0.0,0.0,0.0,0.0,0.0,0.0,0.0,0.0,0.0,0.0,0.0,0.0,0.0,0.0,0.0,0.0,0.0,0.0,0.0,0.0,0.0,0.0,0.0,0.0,0.0,0.0,0.0,0.0,0.0,0.0,0.0,0.0,0.0,0.0,0.0,0.0,0.0,0.0,0.0,0.0,0.0,0.0,0.0,0.0,0.0,0.0,0.0,0.0,0.0,0.0,0.0,0.0,0.0,0.0,0.0,0.0,0.0,0.0,0.0,0.0,0.0,0.0,0.0,0.0,0.0,0.0,0.0,0.0,0.0,0.0,0.0,0.0,0.0,0.0,0.0,0.0,0.0,0.0,0.0,0.0,0.0,0.0,0.0,0.0,0.0,0.0,0.0,0.0,0.0,0.0,0.0,0.0,0.0,0.0,0.0,0.0,0.0,0.0,0.0,0.0,0.0,0.0,0.0,0.0,0.0,0.0,0.0,0.0,0.0,0.0,0.0,0.0,0.0,0.0,0.0,0.0,0.0,0.0,0.0,0.0,0.0,0.0,0.0,0.0,0.0,0.0,0.0,0.0,0.0,0.0,0.0,0.0,0.0,0.0,0.0,0.0,0.0,0.0,0.0,0.0,0.0,0.0,0.0,0.0,0.0,0.0,0.0,0.0,0.0,0.0,0.0,0.0,0.0,0.0,0.0,0.0,0.0,0.0,0.0,0.0,0.0,0.0,0.0,0.0,0.0,0.0,0.0,0.0,0.0,0.0,0.0,0.0,0.0,0.0,0.0,0.0,0.0,0.0,0.0,0.0,0.0,0.0,0.0,0.0,0.0,0.0,0.0,0.0,0.0,0.0,0.0,0.0,0.0,0.0,0.0,0.0,0.0,0.0,0.0,0.0,0.0,0.0,0.0,0.0,0.0,0.0,0.0,0.0,0.0,0.0,0.0,0.0,0.0,0.0,0.0,0.0,0.0,0.0,0.0,0.0,0.0,0.0,0.0,0.0,0.0,0.0,0.0,0.0,0.0,0.0,0.0,0.0,0.0,0.0,0.0,0.0,0.0,0.0,0.0,0.0,0.0,0.0,0.0,0.0,0.0,0.0,0.0,0.0,0.0,0.0,0.0,0.0,0.0,0.0,0.0,0.0,0.0,0.0,0.0,0.0,0.0,0.0,0.0,0.0,0.0,0.0,0.0,0.0,0.0,0.0,0.0,0.0,0.0,0.0,0.0,0.0,0.0,0.0,0.0,0.0,0.0,0.0,0.0,0.0,0.0,0.0,0.0,0.0,0.0,0.0,0.0,0.0,0.0,0.0,0.0,0.0,0.0,0.0,0.0,0.0,0.0,0.0,0.0,0.0,0.0,0.0,0.0,0.0,0.0,0.0,0.0,0.0,0.0,0.0,0.0,0.0,0.0,0.0,0.0,0.0,0.0,0.0,0.0,0.0,0.0,0.0,0.0,0.0,0.0,0.0,0.0,0.0,0.0,0.0,0.0,0.0,0.0,0.0,0.0,0.0,0.0,0.0,0.0,0.0,0.0,0.0,0.0,0.0,0.0,0.0,0.0,0.0,0.0,0.0,0.0,0.0,0.0,0.0,0.0,0.0,0.0,0.0,0.0,0.0,0.0,0.0,0.0,0.0,0.0,0.0,0.0,0.0,0.0,0.0,0.0,0.0,0.0,0.0,0.0,0.0,0.0,0.0,0.0,0.0,0.0,0.0,0.0,0.0,0.0,0.0,0.0,0.0,0.0,0.0,0.0,0.0,0.0,0.0,0.0,0.0,0.0,0.0,0.0,0.0,0.0,0.0,0.0,0.0,0.0,0.0,0.0,0.0,0.0,0.0,0.0,0.0,0.0,0.0,0.0,0.0,0.0,0.0,0.0,0.0,0.0,0.0,0.0,0.0,0.0,0.0,0.0,0.0,0.0,0.0,0.0,0.0,0.0,0.0,0.0,0.0,0.0,0.0,0.0,0.0,0.0,0.0,0.0,0.0,0.0,0.0,0.0,0.0,0.0,0.0,0.0,0.0,0.0,0.0,0.0,0.0,0.0,0.0,0.0,0.0,0.0,0.0,0.0,0.0,0.0,0.0,0.0,0.0,0.0,0.0,0.0,0.0,0.0,0.0,0.0,0.0,0.0,0.0,0.0,0.0,0.0,0.0,0.0,0.0,0.0,0.0,0.0,0.0,0.0,0.0,0.0,0.0,0.0,0.0,0.0,0.0,0.0,0.0,0.0,0.0,0.0,0.0,0.0,0.0,0.0,0.0,0.0,0.0,0.0,0.0,0.0,0.0,0.0,0.0,0.0,0.0,0.0,0.0,0.0,0.0,0.0,0.0,0.0,0.0,0.0,0.0,0.0,0.0,0.0,0.0,0.0,0.0,0.0,0.0,0.0,0.0,0.0,0.0,0.0,0.0,0.0,0.0,0.0,0.0,0.0,0.0,0.0,0.0,0.0,0.0,0.0,0.0,0.0,0.0,0.0,0.0,0.0,0.0,0.0,0.0,0.0,0.0,0.0,0.0,0.0,0.0,0.0,0.0,0.0,0.0,0.0,0.0,0.0,0.0,0.0,0.0,0.0,0.0,0.0,0.0,0.0,0.0,0.0,0.0,0.0,0.0,0.0,0.0,0.0,0.0,0.0,0.0,0.0,0.0,0.0,0.0,0.0,0.0,0.0,0.0,0.0,0.0,0.0,0.0,0.0,0.0,0.0,0.0,0.0,0.0,0.0,0.0,0.0,0.0,0.0,0.0,0.0,0.0,0.0,0.0,0.0,0.0,0.0,0.0,0.0,0.0,0.0,0.0,0.0,0.0,0.0,0.0,0.0,0.0,0.0,0.0,0.0,0.0,0.0,0.0,0.0,0.0,0.0,0.0,0.0,0.0,0.0,0.0,0.0,0.0,0.0,0.0,0.0,0.0,0.0,0.0,0.0,0.0,0.0,0.0,0.0,0.0,0.0,0.0,0.0,0.0,0.0,0.0,0.0,0.0,0.0,0.0,0.0,0.0,0.0,0.0,0.0,0.0,0.0,0.0,0.0,0.0,0.0,0.0,0.0,0.0,0.0,0.0,0.0,0.0,0.0,0.0,0.0,0.0,0.0,0.0,0.0,0.0,0.0,0.0,0.0,0.0,0.0,0.0,0.0,0.0,0.0,0.0,0.0,0.0,0.0,0.0,0.0,0.0,0.0,0.0,0.0,0.0,0.0,0.0,0.0,0.0,0.0,0.0,0.0,0.0,0.0,0.0,0.0,0.0,0.0,0.0,0.0,0.0,0.0,0.0,0.0,0.0,0.0,0.0,0.0,0.0,0.0,0.0,0.0,0.0,0.0,0.0,0.0,0.0,0.0,0.0,0.0,0.0,0.0,0.0,0.0,0.0,0.0,0.0,0.0,0.0,0.0,0.0,0.0,0.0,0.0,0.0,0.0,0.0,0.0,0.0,0.0,0.0,0.0,0.0,0.0,0.0,0.0,0.0,0.0,0.0,0.0,0.0,0.0,0.0,0.0,0.0,0.0,0.0,0.0,0.0,0.0,0.0,0.0,0.0,0.0,0.0,0.0,0.0,0.0,0.0,0.0,0.0,0.0,0.0,0.0,0.0,0.0,0.0,0.0,0.0,0.0,0.0,0.0,0.0,0.0,0.0,0.0,0.0,0.0,0.0,0.0,0.0,0.0,0.0,0.0,0.0,0.0,0.0,0.0,0.0,0.0,0.0,0.0,0.0,0.0,0.0,0.0,0.0,0.0,0.0,0.0,0.0,0.0,0.0,0.0,0.0,0.0,0.0,0.0,0.0,0.0,0.0,0.0,0.0,0.0,0.0,0.0,0.0,0.0,0.0,0.0,0.0,0.0,0.0,0.0,0.0,0.0,0.0,0.0,0.0,0.0,0.0,0.0,0.0,0.0,0.0,0.0,0.0,0.0,0.0,0.0,0.0,0.0,0.0,0.0,0.0,0.0,0.0,0.0,0.0,0.0,0.0,0.0,0.0,0.0,0.0,0.0,0.0,0.0,0.0,0.0,0.0,0.0,0.0,4.9381,0.0,0.0,0.0,0.0,0.0,0.0,0.0,0.0,0.0,0.0,0.0,0.0,0.0,0.0,0.0,0.0,0.0,0.0,0.0,0.0,0.0,0.0,0.0,0.0,0.0,0.0,0.0,0.0,0.0,0.0,0.0,0.0,0.0,0.0,0.0,0.0,0.0,0.0,0.0,0.0,0.0,0.0,0.0,0.0,0.0,0.0,0.0,0.0,0.0,0.0,0.0,0.0,0.0,0.0,0.0,0.0,0.0,0.0,0.0,0.0,0.0,0.0,0.0,0.0,0.0,0.0,0.0,0.0,0.0,0.0,0.0,0.0,0.0,0.0,0.0,0.0,0.0,0.0,0.0,0.0,0.0,0.0,0.0,0.0,0.0,0.0,0.0,0.0,0.0,0.0,0.0,0.0,0.0,0.0,0.0,0.0,0.0,0.0,0.0,0.0,0.0,0.0,0.0,0.0,0.0,0.0,0.0,0.0,0.0,0.0,5.3749,5.3791,5.2896,5.1659,5.0059,0.0,0.0,0.0,0.0,0.0,0.0,0.0,0.0,0.0,0.0,0.0,0.0,0.0,0.0,0.0,0.0,0.0,0.0,0.0,0.0,0.0,0.0,0.0,0.0,0.0,0.0,0.0,0.0,0.0,0.0,0.0,0.0,0.0,0.0,0.0,0.0,0.0,0.0,0.0,0.0,0.0,0.0,0.0,0.0,0.0,0.0,0.0,0.0,0.0,0.0,0.0,0.0,0.0,0.0,0.0,0.0,0.0,0.0,0.0,0.0,0.0,0.0,0.0,0.0,0.0,0.0,0.0,0.0,0.0,0.0,0.0,0.0,0.0,0.0,0.0,0.0,0.0,0.0,0.0,0.0,0.0,0.0,0.0,0.0,0.0,0.0,0.0,0.0,0.0,0.0,0.0,0.0,0.0,0.0,0.0,0.0,0.0,0.0,0.0,0.0,0.0,0.0,0.0,0.0,0.0,0.0,0.0,0.0,0.0,0.0,0.0,0.0,5.3085,5.153,4.9982,0.0,0.0,0.0,0.0,0.0,0.0,0.0,0.0,0.0,0.0,0.0,0.0,0.0,0.0,0.0,0.0,0.0,0.0,0.0,0.0,0.0,0.0,0.0,0.0,0.0,0.0,0.0,0.0,0.0,0.0,0.0,0.0,0.0,0.0,0.0,0.0,0.0,0.0,0.0,0.0,0.0,0.0,0.0,0.0,0.0,0.0,0.0,0.0,0.0,0.0,0.0,0.0,0.0,0.0,0.0,0.0,0.0,0.0,0.0,0.0,0.0,0.0,0.0,0.0,0.0,0.0,0.0,0.0,0.0,0.0,0.0,0.0,0.0,0.0,0.0,0.0,0.0,0.0,0.0,0.0,0.0,0.0,0.0,0.0,0.0,0.0,0.0,0.0,0.0,0.0,0.0,0.0,0.0,0.0,0.0,0.0,0.0,0.0,0.0,0.0,0.0,0.0,0.0,0.0,0.0,0.0,0.0,0.0,0.0,0.0,5.4096,5.5062,5.3204,0.0,4.828,0.0,0.0,0.0,0.0,0.0,0.0,0.0,0.0,0.0,0.0,0.0,0.0,0.0,0.0,0.0,0.0,0.0,0.0,0.0,0.0,0.0,0.0,0.0,0.0,0.0,0.0,0.0,0.0,0.0,0.0,0.0,0.0,0.0,0.0,0.0,0.0,0.0,0.0,0.0,0.0,0.0,0.0,0.0,0.0,0.0,0.0,0.0,0.0,0.0,0.0,0.0,0.0,0.0,0.0,0.0,0.0,0.0,0.0,0.0,0.0,0.0,0.0,0.0,0.0,0.0,0.0,0.0,0.0,0.0,0.0,0.0,0.0,0.0,0.0,0.0,0.0,0.0,0.0,0.0,0.0,0.0,0.0,0.0,0.0,0.0,0.0,0.0,0.0,0.0,0.0,0.0,0.0,0.0,0.0,0.0,0.0,0.0,0.0,0.0,0.0,0.0,0.0,0.0,0.0,0.0,0.0,0.0,0.0,0.0,0.0,5.5182,5.5702,5.256,4.9829,0.0,0.0,0.0,0.0,0.0,0.0,0.0,0.0,0.0,0.0,0.0,0.0,0.0,0.0,0.0,0.0,0.0,0.0,0.0,0.0,0.0,0.0,0.0,0.0,0.0,0.0,0.0,0.0,0.0,0.0,0.0,0.0,0.0,0.0,0.0,0.0,0.0,0.0,0.0,0.0,0.0,0.0,0.0,0.0,0.0,0.0,0.0,0.0,0.0,0.0,0.0,0.0,0.0,0.0,0.0,0.0,0.0,0.0,0.0,0.0,0.0,0.0,0.0,0.0,0.0,0.0,0.0,0.0,0.0,0.0,0.0,0.0,0.0,0.0,0.0,0.0,0.0,0.0,0.0,0.0,0.0,0.0,0.0,0.0,0.0,0.0,0.0,0.0,0.0,0.0,0.0,0.0,0.0,0.0,0.0,0.0,0.0,0.0,0.0,0.0,0.0,0.0,0.0,0.0,0.0,0.0,0.0,0.0,0.0,0.0,5.5159,0.0,5.483,5.1643,4.9133,4.7536,0.0,0.0,0.0,0.0,0.0,0.0,0.0,0.0,0.0,0.0,0.0,0.0,0.0,0.0,0.0,0.0,0.0,0.0,0.0,0.0,0.0,0.0,0.0,0.0,0.0,0.0,0.0,0.0,0.0,0.0,0.0,0.0,0.0,0.0,0.0,0.0,0.0,0.0,0.0,0.0,0.0,0.0,0.0,0.0,0.0,0.0,0.0,0.0,0.0,0.0,0.0,0.0,0.0,0.0,0.0,0.0,0.0,0.0,0.0,0.0,0.0,0.0,0.0,0.0,0.0,0.0,0.0,0.0,0.0,0.0,0.0,0.0,0.0,0.0,0.0,0.0,0.0,0.0,0.0,0.0,0.0,0.0,0.0,0.0,0.0,0.0,0.0,0.0,0.0,0.0,0.0,0.0,0.0,0.0,0.0,0.0,0.0,0.0,0.0,0.0,0.0,0.0,0.0,0.0,0.0,0.0,0.0,0.0,0.0,5.3726,5.3357,5.2284,5.066,4.909,0.0,0.0,0.0,0.0,0.0,0.0,0.0,0.0,0.0,0.0,0.0,0.0,0.0,0.0,0.0,0.0,0.0,0.0,0.0,0.0,0.0,0.0,0.0,0.0,0.0,0.0,0.0,0.0,0.0,0.0,0.0,0.0,0.0,0.0,0.0,0.0,0.0,0.0,0.0,0.0,0.0,0.0,0.0,0.0,0.0,0.0,0.0,0.0,0.0,0.0,0.0,0.0,0.0,0.0,0.0,0.0,0.0,0.0,0.0,0.0,0.0,0.0,0.0,0.0,0.0,0.0,0.0,0.0,0.0,0.0,0.0,0.0,0.0,0.0,0.0,0.0,0.0,0.0,0.0,0.0,0.0,0.0,0.0,0.0,0.0,0.0,0.0,0.0,0.0,0.0,0.0,0.0,0.0,0.0,0.0,0.0,0.0,0.0,0.0,0.0,0.0,0.0,0.0,0.0,0.0,0.0,0.0,0.0,0.0,5.3531,5.3949,5.3432,5.2007,5.0124,4.8599,0.0,0.0,0.0,0.0,0.0,0.0,0.0,0.0,0.0,0.0,0.0,0.0,0.0,0.0,0.0,0.0,0.0,0.0,0.0,0.0,0.0,0.0,0.0,0.0,0.0,0.0,0.0,0.0,0.0,0.0,0.0,0.0,0.0,0.0,0.0,0.0,0.0,0.0,0.0,0.0,0.0,0.0,0.0,0.0,0.0,0.0,0.0,0.0,0.0,0.0,0.0,0.0,0.0,0.0,0.0,0.0,0.0,0.0,0.0,0.0,0.0,0.0,0.0,0.0,0.0,0.0,0.0,0.0,0.0,0.0,0.0,0.0,0.0,0.0,0.0,0.0,0.0,0.0,0.0,0.0,0.0,0.0,0.0,0.0,0.0,0.0,0.0,0.0,0.0,0.0,0.0,0.0,0.0,0.0,0.0,0.0,0.0,0.0,0.0,0.0,0.0,0.0,0.0,0.0,0.0,0.0,0.0,0.0,0.0,5.3456,0.0,5.4016,0.0,5.0864,4.9309,0.0,0.0,0.0,0.0,0.0,0.0,0.0,0.0,0.0,0.0,0.0,0.0,0.0,0.0,0.0,0.0,0.0,0.0,0.0,0.0,0.0,0.0,0.0,0.0,0.0,0.0,0.0,0.0,0.0,0.0,0.0,0.0,0.0,0.0,0.0,0.0,0.0,0.0,0.0,0.0,0.0,0.0,0.0,0.0,0.0,0.0,0.0,0.0,0.0,0.0,0.0,0.0,0.0,0.0,0.0,0.0,0.0,0.0,0.0,0.0,0.0,0.0,0.0,0.0,0.0,0.0,0.0,0.0,0.0,0.0,0.0,0.0,0.0,0.0,0.0,0.0,0.0,0.0,0.0,0.0,0.0,0.0,0.0,0.0,0.0,0.0,0.0,0.0,0.0,0.0,0.0,0.0,0.0,0.0,0.0,0.0,0.0,0.0,0.0,0.0,0.0,0.0,0.0,0.0,0.0,0.0,0.0,0.0,5.1765,5.3013,5.4727,5.4945,5.3613,5.2865,5.135,0.0,0.0,0.0,0.0,0.0,0.0,0.0,0.0,0.0,0.0,0.0,0.0,0.0,0.0,0.0,0.0,0.0,0.0,0.0,0.0,0.0,0.0,0.0,0.0,0.0,0.0,0.0,0.0,0.0,0.0,0.0,0.0,0.0,0.0,0.0,0.0,0.0,0.0,0.0,0.0,0.0,0.0,0.0,0.0,0.0,0.0,0.0,0.0,0.0,0.0,0.0,0.0,0.0,0.0,0.0,0.0,0.0,0.0,0.0,0.0,0.0,0.0,0.0,0.0,0.0,0.0,0.0,0.0,0.0,0.0,0.0,0.0,0.0,0.0,0.0,0.0,0.0,0.0,0.0,0.0,0.0,0.0,0.0,0.0,0.0,0.0,0.0,0.0,0.0,0.0,0.0,0.0,0.0,0.0,0.0,0.0,0.0,0.0,0.0,0.0,0.0,0.0,0.0,0.0,0.0,0.0,0.0,0.0,0.0,5.2871,5.4347,5.4711,5.376,5.3162,5.1941,0.0,0.0,0.0,0.0,0.0,0.0,0.0,0.0,0.0,0.0,0.0,0.0,0.0,0.0,0.0,0.0,0.0,0.0,0.0,0.0,0.0,0.0,0.0,0.0,0.0,0.0,0.0,0.0,0.0,0.0,0.0,0.0,0.0,0.0,0.0,0.0,0.0,0.0,0.0,0.0,0.0,0.0,0.0,0.0,0.0,0.0,0.0,0.0,0.0,0.0,0.0,0.0,0.0,0.0,0.0,0.0,0.0,0.0,0.0,0.0,0.0,0.0,0.0,0.0,0.0,0.0,0.0,0.0,0.0,0.0,0.0,0.0,0.0,0.0,0.0,0.0,0.0,0.0,0.0,0.0,0.0,0.0,0.0,0.0,0.0,0.0,0.0,0.0,0.0,0.0,0.0,0.0,0.0,0.0,0.0,0.0,0.0,0.0,0.0,0.0,0.0,0.0,0.0,0.0,0.0,0.0,0.0,0.0,0.0,5.5743,5.6944,5.6906,5.5634,5.5399,5.3965,5.1257,0.0,0.0,0.0,0.0,0.0,0.0,0.0,0.0,0.0,0.0,0.0,0.0,0.0,0.0,0.0,0.0,0.0,0.0,0.0,0.0,0.0,0.0,0.0,0.0,0.0,0.0,0.0,0.0,0.0,0.0,0.0,0.0,0.0,0.0,0.0,0.0,0.0,0.0,0.0,0.0,0.0,0.0,0.0,0.0,0.0,0.0,0.0,0.0,0.0,0.0,0.0,0.0,0.0,0.0,0.0,0.0,0.0,0.0,0.0,0.0,0.0,0.0,0.0,0.0,0.0,0.0,0.0,0.0,0.0,0.0,0.0,0.0,0.0,0.0,0.0,0.0,0.0,0.0,0.0,0.0,0.0,0.0,0.0,0.0,0.0,0.0,0.0,0.0,0.0,0.0,0.0,0.0,0.0,0.0,0.0,0.0,0.0,0.0,0.0,0.0,0.0,0.0,0.0,0.0,0.0,0.0,0.0,0.0,6.0791,6.1914,6.1305,5.8939,5.9092,5.7215,0.0,0.0,0.0,0.0,0.0,0.0,0.0,0.0,0.0,0.0,0.0,0.0,0.0,0.0,0.0,0.0,0.0,0.0,0.0,0.0,0.0,0.0,0.0,0.0,0.0,0.0,0.0,0.0,0.0,0.0,0.0,0.0,0.0,0.0,0.0,0.0,0.0,0.0,0.0,0.0,0.0,0.0,0.0,0.0,0.0,0.0,0.0,0.0,0.0,0.0,0.0,0.0,0.0,0.0,0.0,0.0,0.0,0.0,0.0,0.0,0.0,0.0,0.0,0.0,0.0,0.0,0.0,0.0,0.0,0.0,0.0,0.0,0.0,0.0,0.0,0.0,0.0,0.0,0.0,0.0,0.0,0.0,0.0,0.0,0.0,0.0,0.0,0.0,0.0,0.0,0.0,0.0,0.0,0.0,0.0,0.0,0.0,0.0,0.0,0.0,0.0,0.0,0.0,0.0,0.0,0.0,0.0,0.0,0.0,6.167,6.5902,6.6179,6.2184,6.1363,5.9276,0.0,0.0,0.0,0.0,0.0,0.0,0.0,0.0,0.0,0.0,0.0,0.0,0.0,0.0,0.0,0.0,0.0,0.0,0.0,0.0,0.0,0.0,0.0,0.0,0.0,0.0,0.0,0.0,0.0,0.0,0.0,0.0,0.0,0.0,0.0,0.0,0.0,0.0,0.0,0.0,0.0,0.0,0.0,0.0,0.0,0.0,0.0,0.0,0.0,0.0,0.0,0.0,0.0,0.0,0.0,0.0,0.0,0.0,0.0,0.0,0.0,0.0,0.0,0.0,0.0,0.0,0.0,0.0,0.0,0.0,0.0,0.0,0.0,0.0,0.0,0.0,0.0,0.0,0.0,0.0,0.0,0.0,0.0,0.0,0.0,0.0,0.0,0.0,0.0,0.0,0.0,0.0,0.0,0.0,0.0,0.0,0.0,0.0,0.0,0.0,0.0,0.0,0.0,0.0,0.0,0.0,0.0,0.0,6.0298,6.4012,6.8806,6.9708,6.6295,6.4292,6.1208,0.0,0.0,0.0,0.0,0.0,0.0,0.0,0.0,0.0,0.0,0.0,0.0,0.0,0.0,0.0,0.0,0.0,0.0,0.0,0.0,0.0,0.0,0.0,0.0,0.0,0.0,0.0,0.0,0.0,0.0,0.0,0.0,0.0,0.0,0.0,0.0,0.0,0.0,0.0,0.0,0.0,0.0,0.0,0.0,0.0,0.0,0.0,0.0,0.0,0.0,0.0,0.0,0.0,0.0,0.0,0.0,0.0,0.0,0.0,0.0,0.0,0.0,0.0,0.0,0.0,0.0,0.0,0.0,0.0,0.0,0.0,0.0,0.0,0.0,0.0,0.0,0.0,0.0,0.0,0.0,0.0,0.0,0.0,0.0,0.0,0.0,0.0,0.0,0.0,0.0,0.0,0.0,0.0,0.0,0.0,0.0,0.0,0.0,0.0,0.0,0.0,0.0,0.0,0.0,0.0,0.0,0.0,0.0,6.2132,6.7043,7.1013,7.2194,7.0488,6.7257,6.3074,0.0,0.0,0.0,0.0,0.0,0.0,0.0,0.0,0.0,0.0,0.0,0.0,0.0,0.0,0.0,0.0,0.0,0.0,0.0,0.0,0.0,0.0,0.0,0.0,0.0,0.0,0.0,0.0,0.0,0.0,0.0,0.0,0.0,0.0,0.0,0.0,0.0,0.0,0.0,0.0,0.0,0.0,0.0,0.0,0.0,0.0,0.0,0.0,0.0,0.0,0.0,0.0,0.0,0.0,0.0,0.0,0.0,0.0,0.0,0.0,0.0,0.0,0.0,0.0,0.0,0.0,0.0,0.0,0.0,0.0,0.0,0.0,0.0,0.0,0.0,0.0,0.0,0.0,0.0,0.0,0.0,0.0,0.0,0.0,0.0,0.0,0.0,0.0,0.0,0.0,0.0,0.0,0.0,0.0,0.0,0.0,0.0,0.0,0.0,0.0,0.0,0.0,0.0,0.0,0.0,0.0,0.0,0.0,6.4903,6.8723,7.2485,7.339,7.1135,6.8417,6.5037,0.0,0.0,0.0,0.0,0.0,0.0,0.0,0.0,0.0,0.0,0.0,0.0,0.0,0.0,0.0,0.0,0.0,0.0,0.0,0.0,0.0,0.0,0.0,0.0,0.0,0.0,0.0,0.0,0.0,0.0,0.0,0.0,0.0,0.0,0.0,0.0,0.0,0.0,0.0,0.0,0.0,0.0,0.0,0.0,0.0,0.0,0.0,0.0,5.2661,0.0,0.0,0.0,0.0,0.0,0.0,0.0,0.0,0.0,0.0,0.0,0.0,0.0,0.0,0.0,0.0,0.0,0.0,0.0,0.0,0.0,0.0,0.0,0.0,0.0,0.0,0.0,0.0,0.0,0.0,0.0,0.0,0.0,0.0,0.0,0.0,0.0,0.0,0.0,0.0,0.0,0.0,0.0,0.0,0.0,0.0,0.0,0.0,0.0,0.0,0.0,0.0,0.0,0.0,0.0,0.0,0.0,0.0,0.0,6.6888,7.028,7.3191,7.3906,7.218,6.9724,6.6304,0.0,0.0,0.0,0.0,0.0,0.0,0.0,0.0,0.0,0.0,0.0,0.0,0.0,0.0,0.0,0.0,0.0,0.0,0.0,0.0,0.0,0.0,0.0,0.0,0.0,0.0,0.0,0.0,0.0,0.0,0.0,0.0,0.0,0.0,0.0,0.0,0.0,0.0,0.0,0.0,0.0,0.0,0.0,0.0,0.0,0.0,0.0,0.0,0.0,0.0,0.0,0.0,0.0,0.0,0.0,0.0,0.0,0.0,0.0,0.0,0.0,0.0,0.0,0.0,0.0,0.0,0.0,0.0,0.0,0.0,0.0,0.0,0.0,0.0,0.0,0.0,0.0,0.0,0.0,0.0,0.0,0.0,0.0,0.0,0.0,0.0,0.0,0.0,0.0,0.0,0.0,0.0,0.0,0.0,0.0,0.0,0.0,0.0,0.0,0.0,0.0,0.0,0.0,0.0,0.0,0.0,0.0,6.5118,6.879,7.1964,7.3744,7.4131,7.3064,7.0658,6.6979,6.1975,0.0,0.0,0.0,0.0,0.0,0.0,0.0,0.0,0.0,0.0,0.0,0.0,0.0,0.0,0.0,0.0,0.0,0.0,0.0,0.0,0.0,0.0,0.0,0.0,0.0,0.0,0.0,0.0,0.0,0.0,0.0,0.0,0.0,0.0,0.0,0.0,0.0,0.0,5.1515,5.3554,0.0,0.0,0.0,0.0,0.0,0.0,0.0,0.0,5.3671,0.0,0.0,0.0,0.0,0.0,0.0,0.0,0.0,0.0,0.0,0.0,0.0,0.0,0.0,0.0,0.0,0.0,0.0,0.0,0.0,0.0,0.0,0.0,0.0,0.0,0.0,0.0,0.0,0.0,0.0,0.0,0.0,0.0,0.0,0.0,0.0,0.0,0.0,0.0,0.0,0.0,0.0,0.0,0.0,0.0,0.0,0.0,0.0,0.0,0.0,0.0,0.0,0.0,0.0,0.0,0.0,6.3472,6.8121,7.1832,7.4498,7.4978,7.4471,7.3023,6.9988,6.6698,6.3217,0.0,0.0,0.0,0.0,0.0,0.0,0.0,0.0,0.0,0.0,0.0,0.0,0.0,0.0,0.0,0.0,0.0,0.0,0.0,0.0,0.0,0.0,0.0,0.0,0.0,0.0,0.0,0.0,0.0,0.0,0.0,0.0,0.0,0.0,0.0,0.0,0.0,0.0,0.0,5.6511,5.7354,0.0,0.0,0.0,0.0,0.0,0.0,0.0,0.0,5.547,0.0,0.0,0.0,0.0,0.0,0.0,0.0,0.0,0.0,0.0,0.0,0.0,0.0,0.0,0.0,0.0,0.0,0.0,0.0,0.0,0.0,0.0,0.0,0.0,0.0,0.0,0.0,0.0,0.0,0.0,0.0,0.0,0.0,0.0,0.0,0.0,0.0,0.0,0.0,0.0,0.0,0.0,0.0,0.0,0.0,0.0,0.0,0.0,0.0,0.0,0.0,0.0,0.0,0.0,0.0,6.5308,7.0073,7.356,7.5551,7.5279,7.4322,7.2753,6.9188,6.5784,0.0,0.0,0.0,0.0,0.0,0.0,0.0,0.0,0.0,0.0,0.0,0.0,0.0,0.0,0.0,0.0,0.0,0.0,0.0,0.0,0.0,0.0,0.0,0.0,0.0,0.0,0.0,0.0,0.0,0.0,0.0,0.0,0.0,0.0,0.0,0.0,0.0,0.0,0.0,0.0,5.8245,5.913,5.786,0.0,0.0,0.0,0.0,0.0,0.0,5.6639,5.5935,0.0,0.0,0.0,0.0,0.0,0.0,0.0,0.0,0.0,0.0,0.0,0.0,0.0,0.0,0.0,0.0,0.0,0.0,0.0,0.0,0.0,0.0,0.0,0.0,0.0,0.0,0.0,0.0,0.0,0.0,0.0,0.0,0.0,0.0,0.0,0.0,0.0,0.0,0.0,0.0,0.0,0.0,0.0,0.0,0.0,0.0,0.0,0.0,0.0,0.0,0.0,0.0,0.0,0.0,0.0,6.6703,7.1512,7.4742,7.6232,7.5572,7.4324,7.2525,6.8935,6.5433,0.0,0.0,0.0,0.0,0.0,0.0,0.0,0.0,0.0,0.0,0.0,0.0,0.0,0.0,0.0,0.0,0.0,0.0,0.0,0.0,0.0,0.0,0.0,0.0,0.0,0.0,0.0,0.0,0.0,0.0,0.0,0.0,0.0,0.0,0.0,0.0,0.0,0.0,0.0,0.0,0.0,6.0772,5.9468,5.8537,0.0,0.0,0.0,0.0,5.8172,5.7845,0.0,0.0,0.0,0.0,0.0,0.0,0.0,0.0,0.0,0.0,0.0,0.0,0.0,0.0,0.0,0.0,0.0,0.0,0.0,0.0,0.0,0.0,0.0,0.0,0.0,0.0,0.0,0.0,0.0,0.0,0.0,0.0,0.0,0.0,0.0,0.0,0.0,0.0,0.0,0.0,0.0,0.0,0.0,0.0,0.0,0.0,0.0,0.0,0.0,0.0,0.0,0.0,0.0,0.0,0.0,0.0,6.7517,7.2305,7.5535,7.7032,7.6379,7.4874,7.2532,6.9956,6.6822,0.0,0.0,0.0,0.0,0.0,0.0,0.0,0.0,0.0,0.0,0.0,0.0,0.0,0.0,0.0,0.0,0.0,0.0,0.0,0.0,0.0,0.0,0.0,0.0,0.0,0.0,0.0,0.0,0.0,0.0,0.0,0.0,0.0,0.0,0.0,0.0,0.0,0.0,0.0,0.0,0.0,6.2684,6.2553,6.1805,6.1209,0.0,0.0,6.0417,5.9843,6.0752,0.0,0.0,0.0,0.0,0.0,0.0,0.0,0.0,0.0,0.0,0.0,0.0,0.0,0.0,0.0,0.0,0.0,0.0,0.0,0.0,0.0,0.0,0.0,0.0,0.0,0.0,0.0,0.0,0.0,0.0,0.0,0.0,0.0,0.0,0.0,0.0,0.0,0.0,0.0,0.0,0.0,0.0,0.0,0.0,0.0,0.0,0.0,0.0,0.0,0.0,0.0,0.0,0.0,0.0,0.0,6.2805,6.7664,7.2459,7.5674,7.7179,7.6518,7.4955,7.2562,6.9706,6.6532,0.0,0.0,0.0,0.0,0.0,0.0,0.0,0.0,0.0,0.0,0.0,0.0,0.0,0.0,0.0,0.0,0.0,0.0,0.0,0.0,0.0,0.0,0.0,0.0,0.0,0.0,0.0,0.0,0.0,0.0,0.0,0.0,0.0,0.0,0.0,0.0,0.0,0.0,0.0,0.0,0.0,0.0,6.3649,6.3696,0.0,0.0,0.0,6.2428,6.2564,0.0,0.0,0.0,0.0,0.0,0.0,0.0,0.0,0.0,0.0,0.0,0.0,0.0,0.0,0.0,0.0,0.0,0.0,0.0,0.0,0.0,0.0,0.0,0.0,0.0,0.0,0.0,0.0,0.0,0.0,0.0,0.0,0.0,0.0,0.0,0.0,0.0,0.0,0.0,0.0,0.0,0.0,0.0,0.0,0.0,0.0,0.0,0.0,0.0,0.0,0.0,0.0,0.0,0.0,0.0,0.0,0.0,6.7664,7.2863,7.6078,7.7252,7.693,7.5542,7.3149,7.0374,0.0,0.0,0.0,0.0,0.0,0.0,0.0,0.0,0.0,0.0,0.0,0.0,0.0,0.0,0.0,0.0,0.0,0.0,0.0,0.0,0.0,0.0,0.0,0.0,0.0,0.0,0.0,4.2197,0.0,0.0,0.0,0.0,0.0,0.0,0.0,0.0,0.0,0.0,0.0,0.0,0.0,0.0,6.453,6.4861,6.5548,6.6053,0.0,0.0,6.4709,6.5297,6.5653,6.4832,0.0,0.0,0.0,0.0,0.0,0.0,0.0,0.0,0.0,0.0,0.0,0.0,0.0,0.0,0.0,0.0,0.0,0.0,0.0,0.0,0.0,0.0,0.0,0.0,0.0,0.0,0.0,0.0,0.0,0.0,0.0,0.0,0.0,0.0,0.0,0.0,0.0,0.0,0.0,0.0,0.0,0.0,0.0,0.0,0.0,0.0,0.0,0.0,0.0,0.0,0.0,0.0,0.0,0.0,0.0,6.7737,7.3957,7.7179,7.7326,7.8031,7.7268,7.4793,7.3083,6.9963,0.0,0.0,0.0,0.0,0.0,0.0,0.0,0.0,0.0,0.0,0.0,0.0,0.0,0.0,0.0,0.0,0.0,0.0,0.0,0.0,0.0,0.0,0.0,0.0,0.0,0.0,0.0,0.0,0.0,0.0,0.0,0.0,0.0,0.0,0.0,0.0,0.0,0.0,0.0,0.0,0.0,6.6104,6.6973,6.7732,6.8471,0.0,6.8477,6.7788,6.7738,6.7577,6.6399,6.3323,0.0,0.0,0.0,0.0,0.0,0.0,0.0,0.0,0.0,0.0,0.0,0.0,0.0,0.0,0.0,0.0,0.0,0.0,0.0,0.0,0.0,0.0,0.0,0.0,0.0,0.0,0.0,0.0,0.0,0.0,0.0,0.0,0.0,0.0,0.0,0.0,0.0,0.0,0.0,0.0,0.0,0.0,0.0,0.0,0.0,0.0,0.0,0.0,0.0,0.0,0.0,0.0,0.0,6.4347,6.9846,7.4793,7.781,7.8772,7.8699,7.7884,7.6408,7.436,7.1211,0.0,0.0,0.0,0.0,0.0,0.0,0.0,0.0,0.0,0.0,0.0,0.0,0.0,0.0,0.0,0.0,0.0,0.0,0.0,0.0,0.0,0.0,0.0,0.0,0.0,0.0,0.0,0.0,4.5729,4.6305,4.6656,0.0,0.0,0.0,0.0,0.0,0.0,0.0,0.0,0.0,0.0,6.7698,6.9663,7.0551,0.0,0.0,7.113,6.9958,6.9379,6.8249,6.6554,6.3979,6.0942,0.0,0.0,0.0,0.0,0.0,0.0,0.0,0.0,0.0,0.0,0.0,0.0,0.0,0.0,0.0,0.0,0.0,0.0,0.0,0.0,0.0,0.0,0.0,0.0,0.0,0.0,0.0,0.0,0.0,0.0,0.0,0.0,0.0,0.0,0.0,0.0,0.0,0.0,0.0,0.0,0.0,0.0,0.0,0.0,0.0,0.0,0.0,0.0,0.0,0.0,0.0,0.0,6.4934,7.091,7.5645,7.8618,7.9779,7.9478,7.8809,7.7693,7.5792,7.2679,0.0,0.0,0.0,0.0,0.0,0.0,0.0,0.0,0.0,0.0,0.0,0.0,0.0,0.0,0.0,0.0,0.0,0.0,0.0,0.0,0.0,0.0,0.0,0.0,0.0,0.0,0.0,0.0,4.6681,4.7019,4.8214,0.0,0.0,0.0,0.0,0.0,0.0,0.0,0.0,0.0,0.0,6.879,7.0854,7.2182,7.3181,7.3895,7.2905,7.1625,7.0274,6.8724,6.683,6.4304,0.0,0.0,0.0,0.0,0.0,0.0,0.0,0.0,0.0,0.0,0.0,0.0,0.0,0.0,0.0,0.0,0.0,0.0,0.0,0.0,0.0,0.0,0.0,0.0,0.0,0.0,0.0,5.3214,0.0,0.0,5.3057,0.0,0.0,0.0,0.0,0.0,0.0,0.0,0.0,0.0,0.0,0.0,0.0,0.0,0.0,0.0,0.0,0.0,0.0,0.0,0.0,0.0,0.0,6.5221,7.0153,7.6468,7.9771,7.9853,8.0534,8.0167,7.8662,7.77,7.4573,6.8928,0.0,0.0,0.0,0.0,0.0,0.0,0.0,0.0,0.0,0.0,0.0,0.0,0.0,0.0,0.0,0.0,0.0,0.0,0.0,0.0,0.0,0.0,0.0,0.0,0.0,0.0,4.7689,4.6995,4.7148,0.0,0.0,0.0,0.0,0.0,0.0,0.0,0.0,0.0,0.0,6.5773,6.911,7.0061,7.2178,7.3746,7.384,7.3746,7.277,7.0329,6.9074,6.7425,0.0,0.0,0.0,0.0,0.0,0.0,0.0,0.0,0.0,0.0,0.0,0.0,0.0,0.0,0.0,0.0,0.0,0.0,0.0,0.0,0.0,0.0,0.0,0.0,0.0,0.0,0.0,5.5492,5.5079,0.0,0.0,0.0,0.0,0.0,0.0,0.0,0.0,0.0,0.0,0.0,6.5228,6.5258,0.0,0.0,0.0,0.0,0.0,0.0,0.0,0.0,0.0,0.0,0.0,0.0,6.5992,7.2356,7.7312,8.0322,8.135,8.1122,8.0747,8.0204,7.8316,7.3663,6.5968,0.0,0.0,0.0,0.0,0.0,0.0,0.0,0.0,0.0,0.0,0.0,0.0,0.0,0.0,0.0,0.0,0.0,0.0,0.0,0.0,0.0,0.0,0.0,0.0,0.0,4.9819,0.0,0.0,0.0,0.0,0.0,0.0,0.0,0.0,0.0,0.0,0.0,5.9468,6.3231,6.6548,6.9284,7.1244,7.3545,7.5102,0.0,0.0,0.0,0.0,0.0,0.0,0.0,0.0,0.0,0.0,0.0,0.0,0.0,0.0,6.6661,6.4259,6.3823,6.3367,6.2052,0.0,0.0,0.0,0.0,0.0,0.0,0.0,0.0,0.0,0.0,0.0,0.0,0.0,0.0,5.8455,5.7979,5.7411,0.0,0.0,0.0,0.0,0.0,0.0,0.0,0.0,6.6526,6.8274,7.055,7.0837,7.1241,0.0,7.1754,6.8752,0.0,0.0,0.0,0.0,0.0,0.0,0.0,0.0,6.6983,7.3567,7.8009,8.0873,8.2121,8.1672,8.126,8.0967,7.806,7.3362,6.6813,6.2946,5.8541,0.0,0.0,0.0,0.0,0.0,0.0,0.0,0.0,0.0,0.0,0.0,0.0,0.0,0.0,0.0,0.0,0.0,0.0,0.0,0.0,0.0,0.0,0.0,5.1204,0.0,0.0,0.0,0.0,0.0,0.0,0.0,0.0,0.0,5.821,5.9913,6.237,6.5299,6.7788,7.0134,7.2308,0.0,0.0,0.0,0.0,0.0,0.0,0.0,6.7711,6.7563,6.815,6.9152,7.068,7.1833,7.2569,7.2663,0.0,0.0,6.9585,6.8961,6.8625,6.7616,6.8475,6.9142,6.8357,6.951,7.0675,0.0,0.0,0.0,0.0,0.0,0.0,0.0,0.0,6.2364,6.2025,0.0,6.0024,0.0,0.0,0.0,0.0,5.9582,6.2695,0.0,0.0,7.1101,7.3046,7.3854,7.4661,7.505,7.5058,7.505,7.414,7.2195,6.6206,0.0,0.0,0.0,0.0,0.0,0.0,6.8084,7.3678,7.8516,8.1379,8.215,8.2186,8.1819,8.093,7.7186,7.3949,7.138,6.6843,6.2408,5.8369,5.6607,0.0,0.0,0.0,0.0,0.0,0.0,0.0,0.0,0.0,0.0,0.0,0.0,0.0,0.0,0.0,0.0,0.0,0.0,0.0,0.0,5.2424,0.0,0.0,0.0,0.0,0.0,0.0,0.0,0.0,0.0,0.0,6.1739,6.4228,6.6494,6.7268,0.0,0.0,0.0,0.0,7.5868,7.5868,7.5868,7.5088,7.2754,7.162,7.0877,7.0257,0.0,0.0,7.6242,7.6637,7.6786,7.7406,7.74,7.6573,7.4093,7.3529,7.3442,7.3368,7.3932,7.4351,7.3831,7.4539,7.5685,6.7789,0.0,0.0,0.0,0.0,6.4376,6.5777,6.7393,6.7191,6.6409,6.531,6.4613,0.0,0.0,0.0,0.0,0.0,0.0,6.8582,7.2026,7.4111,7.5836,7.7231,7.8009,7.8376,7.8413,7.8376,7.7268,7.5028,7.2628,6.8224,6.2034,0.0,0.0,0.0,0.0,6.8935,7.4434,7.8801,8.1379,8.2186,8.2186,8.1819,8.1004,7.9323,7.6974,7.3949,7.0866,6.71,6.2554,6.0236,0.0,0.0,0.0,0.0,0.0,0.0,0.0,0.0,0.0,0.0,0.0,0.0,0.0,0.0,0.0,0.0,0.0,0.0,0.0,5.5401,5.5797,5.5481,0.0,0.0,0.0,0.0,0.0,0.0,0.0,0.0,0.0,6.8085,6.8419,6.8753,0.0,0.0,7.2859,7.3355,7.528,7.6729,7.6729,7.7213,0.0,7.5875,7.4976,7.4544,7.4948,7.6885,7.9009,8.094,8.1261,8.1114,8.0744,8.0672,8.0183,7.8892,7.7658,7.6773,7.6246,7.6692,7.7175,7.7027,7.7733,7.8432,7.4545,7.0457,6.8123,6.7564,6.8277,6.9415,7.1007,7.2822,7.2195,7.1549,7.0813,6.9538,6.804,6.6423,6.5945,0.0,0.0,0.0,7.254,7.5212,7.7451,7.9213,8.049,8.135,8.1525,8.1232,8.1232,8.0131,7.8038,7.7231,7.4331,6.9259,0.0,0.0,6.5215,6.765,7.1167,7.5784,7.9535,8.1709,8.2186,8.2186,8.1966,8.1489,8.0396,7.8707,7.6416,7.3707,7.0477,6.6629,6.3827,6.086,0.0,0.0,0.0,0.0,0.0,0.0,0.0,0.0,0.0,0.0,0.0,4.7594,4.7599,0.0,0.0,0.0,5.3586,5.5853,5.772,5.8589,0.0,0.0,0.0,0.0,0.0,0.0,0.0,6.6055,6.9422,7.1864,7.265,7.3215,7.3217,7.2251,7.3713,7.5095,7.5726,0.0,7.7807,7.8432,7.8662,7.8587,7.8141,7.7354,7.7169,7.832,7.9999,8.159,8.2927,8.3187,8.3039,8.263,8.2489,8.2296,8.1776,8.0884,7.9844,7.881,7.9219,7.9739,7.9776,8.0408,8.1033,7.9368,7.8017,7.4472,7.3022,7.3199,7.4613,7.6533,7.8419,7.704,7.6798,7.7164,7.4389,7.2985,7.2682,7.1876,0.0,7.1756,7.4829,7.6715,7.7706,8.0849,8.2737,8.3491,8.4233,8.4197,8.3389,8.3426,8.2582,8.0967,8.0212,7.9037,7.7252,7.0763,6.8128,6.9516,7.1681,7.4353,7.7472,8.0673,8.2304,8.2296,8.2223,8.2186,8.215,8.0689,7.9515,7.8662,7.5652,7.287,7.0447,6.7357,6.4194,6.1,0.0,0.0,0.0,0.0,0.0,0.0,0.0,0.0,0.0,0.0,0.0,0.0,0.0,0.0,0.0,5.5983,0.0,5.952,6.1207,0.0,0.0,0.0,6.0251,6.3258,6.5072,6.7293,7.0431,0.0,0.0,7.5792,7.8044,7.8773,7.6581,7.699,7.7993,7.9398,7.907,7.9219,8.0661,8.0438,8.0029,8.0215,7.9628,7.9628,8.0958,8.1783,8.2637,8.3336,8.3485,8.341,8.3455,8.3381,8.341,8.341,8.3299,8.2927,8.1404,8.1597,8.2043,8.2006,8.2593,8.3299,8.1837,8.1771,7.9779,7.7846,7.6281,7.7764,7.904,8.004,7.9695,7.9304,7.8844,7.7495,7.605,7.4601,7.3632,7.3618,7.4467,7.6586,7.8402,8.0003,8.2113,8.3536,8.4307,8.4499,8.416,8.3426,8.3426,8.2574,8.104,8.0828,7.9874,7.8259,7.657,7.5285,7.4441,7.4955,7.657,7.9184,8.1774,8.3096,8.3096,8.2525,8.2186,8.2186,8.1232,8.0351,7.9522,7.7517,7.5351,7.2943,7.0367,6.7504,6.4297,6.0811,0.0,0.0,0.0,0.0,0.0,0.0,0.0,0.0,0.0,5.2302,5.2889,0.0,5.5453,0.0,5.8731,6.1343,6.2811,6.5043,0.0,0.0,6.5354,6.5982,6.6794,6.8874,7.1028,7.2985,7.4991,7.6785,7.8222,7.9596,8.0475,8.0512,8.0705,8.0742,8.0512,8.1404,8.2154,8.2556,8.3373,8.4116,8.4005,8.4005,8.3856,8.4369,8.4599,8.4822,8.4971,8.5,8.5,8.5038,8.5038,8.5038,8.5008,8.5038,8.4897,8.4451,8.367,8.2927,8.2927,8.3559,8.4191,8.3193,8.3563,8.244,8.1297,8.0235,8.0454,8.1143,8.204,8.1419,8.1281,8.1444,8.0325,7.9175,7.8005,7.761,7.7856,7.8698,8.0182,8.1531,8.2754,8.429,8.5224,8.5665,8.5673,8.5224,8.4462,8.3756,8.2765,8.1599,8.1525,8.1085,8.0204,8.0901,8.0791,7.9874,7.8487,7.8597,8.0322,8.2362,8.3426,8.3381,8.2949,8.2406,8.1672,8.0865,7.991,7.8736,7.7443,7.5792,7.3751,7.1402,6.8979,6.6476,6.2829,5.952,0.0,0.0,0.0,0.0,0.0,0.0,0.0,0.0,0.0,0.0,0.0,5.9245,5.9979,6.1991,6.4053,6.6035,6.8482,6.9736,6.9281,7.0018,7.0684,7.1046,7.293,7.4667,7.5963,7.7659,7.9084,8.0052,8.137,8.2379,8.2861,8.3336,8.3187,8.2147,8.2667,8.3299,8.3708,8.4785,8.5595,8.5595,8.5595,8.5595,8.5595,8.5595,8.5595,8.5595,8.5595,8.5595,8.5595,8.5595,8.5595,8.5595,8.5595,8.5595,8.5483,8.4897,8.4339,8.4265,8.4636,8.5008,8.3791,8.4174,8.3448,8.3429,8.3792,8.2496,8.2807,8.4075,8.2811,8.2857,8.3827,8.2531,8.1726,8.1305,8.1566,8.1918,8.2322,8.3535,8.4317,8.4845,8.6156,8.6787,8.6805,8.6941,8.6509,8.5608,8.4233,8.3104,8.2231,8.2296,8.2341,8.2406,8.3838,8.4609,8.4462,8.1791,8.0799,8.1591,8.2904,8.3601,8.3675,8.3499,8.2692,8.1187,8.0175,7.8846,7.7208,7.6379,7.5256,7.3751,7.1585,6.9676,6.8068,6.4891,6.2059,0.0,5.8211,0.0,0.0,0.0,0.0,0.0,0.0,0.0,0.0,6.182,6.2921,6.4573,6.5448,6.6836,6.9142,7.1424,7.2863,7.2966,7.367,7.4478,7.5315,7.6702,7.7949,7.8809,8.0273,8.1213,8.1384,8.2964,8.4105,8.4083,8.4835,8.4897,8.3856,8.367,8.4079,8.4636,8.538,8.6115,8.6085,8.6011,8.6011,8.5974,8.6048,8.5937,8.6011,8.6011,8.5974,8.5974,8.6048,8.6011,8.5937,8.5974,8.5974,8.6041,8.5966,8.5825,8.5558,8.564,8.6004,8.3673,8.3891,8.319,8.3061,8.3317,8.3077,8.3715,8.4949,8.4673,8.4127,8.3363,8.2627,8.1691,8.0694,8.0295,8.0048,7.9927,8.11,8.1997,8.2594,8.4599,8.5621,8.5834,8.6623,8.6252,8.4866,8.4499,8.3618,8.2231,8.2884,8.3161,8.3197,8.4123,8.4609,8.4572,0.0,0.0,0.0,8.4535,8.4682,8.527,8.405,8.2949,8.1974,7.991,0.0,7.6423,7.5535,7.4691,7.3714,7.2642,0.0,0.0,0.0,0.0,0.0,0.0,0.0,0.0,0.0,0.0,0.0,6.7834,6.782,6.5595,6.5485,6.6256,6.7827,6.8715,6.9926,7.1651,7.3406,7.4691,7.5359,7.6151,7.6959,7.7818,7.878,7.9661,8.0461,8.0927,8.1471,8.2194,8.3378,8.4171,8.4282,8.5021,8.5446,8.5223,8.5632,8.6115,8.6375,8.6977,8.7572,8.7646,8.7572,8.746,8.7646,8.7646,8.7572,8.7534,8.7572,8.7609,8.7572,8.7646,8.7572,8.7572,8.7646,8.7534,8.7609,8.7572,8.72,8.59,8.6115,8.6635,8.4427,8.4948,8.4235,8.4301,0.0,8.4511,8.4698,8.5273,8.4539,8.3824,8.319,8.2554,8.1685,8.072,7.9829,7.9223,7.8985,7.9523,8.0365,8.1537,8.342,8.4671,8.5366,8.6461,8.6371,8.5196,8.438,8.3609,8.2839,8.3206,8.3609,8.4013,8.5188,8.5775,8.5775,8.5775,8.5783,8.5792,8.5388,8.538,8.5755,8.4609,8.3434,8.2194,8.0249,0.0,0.0,0.0,0.0,0.0,0.0,0.0,0.0,0.0,0.0,6.5858,6.5411,6.5221,6.5264,6.7136,6.8795,7.0007,7.2305,7.2635,7.0227,7.0403,7.113,7.2342,7.3186,7.4177,7.5395,7.6614,7.7495,7.7928,7.8993,7.991,8.0388,8.146,8.2296,8.2627,8.2472,8.2594,8.3382,8.4059,8.4698,8.512,8.6029,8.666,8.6668,8.6737,8.6932,8.7378,8.7757,8.8092,8.8092,8.8092,8.8092,8.8092,8.8092,8.8092,8.8092,8.8092,8.8092,8.8092,8.8092,8.8092,8.8092,8.8092,8.8092,8.8092,8.8092,8.7869,8.6977,8.7163,8.746,8.5437,8.6072,8.5609,8.581,8.6395,8.5815,8.5474,8.5269,8.4118,0.0,0.0,8.2735,8.1927,8.0949,7.9924,7.9235,7.8861,7.8799,7.9581,8.1035,8.2787,8.4145,8.5191,8.6572,8.6803,8.6004,8.4592,8.3884,8.378,8.3805,8.416,8.4903,8.6289,8.7014,8.7014,8.7014,8.6656,8.604,8.6004,8.6012,8.6012,8.5241,8.4095,8.2663,8.0909,7.9221,7.759,7.6599,7.5506,7.4199,7.3377,7.2709,7.2151,7.1387,7.0954,7.0917,7.0477,7.0477,7.1138,7.1438,7.2239,7.367,7.5873,7.6387,7.4515,7.4948,7.5645,7.646,7.715,7.7847,7.8736,7.9368,7.9853,8.0,8.1203,8.2011,8.2231,8.3471,8.4123,8.416,8.3618,8.3536,8.3956,8.4535,8.5128,8.5886,8.6877,8.7802,8.7768,8.7375,8.723,8.7609,8.7869,8.8055,8.7906,8.8055,8.8017,8.7832,8.798,8.8055,8.7943,8.8017,8.8092,8.8092,8.8092,8.8092,8.8092,8.8092,8.8092,8.8092,8.8092,8.8092,8.8092,8.8092,8.8055,8.6291,8.5892,8.6433,8.6345,8.5925,8.579,8.537,8.4786,8.5021,8.4784,8.4156,8.402,8.2871,8.0983,8.0986,8.0391,7.935,7.9778,8.0286,8.0954,8.3254,8.4495,8.497,8.7061,8.7705,8.7065,8.6311,8.5724,8.5278,8.5376,8.5535,8.5719,8.6546,8.7014,8.7014,8.7014,8.6949,8.6839,8.6839,8.6839,8.6803,8.604,8.5205,8.4242,8.2039,8.0057,7.8479,7.6974,7.5983,7.5763,7.4984,7.4801,7.5351,7.4654,7.4206,7.425,7.4764,7.5139,7.5285,7.6607,7.7789,7.8751,8.0359,8.0057,7.7105,7.6914,7.7326,7.8148,7.8516,7.8736,7.9515,7.9845,8.0249,8.0791,8.1048,8.1452,8.2223,8.3096,8.3463,8.2847,8.3104,8.3169,8.301,8.3966,8.494,8.5409,8.6576,8.776,8.782,8.8002,8.7646,8.7274,8.7646,8.772,8.7304,8.7646,8.7646,8.7081,8.7564,8.772,8.7192,8.7601,8.798,8.8092,8.8092,8.8092,8.8092,8.8092,8.8092,8.8092,8.8092,8.8092,8.8092,8.8092,8.8092,8.6941,8.6974,8.6927,8.6927,8.692,8.6142,8.5601,8.5229,8.5075,8.4807,8.442,8.406,8.3074,8.1774,8.1115,8.0309,7.9416,7.9405,7.9856,8.0727,8.2429,8.3671,8.4532,8.6278,8.7131,8.7092,8.6771,8.6629,8.6656,8.6517,8.6444,8.6481,8.6839,8.7014,8.7014,8.7014,8.7014,8.7014,8.7014,8.7014,8.6986,8.6224,8.5645,8.5233,8.3316,8.1782,8.0608,7.9396,7.8361,7.7488,7.7113,7.6856,7.6746,7.6856,7.69,7.6937,7.7671,7.812,7.8083,7.8817,7.9588,8.0396,8.1525,8.1782,8.0739,8.0995,8.1407,8.1819,8.1856,8.2003,8.2378,8.2415,8.2561,8.2912,8.2957,8.3096,8.3434,8.3801,8.3903,8.3544,8.3426,8.3426,8.3508,8.3885,8.442,8.4923,8.5944,8.6589,8.6798,8.6791,8.6791,8.6784,8.6791,8.6791,8.6754,8.6717,8.6747,8.6747,8.6747,8.6791,8.6709,8.7192,8.7572,8.8017,8.8092,8.8092,8.8092,8.8092,8.8092,8.8092,8.8092,8.8092,8.8092,8.8092,8.8092,8.7617,8.7922,8.7583,8.7617,8.7854,8.6413,8.5804,8.5736,8.5148,8.4864,8.4762,8.4086,8.3355,8.259,8.1669,8.0878,8.0202,8.0014,8.0376,8.1183,8.2486,8.3555,8.4412,8.5805,8.6699,8.7126,8.7094,8.7295,8.7679,8.7423,8.7163,8.6989,8.685,8.6821,8.6856,8.6856,8.6865,8.6856,8.6821,8.6856,8.6978,8.6371,8.6159,8.6232,8.4784,8.3728,8.3251,8.215,8.0967,7.9792,7.9507,7.9168,7.8757,7.9315,7.9764,7.9984,8.0534,8.0881,8.0873,8.0873,8.1166,8.1782,8.2553,8.3287,8.3903,8.4674,8.4967,8.4682,8.4425,8.4499,8.4425,8.4499,8.4609,8.4609,8.4609,8.4499,8.4572,8.4756,8.4784,8.4609,8.4197,8.416,8.4414,8.4355,8.4657,8.5472,8.5799,8.6043,8.6129,8.6048,8.6152,8.6412,8.6115,8.5781,8.6234,8.5974,8.5855,8.6301,8.5974,8.59,8.6197,8.6449,8.7007,8.7646,8.798,8.7943,8.7869,8.798,8.7943,8.7832,8.7906,8.8092,8.8092,8.8315,8.8278,8.8545,8.8125,8.8612,8.8511,8.7888,8.6447,8.5872,8.5838,8.5736,8.5702,8.5601,8.483,8.412,8.3496,8.3527,8.3155,8.259,8.3381,8.3452,8.3198,8.4958,8.5553,8.5158,8.6529,8.741,8.7582,8.7704,8.7812,8.8079,8.8012,8.7698,8.7001,8.6454,8.6274,8.642,8.6429,8.6474,8.6465,8.6274,8.6438,8.6952,8.6949,8.7243,8.7949,8.6407,8.5894,8.6215,8.4372,8.3096,8.2904,8.2223,8.215,8.2684,8.2867,8.3242,8.3875,8.4022,8.4168,8.4095,8.4168,8.405,8.4315,8.4894,8.5326,8.551,8.6235,8.6097,8.5016,8.462,8.4719,8.4609,8.4682,8.4756,8.4829,8.4719,8.4609,8.4719,8.5241,8.5425,8.4682,8.5013,8.5351,8.4764,8.5127,8.6095,8.6782,8.6987,8.7181,8.7228,8.6798,8.6434,8.6561,8.6115,8.538,8.5082,8.5261,8.5268,8.4934,8.5194,8.5261,8.5194,8.59,8.6858,8.7081,8.7683,8.7824,8.7415,8.746,8.7795,8.7378,8.7572,8.8092,8.8203,8.8575,8.8723,8.8917,8.868,8.8984,8.8917,8.8511,8.7529,8.7123,8.7076,8.6636,8.6433,8.6433,8.6081,8.5777,8.5486,8.5166,8.5071,8.524,8.5203,8.5264,8.5392,8.5834,8.5802,8.5594,8.5805,8.6225,8.6567,8.6627,8.6828,8.7112,8.7076,8.6721,8.6213,8.6125,8.6113,8.598,8.5999,8.6035,8.5999,8.5662,8.5716,8.608,8.6364,8.6692,8.7028,8.6594,8.6267,8.6215,8.5306,8.4609,8.4123,8.3801,8.3765,8.4087,8.4123,8.4233,8.4572,8.4609,8.4609,8.4609,8.4609,8.4558,8.4465,8.5049,8.5384,8.5297,8.591,8.5983,8.5518,8.5736,8.5995,8.5978,8.6032,8.6032,8.5967,8.56,8.5298,8.5315,8.5196,8.4939,8.4674,8.4866,8.5013,8.4744,8.5016,8.5546,8.6113,8.6352,8.6534,8.6502,8.6191,8.6045,8.6018,8.5788,8.5528,8.5119,8.4897,8.4748,8.4488,8.4228,8.4042,8.4599,8.5268,8.6189,8.6672,8.7527,8.7712,8.6969,8.746,8.7869,8.7312,8.746,8.8092,8.8092,8.8352,8.8389,8.9134,8.9134,8.9134,8.9134,8.9018,8.8308,8.7989,8.7955,8.7414,8.7211,8.7231,8.7414,8.7516,8.738,8.6535,8.6399,8.6792,8.6535,8.6569,8.6825,8.6332,8.6108,8.6034,8.5611,8.5579,8.5896,8.6123,8.6329,8.6592,8.6322,8.605,8.587,8.6079,8.6162,8.602,8.606,8.606,8.5994,8.5582,8.5421,8.5567,8.5895,8.6349,8.6756,8.6684,8.6641,8.6803,8.6554,8.6297,8.5958,8.5702,8.56,8.5563,8.538,8.5261,8.527,8.5261,8.527,8.5261,8.5261,8.5131,8.4935,8.5217,8.5219,8.5069,8.5239,8.5394,8.5413,8.5961,8.6256,8.6662,8.668,8.668,8.6634,8.6103,8.5828,8.5799,8.5366,8.5198,8.5148,8.5411,8.5286,8.5345,8.5536,8.5787,8.5959,8.5888,8.5826,8.5998,8.6164,8.619,8.6233,8.6308,8.5966,8.5409,8.4859,8.4414,8.4005,8.3596,8.3559,8.4116,8.4859,8.5632,8.6301,8.7349,8.7572,8.6709,8.7089,8.798,8.7534,8.7646,8.8092,8.8092,8.824,8.8315,8.9134,8.9134,8.9134,8.9134,8.9066,8.8328,8.8023,8.8071,8.7989,8.7955,8.8057,8.8612,8.8984,8.8815,8.7482,8.6893,8.7028,8.755,8.7516,8.7062,8.6893,8.6859,8.6819,8.6378,8.6151,8.6169,8.6676,8.7033,8.7137,8.6522,8.6347,8.6484,8.6256,8.6349,8.6577,8.6629,8.6772,8.6526,8.6147,8.5843,8.5521,8.5912,8.6675,8.7542,8.6955,8.7285,8.8724,8.8437,8.8327,8.9088,8.8153,8.7877,8.785,8.718,8.6714,8.6759,8.6805,8.6813,8.6751,8.6697,8.6548,8.6201,8.5734,8.5468,8.497,8.4644,8.4457,8.4447,8.4574,8.4962,8.5639,8.5791,8.5838,8.5838,8.5802,8.5814,8.6018,8.6056,8.6382,8.6487,8.6552,8.6662,8.6996,8.7194,8.7032,8.712,8.7296,8.7316,8.7319,8.7494,8.7529,8.7664,8.7607,8.7147,8.5067,8.4852,8.4376,8.3968,8.3931,8.341,8.3819,8.4376,8.5186,8.6041,8.7237,8.746,8.6486,8.6635,8.7646,8.7869,8.7869,8.8092,8.8092,8.8761,8.8761,9.0236,8.9782,8.9289,8.9134,8.91,8.8815,8.8714,8.8714,8.8714,8.8714,8.8748,8.8984,8.9134,8.9052,8.8545,8.8308,8.8274,8.8139,8.8105,8.8192,8.782,8.7617,8.7529,8.6935,8.6379,8.604,8.6225,8.6211,8.5937,8.561,8.5458,8.5487,8.5644,8.5775,8.5862,8.5927,8.5892,8.5823,8.5443,8.5263,8.5292,8.5252,8.5812,8.6977,8.7115,8.7575,8.8593,8.7848,8.7566,8.7857,8.7093,8.6665,8.6629,8.6401,8.6219,8.6256,8.621,8.6219,8.6219,8.6219,8.608,8.5648,8.5215,8.4752,8.4359,8.3918,8.363,8.363,8.363,8.3844,8.4119,8.458,8.4886,8.4922,8.4932,8.5071,8.5423,8.5747,8.61,8.6456,8.6786,8.7012,8.7064,8.7126,8.7124,8.7175,8.7192,8.7293,8.7447,8.7497,8.7551,8.7681,8.7655,8.7248,8.5982,8.5851,8.5743,8.5149,8.4815,8.477,8.4985,8.5453,8.6218,8.6343,8.7361,8.7584,8.6744,8.6663,8.7607,8.8143,8.818,8.8426,8.8092,8.8686,8.8612,9.1,9.0527,9.0033,8.983,8.9796,8.983,8.9796,8.9796,8.9796,8.9796,8.9796,8.9796,8.9695,8.9492,8.9458,8.9289,8.9086,8.8578,8.8612,8.8984,8.8328,8.8139,8.8206,8.7583,8.7008,8.6481,8.5973,8.5545,8.5152,8.5077,8.5104,8.5195,8.5573,8.5799,8.5893,8.5916,8.5916,8.5811,8.5517,8.5446,8.5531,8.5399,8.5749,8.6639,8.7205,8.7676,8.8041,8.7335,8.7046,8.7118,8.6299,8.5624,8.5388,8.5595,8.5595,8.5398,8.5326,8.5352,8.5362,8.5362,8.5176,8.4793,8.4292,8.3886,8.347,8.3019,8.2783,8.2738,8.2738,8.2738,8.2851,8.326,8.3666,8.3971,8.4198,8.4422,8.4697,8.5287,8.5867,8.6356,8.6697,8.6891,8.6969,8.7023,8.7031,8.7014,8.7014,8.71,8.7262,8.7313,8.7343,8.7464,8.753,8.7316,8.6733,8.6701,8.615,8.5528,8.5337,8.5524,8.5814,8.6363,8.6726,8.683,8.7044,8.7296,8.7349,8.7121,8.7515,8.8162,8.8878,8.9273,8.8909,8.8538,8.8426,9.1305,9.1271,9.1271,9.1135,9.1116,9.1102,9.1217,9.1135,9.1169,9.1082,9.1,9.1184,9.0729,9.0324,9.0121,8.9782,8.9255,8.9052,8.9018,8.9018,8.8395,8.8429,8.8917,8.8342,8.7936,8.7732,8.6481,8.5647,8.5296,8.5309,8.5482,8.5895,8.6205,8.6513,8.7045,8.6917,8.6976,8.6835,8.6571,8.6429,8.6357,8.6395,8.6606,8.6953,8.7197,8.7442,8.7814,8.709,8.7015,8.75,8.6379,8.5273,8.4793,8.5175,8.52,8.4722,8.4518,8.4482,8.4518,8.4579,8.451,8.4145,8.354,8.3273,8.2949,8.2465,8.2206,8.2264,8.216,8.2031,8.2101,8.2219,8.2546,8.3113,8.3783,8.4077,8.4264,8.4956,8.5803,8.6263,8.6536,8.6786,8.6925,8.7014,8.7014,8.7014,8.7023,8.7038,8.7228,8.7254,8.7335,8.7415,8.7415,8.7254,8.7357,8.7395,8.6463,8.5695,8.5633,8.5718,8.5971,8.6423,8.6735,8.6912,8.7179,8.7438,8.7507,8.7399,8.7768,8.843,8.9252,8.9591,8.905,8.8538,8.8493,9.2068,9.2,9.1508,9.1305,9.1305,9.1305,9.1305,9.1305,9.1305,9.1305,9.1305,9.1305,9.1184,9.0865,9.0459,9.0087,8.9816,8.9357,8.9134,8.9086,8.8849,8.8849,8.9018,8.8883,8.8497,8.7922,8.7042,8.6474,8.6352,8.6298,8.652,8.6806,8.6918,8.6992,8.7049,8.7037,8.6871,8.6575,8.6469,8.6369,8.6294,8.6404,8.6503,8.6531,8.6617,8.6714,8.6797,8.6683,8.6742,8.7023,8.6013,8.5331,8.5179,8.5285,8.532,8.5144,8.5073,8.5073,8.5073,8.5038,8.4927,8.4684,8.4377,8.4101,8.3819,8.3451,8.3259,8.3281,8.3316,8.3316,8.3316,8.3316,8.322,8.3031,8.3205,8.3763,8.4362,8.5097,8.5611,8.5909,8.6274,8.6626,8.6891,8.6978,8.7006,8.7014,8.7014,8.7029,8.71,8.7135,8.7118,8.7158,8.7158,8.7209,8.7251,8.7276,8.6789,8.6315,8.6234,8.6119,8.6373,8.65,8.6812,8.7005,8.7263,8.7427,8.7497,8.7756,8.8088,8.8201,8.8639,8.8674,8.8514,8.8469,8.8451,9.2861,9.2778,9.2353,9.2165,9.2165,9.2165,9.215,9.2165,9.2165,9.215,9.2165,9.2165,9.1996,9.1677,9.1189,9.085,9.0594,9.0101,8.9932,8.9763,8.9255,8.9134,8.9134,8.9134,8.8714,8.8057,8.755,8.7164,8.6893,8.6907,8.7043,8.7267,8.7307,8.735,8.7392,8.7422,8.7276,8.714,8.7204,8.7156,8.7156,8.7156,8.7156,8.7156,8.7156,8.7156,8.7172,8.7284,8.6937,8.6181,8.5577,8.5216,8.4937,8.5112,8.5204,8.4926,8.4856,8.4856,8.4902,8.4798,8.4856,8.4679,8.4537,8.4394,8.4248,8.4066,8.4006,8.3993,8.3959,8.3993,8.3959,8.3959,8.3868,8.3811,8.3813,8.4041,8.4681,8.5033,8.5199,8.5336,8.5707,8.6229,8.6644,8.6865,8.6917,8.6997,8.7014,8.7014,8.7014,8.7023,8.706,8.706,8.7066,8.7038,8.704,8.704,8.704,8.6971,8.6917,8.6849,8.6883,8.6911,8.7067,8.7058,8.7214,8.7197,8.7268,8.7869,8.8236,8.8228,8.8214,8.8683,8.8913,8.8633,8.849,9.3586,9.3601,9.3586,9.3484,9.3451,9.3451,9.3417,9.3518,9.3484,9.3431,9.3484,9.3383,9.3098,9.2575,9.2237,9.1865,9.1406,9.1169,9.1082,9.0763,9.0033,8.9458,8.9492,8.939,8.8984,8.8395,8.8158,8.7719,8.7299,8.7265,8.7131,8.7532,8.7593,8.7624,8.7975,8.8099,8.8148,8.8248,8.8381,8.8394,8.842,8.8467,8.8467,8.8433,8.8398,8.8398,8.8355,8.8302,8.7496,8.5767,8.5728,8.5476,8.4744,8.5018,8.5336,8.483,8.4387,8.4621,8.4434,8.4936,8.4842,8.4865,8.484,8.4247,8.472,8.4789,8.4626,8.458,8.4419,8.4281,8.4316,8.4316,8.4592,8.5087,8.5121,8.5066,8.4783,8.4816,8.4956,8.4847,8.5177,8.5858,8.6611,8.6884,8.7098,8.7264,8.739,8.7455,8.7455,8.7528,8.728,8.7316,8.75,8.7353,8.7427,8.7023,8.7023,8.704,8.7072,8.7089,8.7106,8.7098,8.7089,8.7072,8.71,8.7066,8.7182,8.7701,8.8024,8.8017,8.8416,8.9114,8.9062,8.8528,8.824,9.3601,9.3601,9.3601,9.3601,9.3601,9.3601,9.3601,9.3601,9.3601,9.3601,9.3601,9.3601,9.3484,9.3248,9.2643,9.2305,9.2034,9.1575,9.1305,9.1271,9.0981,9.0744,9.056,9.0154,8.9816,8.9512,8.9004,8.8714,8.8545,8.8409,8.8485,8.8622,8.8514,8.8462,8.8375,8.8354,8.8253,8.8251,8.8247,8.8412,8.8648,8.8674,8.8618,8.8618,8.8639,8.8639,8.8579,8.8364,8.8192,8.7799,8.7708,8.7639,8.7222,8.7407,8.7338,8.7166,8.7225,8.7294,8.7294,8.726,8.7294,8.7398,8.7087,8.7398,8.7363,8.6799,8.6557,8.642,8.6087,8.5661,8.5661,8.5626,8.5811,8.5937,8.6053,8.5735,8.5265,8.5375,8.546,8.5254,8.5845,8.6562,8.7245,8.7812,8.8189,8.8505,8.8611,8.8592,8.8437,8.8482,8.8372,8.8418,8.8491,8.8133,8.7766,8.7288,8.706,8.7023,8.704,8.7049,8.7021,8.7057,8.7049,8.7031,8.7057,8.704,8.7092,8.7359,8.7531,8.7749,8.7905,8.8227,8.8109,8.7752,8.7764,9.3601,9.3601,9.3601,9.3601,9.3601,9.3601,9.3601,9.3601,9.3601,9.3601,9.3601,9.3601,9.3601,9.3518,9.3131,9.2895,9.2861,9.2469,9.23,9.23,9.2266,9.1894,9.1338,9.0797,9.0527,9.0174,8.9782,8.939,8.9134,8.9134,8.9134,8.9066,8.9134,8.9022,8.8926,8.8858,8.896,8.9067,8.907,8.9201,8.951,8.9536,8.9536,8.9536,8.9523,8.9497,8.9354,8.9183,8.8908,8.8497,8.8286,8.8243,8.8221,8.8338,8.839,8.839,8.8493,8.8549,8.8618,8.8618,8.8618,8.857,8.8618,8.8618,8.8433,8.8122,8.7846,8.7316,8.6984,8.6674,8.642,8.657,8.6902,8.7191,8.6971,8.6351,8.5363,8.5489,8.5492,8.5402,8.5812,8.6663,8.7417,8.8038,8.8593,8.8947,8.9037,8.9155,8.9226,8.9382,8.9473,8.9409,8.9188,8.8748,8.8353,8.7876,8.7353,8.7243,8.717,8.7133,8.7014,8.7014,8.7014,8.7014,8.7014,8.7031,8.7083,8.7072,8.72,8.7296,8.7276,8.7318,8.7335,8.7393,8.734,9.3601,9.3601,9.3601,9.3601,9.3601,9.3601,9.3601,9.3601,9.3601,9.3601,9.3601,9.3601,9.3601,9.3601,9.3484,9.3552,9.3552,9.3383,9.3451,9.3383,9.3315,9.2841,9.186,9.1541,9.1169,9.0681,9.0411,8.9985,8.9695,8.9492,8.939,8.956,8.9492,8.9503,8.9656,8.9624,8.9853,9.0153,8.998,9.0183,9.0492,9.058,9.0566,9.0566,9.0373,9.028,9.0203,9.0095,8.9636,8.8299,8.802,8.8151,8.813,8.826,8.8439,8.8668,8.9001,8.9226,8.895,8.9157,8.9019,8.9053,8.8984,8.8812,8.895,8.8846,8.8501,8.7971,8.7523,8.7075,8.6764,8.7109,8.7708,8.8122,8.7833,8.6915,8.5849,8.5526,8.5399,8.4991,8.5542,8.6197,8.6827,8.751,8.8274,8.9533,8.9677,8.999,9.0117,9.0244,9.0216,9.0069,8.9739,8.9335,8.8895,8.8463,8.7912,8.7537,8.7463,8.7353,8.706,8.7014,8.7014,8.7014,8.7014,8.7014,8.7031,8.7049,8.7012,8.7029,8.7124,8.7072,8.7066,8.7115,8.7149,9.3601,9.3601,9.3601,9.3601,9.3601,9.3601,9.3601,9.3601,9.3601,9.3601,9.3601,9.3601,9.3601,9.3601,9.3601,9.3601,9.3601,9.3601,9.3601,9.3601,9.3601,9.3484,9.2943,9.2522,9.2102,9.1715,9.1305,9.0966,9.0778,9.0642,9.0797,9.0744,9.0608,9.084,9.0795,9.0296,9.0239,9.0472,9.0085,9.0297,9.0919,9.1077,9.1077,9.1042,9.0583,9.0235,9.0044,8.9854,8.9512,8.9301,8.9403,8.9457,8.9443,8.9638,8.9819,9.0058,9.0696,9.0937,9.0523,9.0696,9.0916,9.026,9.0109,9.0329,9.0295,8.9743,8.9433,8.8984,8.8144,8.7489,8.7385,8.7881,8.8433,8.8639,8.8501,8.7984,8.7087,8.6435,8.6074,8.6061,8.6371,8.6977,8.7452,8.8229,8.9008,8.99,9.0397,9.0811,9.0988,9.1051,9.0959,9.0739,9.0519,9.0143,8.9629,8.916,8.8564,8.8051,8.7867,8.7867,8.7573,8.717,8.7206,8.7133,8.7014,8.7023,8.7096,8.7023,8.7031,8.7023,8.7014,8.7014,8.7014,8.7014,8.7023,9.3601,9.3601,9.3601,9.3601,9.3601,9.3601,9.3601,9.3601,9.3601,9.3601,9.3601,9.3601,9.3601,9.3601,9.3601,9.3601,9.3601,9.3601,9.3601,9.3687,9.3924,9.4112,9.4079,9.3639,9.3218,9.2542,9.2034,9.1677,9.1406,9.1338,9.1237,9.1305,9.1338,9.1217,9.1305,9.0932,9.0697,9.0747,9.0673,9.0813,9.1062,9.1445,9.1602,9.1582,9.1226,9.098,9.0862,9.0751,9.0535,9.0459,9.0641,9.0671,9.0406,9.0591,9.0844,9.1323,9.1829,9.1908,9.1509,9.1595,9.1606,9.0881,9.0799,9.0799,9.0765,9.0398,9.0054,8.9661,8.9006,8.8489,8.8501,8.8765,8.9191,8.9502,8.9295,8.8915,8.842,8.7523,8.6626,8.6495,8.6622,8.6965,8.7573,8.8467,8.9188,8.9801,9.0502,9.0951,9.1409,9.1482,9.1555,9.1445,9.1289,9.0959,9.0436,8.9886,8.9225,8.8711,8.8344,8.8454,8.8445,8.7977,8.7472,8.7427,8.7353,8.7206,8.7206,8.7133,8.7023,8.7014,8.7014,8.7014,8.7014,8.7014,8.7014,9.3601,9.3601,9.3601,9.3601,9.3601,9.3601,9.3601,9.3601,9.3601,9.3601,9.3654,9.3687,9.389,9.3823,9.3992,9.3958,9.3992,9.4026,9.4195,9.4263,9.4654,9.4823,9.4823,9.4518,9.3962,9.2812,9.2643,9.2319,9.2083,9.1725,9.2049,9.188,9.1744,9.1928,9.1744,9.1488,9.1371,9.1246,9.1308,9.1495,9.1468,9.1905,9.2129,9.2129,9.1856,9.167,9.1495,9.1492,9.1475,9.1348,9.1605,9.1509,9.1267,9.119,9.1535,9.2226,9.2619,9.2529,9.2088,9.2037,9.1916,9.1088,9.0847,9.0799,9.0765,9.073,9.0454,9.0144,8.973,8.9674,8.9709,8.9812,9.0109,9.042,9.0157,8.9881,8.9502,8.8489,8.7661,8.7009,8.7242,8.7572,8.7783,8.8323,8.9025,8.9713,9.0401,9.1053,9.1527,9.1803,9.1803,9.1812,9.1592,9.1519,9.1069,9.0803,9.0106,8.9555,8.9042,8.9078,8.929,8.9078,8.8601,8.794,8.7794,8.7647,8.7427,8.7206,8.7096,8.706,8.7014,8.7014,8.7014,8.7014,8.7014,9.3601,9.3601,9.3601,9.3601,9.3601,9.3601,9.3601,9.3601,9.3601,9.3586,9.3687,9.4248,9.4485,9.4654,9.5195,9.5413,9.5244,9.5161,9.5229,9.5263,9.5533,9.5601,9.5533,9.5195,9.4654,9.4248,9.3808,9.3605,9.3706,9.3571,9.3267,9.374,9.3383,9.3078,9.2875,9.2624,9.215,9.1879,9.1806,9.183,9.2048,9.2299,9.2469,9.2415,9.2071,9.1742,9.1584,9.1473,9.1362,9.1348,9.1619,9.2053,9.2308,9.2227,9.2328,9.2714,9.3284,9.3354,9.2878,9.2862,9.2537,9.1882,9.133,9.095,9.0903,9.0903,9.0972,9.0834,9.0661,9.0454,8.9778,9.0329,9.0627,9.0765,9.0661,9.0329,8.9847,8.9398,8.895,8.8342,8.8302,8.8171,8.8264,8.8443,8.8998,8.9617,9.0208,9.0931,9.1518,9.173,9.1785,9.1794,9.1776,9.1739,9.1666,9.151,9.1143,9.0546,9.0069,8.9776,8.9959,9.0143,8.9812,8.9262,8.8601,8.8234,8.7904,8.7463,8.717,8.706,8.706,8.7023,8.7014,8.7014,8.7014,9.3601,9.3601,9.3601,9.3601,9.3601,9.3601,9.3601,9.3601,9.3586,9.3823,9.418,9.4552,9.4924,9.5263,9.5601,9.5804,9.5838,9.5804,9.5804,9.5838,9.6157,9.636,9.636,9.5939,9.5872,9.5635,9.5127,9.462,9.462,9.3924,9.4112,9.4315,9.3958,9.3586,9.3552,9.3214,9.2778,9.2522,9.2455,9.2387,9.2474,9.2745,9.2996,9.2895,9.2706,9.2503,9.2469,9.2469,9.2503,9.2595,9.2778,9.3092,9.3309,9.3427,9.3429,9.3617,9.4046,9.4082,9.3643,9.3566,9.3378,9.2675,9.2157,9.2019,9.1985,9.2054,9.1916,9.195,9.1985,9.1868,9.1606,9.1433,9.1399,9.133,9.1088,9.0627,9.0398,9.026,8.9985,8.9536,8.8976,8.866,8.852,8.8744,8.9131,8.9591,9.0107,9.0805,9.1533,9.1812,9.1996,9.1941,9.195,9.1886,9.1849,9.1776,9.1739,9.1289,9.0913,9.062,9.0583,9.073,9.0877,9.073,8.9996,8.9197,8.8353,8.7876,8.75,8.7133,8.706,8.7023,8.7023,8.7014,8.7014,9.3601,9.3601,9.3601,9.3601,9.3601,9.3601,9.3601,9.3601,9.3601,9.389,9.4485,9.4823,9.5263,9.577,9.6123,9.6277,9.6244,9.6311,9.6379,9.648,9.6868,9.7105,9.7105,9.6935,9.6766,9.6496,9.5954,9.5616,9.5263,9.4586,9.4586,9.4857,9.4398,9.3823,9.3808,9.362,9.3165,9.3064,9.3214,9.3199,9.2962,9.3233,9.3601,9.3601,9.3601,9.3518,9.3417,9.3383,9.3417,9.3475,9.3656,9.3855,9.3961,9.4241,9.44,9.4457,9.4721,9.4541,9.4365,9.409,9.393,9.3378,9.3158,9.3089,9.302,9.2847,9.2985,9.3123,9.302,9.2951,9.2675,9.2364,9.2033,9.1791,9.1261,9.0765,9.073,9.0661,9.0627,9.0144,8.9502,8.9299,8.9307,8.936,8.978,9.014,9.0635,9.1211,9.1905,9.227,9.2404,9.2262,9.217,9.2024,9.1923,9.1812,9.1776,9.1629,9.1363,9.1143,9.1179,9.1253,9.1363,9.14,9.117,9.0335,8.9307,8.8316,8.7912,8.7537,8.7206,8.7023,8.7023,8.7014,8.7014,9.3601,9.3601,9.3601,9.3601,9.3601,9.3601,9.3601,9.3601,9.3601,9.362,9.3977,9.5026,9.5635,9.609,9.7191,9.7631,9.7649,9.7548,9.748,9.7495,9.7664,9.7732,9.7732,9.7172,9.7071,9.6969,9.6326,9.6225,9.6191,9.5736,9.5804,9.609,9.5127,9.4503,9.4349,9.3857,9.3586,9.3484,9.3552,9.3518,9.3451,9.3518,9.3586,9.3601,9.3601,9.3601,9.3601,9.3601,9.3601,9.3601,9.363,9.3645,9.3689,9.3874,9.4019,9.4222,9.4531,9.4962,9.4909,9.4627,9.4372,9.4013,9.3627,9.3227,9.333,9.3365,9.3365,9.3123,9.3192,9.3227,9.3171,9.2516,9.2136,9.1757,9.1295,9.0903,9.0799,9.0799,9.0799,9.0765,9.0109,9.0247,9.0356,9.0375,9.0451,9.0796,9.1205,9.1703,9.2254,9.2661,9.2796,9.2647,9.2501,9.2354,9.1923,9.1812,9.1812,9.1812,9.1702,9.1546,9.1546,9.1546,9.162,9.1657,9.151,9.1326,9.0408,8.9454,8.8536,8.8051,8.7867,8.7463,8.7023,8.7051,8.7344,9.3992,9.3601,9.3601,9.3601,9.3601,9.3601,9.3601,9.3601,9.3601,9.3857,9.4248,9.4823,9.5601,9.6529,9.7597,9.7953,9.7987,9.7987,9.7987,9.7987,9.7987,9.7987,9.7935,9.7698,9.7529,9.736,9.7258,9.7258,9.7157,9.6496,9.6191,9.6563,9.5499,9.4639,9.4654,9.3992,9.3687,9.3586,9.3601,9.3601,9.3601,9.3601,9.3601,9.3601,9.3601,9.362,9.3634,9.3601,9.3601,9.3601,9.3601,9.3601,9.3659,9.385,9.4005,9.4048,9.4408,9.4693,9.48,9.4722,9.4647,9.4682,9.4441,9.4516,9.4413,9.4344,9.4344,9.4447,9.4399,9.4192,9.3723,9.3068,9.2481,9.195,9.1247,9.0972,9.0799,9.0799,9.0799,9.0799,9.0799,9.0799,9.0757,9.0551,9.0483,9.0702,9.1117,9.1678,9.2439,9.325,9.3217,9.2996,9.2868,9.2721,9.217,9.1812,9.1812,9.1812,9.1812,9.1702,9.1739,9.1776,9.1812,9.1812,9.1702,9.1436,9.1143,9.0473,8.9482,8.9005,8.8601,8.8271,8.7968,8.8262,8.8482,9.477,9.4398,9.4026,9.3755,9.3601,9.3601,9.3601,9.3601,9.3601,9.3909,9.4417,9.489,9.5838,9.7003,9.7732,9.7987,9.7987,9.7987,9.7987,9.7987,9.7987,9.7987,9.7987,9.7969,9.7969,9.7987,9.7818,9.7852,9.7581,9.7089,9.6683,9.6849,9.5702,9.4992,9.4586,9.4248,9.3958,9.3992,9.3943,9.3808,9.3654,9.3601,9.3601,9.3654,9.3755,9.3857,9.389,9.4161,9.4229,9.4263,9.4296,9.4364,9.4375,9.4542,9.4611,9.4616,9.4777,9.4712,9.4816,9.4796,9.4905,9.5087,9.5185,9.5172,9.5241,9.5413,9.5379,9.5206,9.5241,9.4896,9.4344,9.3503,9.2778,9.2019,9.1295,9.1006,9.0799,9.0799,9.0799,9.0799,9.0799,9.0799,9.0679,9.0512,9.0481,9.0645,9.1047,9.1686,9.2776,9.3939,9.4087,9.4014,9.3886,9.3519,9.2611,9.217,9.206,9.1803,9.1812,9.1812,9.1812,9.1812,9.1812,9.1812,9.1812,9.1702,9.1473,9.0959,9.0436,8.9849,8.9409,8.929,8.9216,8.9436,8.9436,9.6074,9.6563,9.5161,9.4282,9.3687,9.3601,9.3634,9.362,9.362,9.3789,9.4296,9.5195,9.6717,9.7698,9.8104,9.819,9.8055,9.7987,9.8089,9.8089,9.8021,9.8156,9.8224,9.8224,9.8089,9.8089,9.8021,9.7987,9.7953,9.7751,9.7292,9.6834,9.5905,9.533,9.489,9.4518,9.4349,9.4349,9.4383,9.4112,9.3789,9.3601,9.3601,9.3755,9.4214,9.462,9.4639,9.5093,9.5379,9.533,9.5296,9.533,9.5259,9.5337,9.5348,9.534,9.5053,9.4991,9.5064,9.4944,9.5065,9.524,9.54,9.5413,9.5413,9.5413,9.5413,9.5413,9.5413,9.4965,9.4296,9.3572,9.2813,9.1882,9.1192,9.0972,9.0799,9.0799,9.0799,9.0799,9.0799,9.0799,9.0799,9.0607,9.0564,9.0706,9.1781,9.2434,9.3888,9.4991,9.5275,9.5307,9.5189,9.4538,9.3262,9.2794,9.2464,9.2024,9.1812,9.1812,9.1812,9.1812,9.1812,9.1812,9.1812,9.1812,9.1739,9.1253,9.084,9.0473,9.0216,9.0143,9.0032,9.0069,8.9913,9.5432,9.4905,9.5195,9.5229,9.4905,9.4451,9.4026,9.3721,9.4079,9.4838,9.5684,9.7138,9.812,9.8645,9.9171,9.907,9.8713,9.8679,9.8645,9.8679,9.8679,9.8934,9.9002,9.8815,9.8679,9.851,9.8258,9.7987,9.7987,9.7987,9.7191,9.6496,9.5954,9.5398,9.4924,9.4654,9.4485,9.4282,9.4417,9.4315,9.3755,9.3601,9.3601,9.3654,9.4315,9.4639,9.4789,9.5398,9.5669,9.5804,9.5804,9.5804,9.5872,9.5872,9.5905,9.5849,9.5459,9.5307,9.5302,9.5144,9.5045,9.5296,9.5413,9.5413,9.5413,9.5413,9.5413,9.5413,9.5379,9.4986,9.3709,9.3227,9.2675,9.1627,9.1075,9.0937,9.0799,9.0799,9.0799,9.0799,9.0799,9.0799,9.0799,9.0778,9.0778,9.0875,9.2077,9.3286,9.4523,9.5581,9.5672,9.5835,9.5709,9.5042,9.3776,9.3235,9.2831,9.24,9.1996,9.2106,9.2216,9.1812,9.1803,9.1812,9.1849,9.1886,9.1803,9.1546,9.128,9.1033,9.1033,9.1097,9.095,9.0693,9.0583,9.533,9.4736,9.5717,9.5736,9.5127,9.4586,9.4079,9.3789,9.4383,9.5702,9.7274,9.8341,9.9085,9.9424,9.9593,9.9593,9.9018,9.8815,9.8898,9.8848,9.8882,9.9288,9.939,9.9153,9.8544,9.8645,9.8375,9.7987,9.7987,9.7987,9.7157,9.6277,9.5736,9.5263,9.4552,9.4571,9.4417,9.4214,9.4282,9.4315,9.3721,9.3601,9.3823,9.3992,9.4721,9.5263,9.5533,9.6007,9.6176,9.6108,9.6007,9.5939,9.6041,9.6142,9.6244,9.6146,9.5886,9.5555,9.558,9.5389,9.5163,9.5351,9.5413,9.5413,9.5413,9.5413,9.5413,9.5413,9.5344,9.4848,9.3537,9.3503,9.2882,9.195,9.1537,9.133,9.0937,9.0799,9.0799,9.0799,9.0799,9.0799,9.0799,9.0825,9.0983,9.1105,9.1915,9.3038,9.409,9.5017,9.5583,9.5771,9.5889,9.5058,9.4143,9.407,9.3969,9.3428,9.3061,9.2914,9.2831,9.2464,9.2244,9.2391,9.2354,9.2097,9.184,9.1657,9.1657,9.1739,9.1657,9.151,9.151,9.1289,9.1436,9.6123,9.6815,9.6732,9.5548,9.389,9.3687,9.3721,9.3857,9.4654,9.6093,9.7901,9.8341,9.907,9.9848,9.9863,9.9525,9.9153,9.8578,9.851,9.8882,9.8679,9.8713,9.8815,9.8747,9.8476,9.8138,9.8021,9.7987,9.7987,9.7987,9.7108,9.6277,9.5804,9.5108,9.3857,9.4349,9.4673,9.4639,9.4605,9.4248,9.3755,9.3601,9.389,9.4349,9.5161,9.577,9.5905,9.6428,9.6563,9.6394,9.6022,9.6041,9.6462,9.6665,9.6935,9.7323,9.6564,9.6166,9.6051,9.5632,9.5378,9.5351,9.5413,9.5413,9.5413,9.5413,9.5413,9.5413,9.5379,9.5034,9.4516,9.4103,9.3206,9.233,9.1916,9.1502,9.1075,9.0799,9.0799,9.0799,9.0799,9.0799,9.0799,9.0865,9.11,9.1428,9.1965,9.2763,9.3704,9.4468,9.5071,9.5583,9.5768,9.552,9.4901,9.5179,9.5024,9.4483,9.3978,9.3685,9.3675,9.3611,9.3382,9.3152,9.2794,9.2464,9.2134,9.1776,9.1812,9.1812,9.1812,9.1739,9.1776,9.1812,9.1812,9.4924,9.477,9.5229,9.4721,9.3823,9.4669,9.4789,9.4687,9.6108,9.7581,9.8781,9.9694,10.042,10.0793,10.0623,10.0168,9.966,9.9085,9.9018,9.8984,9.8729,9.9254,9.934,9.8984,9.8645,9.8578,9.8326,9.7987,9.7987,9.7987,9.7495,9.6683,9.5905,9.4973,9.4195,9.4214,9.4537,9.4146,9.4282,9.4349,9.3687,9.362,9.3755,9.4079,9.521,9.5717,9.5751,9.636,9.6496,9.6225,9.5736,9.5838,9.6225,9.6428,9.6732,9.6744,9.6055,9.593,9.5559,9.5126,9.5191,9.5296,9.5413,9.5413,9.5413,9.5413,9.5413,9.5413,9.5413,9.4999,9.4496,9.4309,9.3551,9.2412,9.1826,9.1468,9.1123,9.0903,9.0799,9.0799,9.0799,9.0799,9.0799,9.0799,9.0996,9.1152,9.1572,9.2162,9.3013,9.3774,9.4433,9.5159,9.5528,9.5592,9.5582,9.568,9.5492,9.4896,9.4456,9.4125,9.4235,9.4566,9.4079,9.3556,9.3198,9.2868,9.2537,9.2253,9.1886,9.1812,9.1996,9.1923,9.1812,9.1812,9.1812,9.406,9.3687,9.4417,9.4451,9.4161,9.5026,9.5364,9.5669,9.7022,9.8172,9.9153,10.0184,10.0691,10.0793,10.0691,10.0438,9.9746,9.9051,9.8999,9.8999,9.8796,9.9085,9.9288,9.9153,9.8578,9.8578,9.8326,9.7987,9.7987,9.7987,9.7529,9.6834,9.6191,9.5195,9.4485,9.4417,9.4383,9.3992,9.4026,9.4045,9.3687,9.362,9.3755,9.4214,9.4823,9.533,9.5364,9.5601,9.5954,9.5499,9.5263,9.5229,9.5499,9.5736,9.6007,9.586,9.5593,9.5395,9.4927,9.479,9.4947,9.5358,9.54,9.5413,9.5413,9.5413,9.5413,9.5413,9.5413,9.5172,9.4792,9.462,9.4103,9.2964,9.2585,9.2261,9.1468,9.1261,9.1006,9.0972,9.0799,9.0799,9.0799,9.0799,9.0865,9.0983,9.1105,9.1721,9.2296,9.2978,9.3751,9.4493,9.5205,9.5439,9.5685,9.5971,9.5701,9.5217,9.5043,9.4896,9.5217,9.5584,9.4777,9.4143,9.4107,9.3859,9.3161,9.2767,9.2767,9.2657,9.2583,9.2363,9.1923,9.1812,9.1812,9.3601,9.3687,9.4383,9.4654,9.4706,9.4909,9.5669,9.6883,9.6969,9.7781,9.9067,9.9153,9.966,9.9965,9.9491,9.9254,9.9085,9.8427,9.851,9.8645,9.8409,9.8713,9.8679,9.8442,9.8273,9.8123,9.7987,9.7987,9.7987,9.7987,9.7597,9.7071,9.6563,9.577,9.5263,9.4992,9.4601,9.3992,9.3687,9.3755,9.3601,9.3601,9.3857,9.4248,9.4687,9.4992,9.506,9.5161,9.4924,9.4518,9.4127,9.4248,9.4451,9.4721,9.5161,9.5345,9.5041,9.468,9.4585,9.4557,9.4849,9.5303,9.5413,9.5413,9.5413,9.5413,9.5413,9.5413,9.5413,9.5413,9.531,9.5137,9.4896,9.4378,9.4034,9.324,9.2205,9.1722,9.1399,9.1192,9.0868,9.0799,9.0799,9.0799,9.0799,9.0852,9.097,9.1118,9.1683,9.2088,9.2871,9.3762,9.449,9.5253,9.5615,9.5878,9.6135,9.5744,9.6079,9.6098,9.6392,9.6318,9.5611,9.5134,9.5244,9.4841,9.3859,9.3721,9.3978,9.3795,9.3354,9.2868,9.2427,9.1913,9.1803,9.3601,9.362,9.3857,9.4214,9.4808,9.5804,9.6834,9.7631,9.7698,9.8003,9.8341,9.8882,9.9187,9.9356,9.9187,9.9085,9.8815,9.8476,9.819,9.8123,9.8123,9.8206,9.8172,9.8123,9.7987,9.7987,9.7987,9.7987,9.7987,9.7987,9.7953,9.7664,9.7292,9.6785,9.6394,9.6225,9.5075,9.4127,9.3721,9.3654,9.362,9.3601,9.3823,9.3992,9.4417,9.4586,9.4364,9.462,9.4417,9.3924,9.3755,9.3823,9.3857,9.4383,9.489,9.4857,9.4442,9.4039,9.4391,9.4485,9.4742,9.5185,9.5351,9.5413,9.5413,9.5413,9.5413,9.5413,9.5413,9.5413,9.5413,9.5275,9.5068,9.4758,9.4413,9.3827,9.2826,9.2343,9.1985,9.1261,9.0972,9.0799,9.0799,9.0799,9.0799,9.0799,9.0839,9.0909,9.1092,9.1521,9.2075,9.2966,9.3669,9.4399,9.5205,9.558,9.6037,9.635,9.656,9.6712,9.6612,9.6465,9.6199,9.5942,9.5648,9.507,9.4309,9.4456,9.4813,9.4419,9.3978,9.3455,9.2978,9.2574,9.2207,9.3842,9.3654,9.3909,9.462,9.5669,9.6819,9.7597,9.7953,9.7987,9.7987,9.8055,9.8442,9.8679,9.8645,9.8645,9.8612,9.8578,9.8224,9.8021,9.8021,9.7987,9.8021,9.7987,9.7987,9.7987,9.7987,9.7987,9.7987,9.7987,9.7987,9.7987,9.7953,9.7987,9.7529,9.7037,9.6597,9.5751,9.4736,9.4011,9.3842,9.3687,9.3601,9.3601,9.3687,9.4146,9.3924,9.3721,9.418,9.3958,9.3654,9.3601,9.3601,9.362,9.4045,9.4248,9.418,9.3973,9.3922,9.4184,9.4285,9.4636,9.5017,9.5212,9.5268,9.5337,9.5413,9.5413,9.5413,9.5413,9.5413,9.5413,9.5344,9.5103,9.4827,9.4516,9.4206,9.3654,9.3102,9.2343,9.1502,9.1123,9.0868,9.0799,9.0799,9.0799,9.0799,9.0799,9.0839,9.0883,9.1079,9.1555,9.2187,9.2847,9.3518,9.4336,9.5153,9.5679,9.613,9.6541,9.6637,9.6703,9.6649,9.6428,9.6135,9.5768,9.5364,9.519,9.5327,9.5511,9.5144,9.485,9.4483,9.4079,9.3639,9.3308,9.4248,9.3687,9.4436,9.5499,9.68,9.7563,9.7953,9.7987,9.7987,9.7987,9.8021,9.8021,9.8089,9.8156,9.8156,9.8156,9.8156,9.8021,9.7987,9.7987,9.7987,9.7987,9.7987,9.7987,9.7987,9.7987,9.7987,9.7987,9.7987,9.7987,9.7987,9.7987,9.7987,9.7698,9.7258,9.7172,9.6447,9.5432,9.4924,9.4687,9.3823,9.3601,9.3601,9.3601,9.3654,9.3601,9.3601,9.362,9.3601,9.3601,9.3601,9.3601,9.362,9.3654,9.3687,9.3687,9.3654,9.3811,9.3995,9.4077,9.4423,9.4701,9.4933,9.5129,9.5282,9.54,9.5413,9.5413,9.5413,9.5413,9.5413,9.5413,9.5206,9.5137,9.4965,9.4551,9.4034,9.3344,9.2481,9.1675,9.1123,9.0903,9.0799,9.0799,9.0799,9.0799,9.0799,9.0799,9.0825,9.0844,9.1157,9.1641,9.2137,9.2823,9.3623,9.4424,9.5195,9.574,9.622,9.655,9.656,9.6618,9.6722,9.6428,9.6171,9.6392,9.6355,9.6282,9.6135,9.6135,9.5878,9.5575,9.5171,9.4666,9.441,9.4282,9.3721,9.5007,9.577,9.621,9.7461,9.7987,9.7987,9.7987,9.7987,9.7987,9.7987,9.7987,9.7987,9.7987,9.7987,9.7987,9.7987,9.7987,9.7987,9.7987,9.7987,9.7987,9.7987,9.7987,9.7987,9.7987,9.7987,9.7987,9.7987,9.7987,9.7987,9.7987,9.7784,9.7631,9.7597,9.6988,9.5973,9.577,9.4958,9.3789,9.3601,9.3601,9.3601,9.3601,9.3601,9.3601,9.3601,9.3601,9.3601,9.3601,9.3601,9.3601,9.3601,9.3601,9.3601,9.3601,9.3747,9.3894,9.399,9.4279,9.4645,9.4913,9.5115,9.5254,9.5337,9.5413,9.5413,9.5413,9.5413,9.5413,9.5413,9.5413,9.5413,9.5379,9.4896,9.4413,9.3551,9.2654,9.2019,9.1364,9.1006,9.0903,9.0799,9.0799,9.0799,9.0799,9.0799,9.0799,9.0839,9.0957,9.1334,9.153,9.2174,9.2966,9.3635,9.4369,9.5153,9.571,9.607,9.6424,9.6579,9.6722,9.6722,9.6649,9.6722,9.6722,9.6649,9.6612,9.6612,9.6539,9.6088,9.5942,9.5547,9.5391,9.5229,9.477,9.5819,9.6293,9.6496,9.7529,9.7987,9.7987,9.7987,9.7987,9.7987,9.7987,9.7987,9.7987,9.7987,9.7987,9.7987,9.7987,9.7987,9.7987,9.8021,9.7987,9.7987,9.7987,9.7987,9.7987,9.7987,9.7987,9.7987,9.7987,9.7987,9.7987,9.7987,9.7987,9.7953,9.7698,9.7206,9.6394,9.621,9.5142,9.3789,9.3823,9.3789,9.3755,9.3601,9.3601,9.3601,9.3601,9.3601,9.3601,9.3601,9.3601,9.3601,9.3601,9.3601,9.3601,9.3615,9.3659,9.3791,9.3937,9.4121,9.4537,9.4736,9.4834,9.5296,9.5413,9.5413,9.5413,9.5413,9.5413,9.5413,9.5413,9.5413,9.5413,9.5413,9.5172,9.4758,9.4206,9.3654,9.3309,9.2468,9.1571,9.1364,9.095,9.0903,9.0799,9.0799,9.0799,9.0799,9.0799,9.0917,9.1035,9.1269,9.1517,9.2125,9.2799,9.3496,9.428,9.511,9.5822,9.6318,9.656,9.6722,9.6722,9.6722,9.6722,9.6722,9.6722,9.6722,9.6685,9.6649,9.6502,9.6428,9.6318,9.6135,9.636,9.5819,9.6529,9.68,9.6902,9.7664,9.7987,9.7987,9.7987,9.7987,9.7987,9.7987,9.7987,9.7987,9.7987,9.7987,9.8055,9.8273,9.8206,9.8055,9.8172,9.8138,9.8055,9.7987,9.7987,9.7987,9.7987,9.7987,9.7987,9.7987,9.7987,9.7987,9.7987,9.7987,9.78,9.7308,9.6699,9.6191,9.5684,9.4721,9.4315,9.4214,9.3977,9.3755,9.3601,9.3601,9.3601,9.3601,9.3601,9.3601,9.3601,9.3601,9.3601,9.3601,9.3601,9.3601,9.3601,9.3615,9.3645,9.3674,9.401,9.4328,9.4428,9.4742,9.5233,9.5413,9.5413,9.5413,9.5413,9.5413,9.5413,9.5413,9.5413,9.5413,9.5413,9.5413,9.5068,9.4689,9.4413,9.4172,9.324,9.2205,9.1709,9.1295,9.0985,9.0868,9.0799,9.0799,9.0799,9.0799,9.0852,9.0878,9.0983,9.1247,9.1603,9.205,9.2726,9.3531,9.4402,9.5426,9.6229,9.6443,9.6589,9.6722,9.6722,9.6722,9.6722,9.6722,9.6722,9.6722,9.6685,9.6649,9.6612,9.6539,9.6612,9.6123,9.5026,9.6311,9.6597,9.6311,9.7428,9.7987,9.7987,9.7987,9.7987,9.7987,9.7987,9.7987,9.7987,9.7987,9.8021,9.8089,9.8442,9.8375,9.8104,9.8544,9.8409,9.8172,9.8055,9.8021,9.7987,9.7987,9.7987,9.7987,9.7987,9.7987,9.7987,9.7987,9.7953,9.7852,9.7326,9.6766,9.6326,9.577,9.4992,9.4417,9.4146,9.3755,9.362,9.3601,9.3601,9.3601,9.3601,9.3601,9.3601,9.3601,9.3601,9.3601,9.3601,9.3601,9.3601,9.3601,9.3601,9.3601,9.3601,9.3923,9.4385,9.4543,9.477,9.5163,9.5413,9.5413,9.5413,9.5413,9.5413,9.5413,9.5413,9.5413,9.5413,9.5413,9.5413,9.5241,9.4827,9.4482,9.3965,9.324,9.2585,9.2205,9.1675,9.1041,9.0937,9.0834,9.0834,9.0799,9.0799,9.0799,9.0799,9.0799,9.1017,9.1317,9.1514,9.2088,9.2882,9.3774,9.4828,9.571,9.6276,9.6443,9.6628,9.6722,9.6722,9.6722,9.6722,9.6722,9.6722,9.6722,9.6685,9.6722,9.6722,9.6722]},{"header":{"parameterUnit":"m.s-1","parameterCategory":1,"la1":31.0,"la2":29.5877,"lo1":-88.7671,"lo2":-86.6584,"dy":0.0162,"dx":0.0185,"nx":115,"ny":88,"refTime":"2026-04-02T12:00:00:Z","depth":0,"parameterNumber":3,"parameterNumberName":"V-component_of_WINDS"},"data":[0.0,0.0,0.0,0.0,0.0,0.0,0.0,0.0,0.0,0.0,0.0,0.0,0.0,0.0,0.0,0.0,0.0,0.0,0.0,0.0,0.0,0.0,0.0,0.0,0.0,0.0,0.0,0.0,0.0,0.0,0.0,0.0,0.0,0.0,0.0,0.0,0.0,0.0,0.0,0.0,0.0,0.0,0.0,0.0,0.0,0.0,0.0,0.0,0.0,0.0,0.0,0.0,0.0,0.0,0.0,0.0,0.0,0.0,0.0,0.0,0.0,0.0,0.0,0.0,0.0,0.0,0.0,0.0,0.0,0.0,0.0,0.0,0.0,0.0,0.0,0.0,0.0,0.0,0.0,0.0,0.0,0.0,0.0,0.0,0.0,0.0,0.0,0.0,0.0,0.0,0.0,0.0,0.0,0.0,0.0,0.0,0.0,0.0,0.0,0.0,0.0,0.0,0.0,0.0,0.0,0.0,0.0,0.0,0.0,0.0,0.0,0.0,0.0,0.0,0.0,0.0,0.0,0.0,0.0,0.0,0.0,0.0,0.0,0.0,0.0,0.0,0.0,0.0,0.0,0.0,0.0,0.0,0.0,0.0,0.0,0.0,0.0,0.0,0.0,0.0,0.0,0.0,0.0,0.0,0.0,0.0,0.0,0.0,0.0,0.0,0.0,0.0,0.0,0.0,0.0,0.0,0.0,0.0,0.0,0.0,0.0,0.0,0.0,0.0,0.0,0.0,0.0,0.0,0.0,0.0,0.0,0.0,0.0,0.0,0.0,0.0,0.0,0.0,0.0,0.0,0.0,0.0,0.0,0.0,0.0,0.0,0.0,0.0,0.0,0.0,0.0,0.0,0.0,0.0,0.0,0.0,0.0,0.0,0.0,0.0,0.0,0.0,0.0,0.0,0.0,0.0,0.0,0.0,0.0,0.0,0.0,0.0,0.0,0.0,0.0,0.0,0.0,0.0,0.0,0.0,0.0,0.0,0.0,0.0,0.0,0.0,0.0,0.0,0.0,0.0,0.0,0.0,0.0,0.0,0.0,0.0,0.0,0.0,0.0,0.0,0.0,0.0,0.0,0.0,0.0,0.0,0.0,0.0,0.0,0.0,0.0,0.0,0.0,0.0,0.0,0.0,0.0,0.0,0.0,0.0,0.0,0.0,0.0,0.0,0.0,0.0,0.0,0.0,0.0,0.0,0.0,0.0,0.0,0.0,0.0,0.0,0.0,0.0,0.0,0.0,0.0,0.0,0.0,0.0,0.0,0.0,0.0,0.0,0.0,0.0,0.0,0.0,0.0,0.0,0.0,0.0,0.0,0.0,0.0,0.0,0.0,0.0,0.0,0.0,0.0,0.0,0.0,0.0,0.0,0.0,0.0,0.0,0.0,0.0,0.0,0.0,0.0,0.0,0.0,0.0,0.0,0.0,0.0,0.0,0.0,0.0,0.0,0.0,0.0,0.0,0.0,0.0,0.0,0.0,0.0,0.0,0.0,0.0,0.0,0.0,0.0,0.0,0.0,0.0,0.0,0.0,0.0,0.0,0.0,0.0,0.0,0.0,0.0,0.0,0.0,0.0,0.0,0.0,0.0,0.0,0.0,0.0,0.0,0.0,0.0,0.0,0.0,0.0,0.0,0.0,0.0,0.0,0.0,0.0,0.0,0.0,0.0,0.0,0.0,0.0,0.0,0.0,0.0,0.0,0.0,0.0,0.0,0.0,0.0,0.0,0.0,0.0,0.0,0.0,0.0,0.0,0.0,0.0,0.0,0.0,0.0,0.0,0.0,0.0,0.0,0.0,0.0,0.0,0.0,0.0,0.0,0.0,0.0,0.0,0.0,0.0,0.0,0.0,0.0,0.0,0.0,0.0,0.0,0.0,0.0,0.0,0.0,0.0,0.0,0.0,0.0,0.0,0.0,0.0,0.0,0.0,0.0,0.0,0.0,0.0,0.0,0.0,0.0,0.0,0.0,0.0,0.0,0.0,0.0,0.0,0.0,0.0,0.0,0.0,0.0,0.0,0.0,0.0,0.0,0.0,0.0,0.0,0.0,0.0,0.0,0.0,0.0,0.0,0.0,0.0,0.0,0.0,0.0,0.0,0.0,0.0,0.0,0.0,0.0,0.0,0.0,0.0,0.0,0.0,0.0,0.0,0.0,0.0,0.0,0.0,0.0,0.0,0.0,0.0,0.0,0.0,0.0,0.0,0.0,0.0,0.0,0.0,0.0,0.0,0.0,0.0,0.0,0.0,0.0,0.0,0.0,0.0,0.0,0.0,0.0,0.0,0.0,0.0,0.0,0.0,0.0,0.0,0.0,0.0,0.0,0.0,0.0,0.0,0.0,0.0,0.0,0.0,0.0,0.0,0.0,0.0,0.0,0.0,0.0,0.0,0.0,0.0,0.0,0.0,0.0,0.0,0.0,0.0,0.0,0.0,0.0,0.0,0.0,0.0,0.0,0.0,0.0,0.0,0.0,0.0,0.0,0.0,0.0,0.0,0.0,0.0,0.0,0.0,0.0,0.0,0.0,0.0,0.0,0.0,0.0,0.0,0.0,0.0,0.0,0.0,0.0,0.0,0.0,0.0,0.0,0.0,0.0,0.0,0.0,0.0,0.0,0.0,0.0,0.0,0.0,0.0,0.0,0.0,0.0,0.0,0.0,0.0,0.0,0.0,0.0,0.0,0.0,0.0,0.0,0.0,0.0,0.0,0.0,0.0,0.0,0.0,0.0,0.0,0.0,0.0,0.0,0.0,0.0,0.0,0.0,0.0,0.0,0.0,0.0,0.0,0.0,0.0,0.0,0.0,0.0,0.0,0.0,0.0,0.0,0.0,0.0,0.0,0.0,0.0,0.0,0.0,0.0,0.0,0.0,0.0,0.0,0.0,0.0,0.0,0.0,0.0,0.0,0.0,0.0,0.0,0.0,0.0,0.0,0.0,0.0,0.0,0.0,0.0,0.0,0.0,0.0,0.0,0.0,0.0,0.0,0.0,0.0,0.0,0.0,0.0,0.0,0.0,0.0,0.0,0.0,0.0,0.0,0.0,0.0,0.0,0.0,0.0,0.0,0.0,0.0,0.0,0.0,0.0,0.0,0.0,0.0,0.0,0.0,0.0,0.0,0.0,0.0,0.0,0.0,0.0,0.0,0.0,0.0,0.0,0.0,0.0,0.0,0.0,0.0,0.0,0.0,0.0,0.0,0.0,0.0,0.0,0.0,0.0,0.0,0.0,0.0,0.0,0.0,0.0,0.0,0.0,0.0,0.0,0.0,0.0,0.0,0.0,0.0,0.0,0.0,0.0,0.0,0.0,0.0,0.0,0.0,0.0,0.0,0.0,0.0,0.0,0.0,0.0,0.0,0.0,0.0,0.0,0.0,0.0,0.0,0.0,0.0,0.0,0.0,0.0,0.0,0.0,0.0,0.0,0.0,0.0,0.0,0.0,0.0,0.0,0.0,0.0,0.0,0.0,0.0,0.0,0.0,0.0,0.0,0.0,0.0,0.0,0.0,0.0,0.0,0.0,0.0,0.0,0.0,0.0,0.0,0.0,0.0,0.0,0.0,0.0,0.0,0.0,0.0,0.0,0.0,0.0,0.0,0.0,0.0,0.0,0.0,0.0,0.0,0.0,0.0,0.0,0.0,0.0,0.0,0.0,0.0,0.0,0.0,0.0,0.0,0.0,0.0,0.0,0.0,0.0,0.0,0.0,0.0,0.0,0.0,0.0,0.0,0.0,0.0,0.0,0.0,0.0,0.0,0.0,0.0,0.0,0.0,0.0,0.0,0.0,0.0,0.0,0.0,0.0,0.0,0.0,0.0,0.0,0.0,0.0,0.0,0.0,0.0,0.0,0.0,0.0,0.0,0.0,0.0,0.0,0.0,0.0,0.0,0.0,0.0,0.0,0.0,0.0,0.0,0.0,0.0,0.0,0.0,0.0,0.0,0.0,0.0,0.0,0.0,0.0,0.0,0.0,0.0,0.0,0.0,0.0,0.0,0.0,0.0,0.0,0.0,0.0,0.0,0.0,0.0,0.0,0.0,0.0,0.0,0.0,0.0,0.0,0.0,0.0,0.0,0.0,0.0,0.0,0.0,0.0,0.0,0.0,0.0,0.0,0.0,0.0,0.0,0.0,0.0,0.0,0.0,0.0,0.0,0.0,0.0,0.0,0.0,0.0,0.0,0.0,0.0,0.0,0.0,0.0,0.0,0.0,0.0,0.0,0.0,0.0,0.0,0.0,0.0,0.0,0.0,0.0,0.0,0.0,0.0,0.0,0.9222,0.0,0.0,0.0,0.0,0.0,0.0,0.0,0.0,0.0,0.0,0.0,0.0,0.0,0.0,0.0,0.0,0.0,0.0,0.0,0.0,0.0,0.0,0.0,0.0,0.0,0.0,0.0,0.0,0.0,0.0,0.0,0.0,0.0,0.0,0.0,0.0,0.0,0.0,0.0,0.0,0.0,0.0,0.0,0.0,0.0,0.0,0.0,0.0,0.0,0.0,0.0,0.0,0.0,0.0,0.0,0.0,0.0,0.0,0.0,0.0,0.0,0.0,0.0,0.0,0.0,0.0,0.0,0.0,0.0,0.0,0.0,0.0,0.0,0.0,0.0,0.0,0.0,0.0,0.0,0.0,0.0,0.0,0.0,0.0,0.0,0.0,0.0,0.0,0.0,0.0,0.0,0.0,0.0,0.0,0.0,0.0,0.0,0.0,0.0,0.0,0.0,0.0,0.0,0.0,0.0,0.0,0.0,0.0,0.0,0.0,1.685,1.506,1.3572,1.1704,0.9419,0.0,0.0,0.0,0.0,0.0,0.0,0.0,0.0,0.0,0.0,0.0,0.0,0.0,0.0,0.0,0.0,0.0,0.0,0.0,0.0,0.0,0.0,0.0,0.0,0.0,0.0,0.0,0.0,0.0,0.0,0.0,0.0,0.0,0.0,0.0,0.0,0.0,0.0,0.0,0.0,0.0,0.0,0.0,0.0,0.0,0.0,0.0,0.0,0.0,0.0,0.0,0.0,0.0,0.0,0.0,0.0,0.0,0.0,0.0,0.0,0.0,0.0,0.0,0.0,0.0,0.0,0.0,0.0,0.0,0.0,0.0,0.0,0.0,0.0,0.0,0.0,0.0,0.0,0.0,0.0,0.0,0.0,0.0,0.0,0.0,0.0,0.0,0.0,0.0,0.0,0.0,0.0,0.0,0.0,0.0,0.0,0.0,0.0,0.0,0.0,0.0,0.0,0.0,0.0,0.0,0.0,0.0,0.0,0.0,0.0,0.0,0.0,1.4085,1.2089,0.9616,0.0,0.0,0.0,0.0,0.0,0.0,0.0,0.0,0.0,0.0,0.0,0.0,0.0,0.0,0.0,0.0,0.0,0.0,0.0,0.0,0.0,0.0,0.0,0.0,0.0,0.0,0.0,0.0,0.0,0.0,0.0,0.0,0.0,0.0,0.0,0.0,0.0,0.0,0.0,0.0,0.0,0.0,0.0,0.0,0.0,0.0,0.0,0.0,0.0,0.0,0.0,0.0,0.0,0.0,0.0,0.0,0.0,0.0,0.0,0.0,0.0,0.0,0.0,0.0,0.0,0.0,0.0,0.0,0.0,0.0,0.0,0.0,0.0,0.0,0.0,0.0,0.0,0.0,0.0,0.0,0.0,0.0,0.0,0.0,0.0,0.0,0.0,0.0,0.0,0.0,0.0,0.0,0.0,0.0,0.0,0.0,0.0,0.0,0.0,0.0,0.0,0.0,0.0,0.0,0.0,0.0,0.0,0.0,0.0,0.0,1.7561,1.6834,1.4692,0.0,0.996,0.0,0.0,0.0,0.0,0.0,0.0,0.0,0.0,0.0,0.0,0.0,0.0,0.0,0.0,0.0,0.0,0.0,0.0,0.0,0.0,0.0,0.0,0.0,0.0,0.0,0.0,0.0,0.0,0.0,0.0,0.0,0.0,0.0,0.0,0.0,0.0,0.0,0.0,0.0,0.0,0.0,0.0,0.0,0.0,0.0,0.0,0.0,0.0,0.0,0.0,0.0,0.0,0.0,0.0,0.0,0.0,0.0,0.0,0.0,0.0,0.0,0.0,0.0,0.0,0.0,0.0,0.0,0.0,0.0,0.0,0.0,0.0,0.0,0.0,0.0,0.0,0.0,0.0,0.0,0.0,0.0,0.0,0.0,0.0,0.0,0.0,0.0,0.0,0.0,0.0,0.0,0.0,0.0,0.0,0.0,0.0,0.0,0.0,0.0,0.0,0.0,0.0,0.0,0.0,0.0,0.0,0.0,0.0,0.0,0.0,1.8631,1.7797,1.453,1.215,0.0,0.0,0.0,0.0,0.0,0.0,0.0,0.0,0.0,0.0,0.0,0.0,0.0,0.0,0.0,0.0,0.0,0.0,0.0,0.0,0.0,0.0,0.0,0.0,0.0,0.0,0.0,0.0,0.0,0.0,0.0,0.0,0.0,0.0,0.0,0.0,0.0,0.0,0.0,0.0,0.0,0.0,0.0,0.0,0.0,0.0,0.0,0.0,0.0,0.0,0.0,0.0,0.0,0.0,0.0,0.0,0.0,0.0,0.0,0.0,0.0,0.0,0.0,0.0,0.0,0.0,0.0,0.0,0.0,0.0,0.0,0.0,0.0,0.0,0.0,0.0,0.0,0.0,0.0,0.0,0.0,0.0,0.0,0.0,0.0,0.0,0.0,0.0,0.0,0.0,0.0,0.0,0.0,0.0,0.0,0.0,0.0,0.0,0.0,0.0,0.0,0.0,0.0,0.0,0.0,0.0,0.0,0.0,0.0,0.0,1.9415,0.0,1.7189,1.4034,1.2037,1.1495,0.0,0.0,0.0,0.0,0.0,0.0,0.0,0.0,0.0,0.0,0.0,0.0,0.0,0.0,0.0,0.0,0.0,0.0,0.0,0.0,0.0,0.0,0.0,0.0,0.0,0.0,0.0,0.0,0.0,0.0,0.0,0.0,0.0,0.0,0.0,0.0,0.0,0.0,0.0,0.0,0.0,0.0,0.0,0.0,0.0,0.0,0.0,0.0,0.0,0.0,0.0,0.0,0.0,0.0,0.0,0.0,0.0,0.0,0.0,0.0,0.0,0.0,0.0,0.0,0.0,0.0,0.0,0.0,0.0,0.0,0.0,0.0,0.0,0.0,0.0,0.0,0.0,0.0,0.0,0.0,0.0,0.0,0.0,0.0,0.0,0.0,0.0,0.0,0.0,0.0,0.0,0.0,0.0,0.0,0.0,0.0,0.0,0.0,0.0,0.0,0.0,0.0,0.0,0.0,0.0,0.0,0.0,0.0,0.0,1.8058,1.6663,1.4792,1.3323,1.2211,0.0,0.0,0.0,0.0,0.0,0.0,0.0,0.0,0.0,0.0,0.0,0.0,0.0,0.0,0.0,0.0,0.0,0.0,0.0,0.0,0.0,0.0,0.0,0.0,0.0,0.0,0.0,0.0,0.0,0.0,0.0,0.0,0.0,0.0,0.0,0.0,0.0,0.0,0.0,0.0,0.0,0.0,0.0,0.0,0.0,0.0,0.0,0.0,0.0,0.0,0.0,0.0,0.0,0.0,0.0,0.0,0.0,0.0,0.0,0.0,0.0,0.0,0.0,0.0,0.0,0.0,0.0,0.0,0.0,0.0,0.0,0.0,0.0,0.0,0.0,0.0,0.0,0.0,0.0,0.0,0.0,0.0,0.0,0.0,0.0,0.0,0.0,0.0,0.0,0.0,0.0,0.0,0.0,0.0,0.0,0.0,0.0,0.0,0.0,0.0,0.0,0.0,0.0,0.0,0.0,0.0,0.0,0.0,0.0,1.8025,1.6865,1.5606,1.4331,1.2744,1.1752,0.0,0.0,0.0,0.0,0.0,0.0,0.0,0.0,0.0,0.0,0.0,0.0,0.0,0.0,0.0,0.0,0.0,0.0,0.0,0.0,0.0,0.0,0.0,0.0,0.0,0.0,0.0,0.0,0.0,0.0,0.0,0.0,0.0,0.0,0.0,0.0,0.0,0.0,0.0,0.0,0.0,0.0,0.0,0.0,0.0,0.0,0.0,0.0,0.0,0.0,0.0,0.0,0.0,0.0,0.0,0.0,0.0,0.0,0.0,0.0,0.0,0.0,0.0,0.0,0.0,0.0,0.0,0.0,0.0,0.0,0.0,0.0,0.0,0.0,0.0,0.0,0.0,0.0,0.0,0.0,0.0,0.0,0.0,0.0,0.0,0.0,0.0,0.0,0.0,0.0,0.0,0.0,0.0,0.0,0.0,0.0,0.0,0.0,0.0,0.0,0.0,0.0,0.0,0.0,0.0,0.0,0.0,0.0,0.0,1.6999,0.0,1.498,0.0,1.252,1.1639,0.0,0.0,0.0,0.0,0.0,0.0,0.0,0.0,0.0,0.0,0.0,0.0,0.0,0.0,0.0,0.0,0.0,0.0,0.0,0.0,0.0,0.0,0.0,0.0,0.0,0.0,0.0,0.0,0.0,0.0,0.0,0.0,0.0,0.0,0.0,0.0,0.0,0.0,0.0,0.0,0.0,0.0,0.0,0.0,0.0,0.0,0.0,0.0,0.0,0.0,0.0,0.0,0.0,0.0,0.0,0.0,0.0,0.0,0.0,0.0,0.0,0.0,0.0,0.0,0.0,0.0,0.0,0.0,0.0,0.0,0.0,0.0,0.0,0.0,0.0,0.0,0.0,0.0,0.0,0.0,0.0,0.0,0.0,0.0,0.0,0.0,0.0,0.0,0.0,0.0,0.0,0.0,0.0,0.0,0.0,0.0,0.0,0.0,0.0,0.0,0.0,0.0,0.0,0.0,0.0,0.0,0.0,0.0,1.7023,1.5782,1.5483,1.469,1.3445,1.2555,1.2003,0.0,0.0,0.0,0.0,0.0,0.0,0.0,0.0,0.0,0.0,0.0,0.0,0.0,0.0,0.0,0.0,0.0,0.0,0.0,0.0,0.0,0.0,0.0,0.0,0.0,0.0,0.0,0.0,0.0,0.0,0.0,0.0,0.0,0.0,0.0,0.0,0.0,0.0,0.0,0.0,0.0,0.0,0.0,0.0,0.0,0.0,0.0,0.0,0.0,0.0,0.0,0.0,0.0,0.0,0.0,0.0,0.0,0.0,0.0,0.0,0.0,0.0,0.0,0.0,0.0,0.0,0.0,0.0,0.0,0.0,0.0,0.0,0.0,0.0,0.0,0.0,0.0,0.0,0.0,0.0,0.0,0.0,0.0,0.0,0.0,0.0,0.0,0.0,0.0,0.0,0.0,0.0,0.0,0.0,0.0,0.0,0.0,0.0,0.0,0.0,0.0,0.0,0.0,0.0,0.0,0.0,0.0,0.0,0.0,1.6117,1.4658,1.3562,1.2845,1.1603,1.0966,0.0,0.0,0.0,0.0,0.0,0.0,0.0,0.0,0.0,0.0,0.0,0.0,0.0,0.0,0.0,0.0,0.0,0.0,0.0,0.0,0.0,0.0,0.0,0.0,0.0,0.0,0.0,0.0,0.0,0.0,0.0,0.0,0.0,0.0,0.0,0.0,0.0,0.0,0.0,0.0,0.0,0.0,0.0,0.0,0.0,0.0,0.0,0.0,0.0,0.0,0.0,0.0,0.0,0.0,0.0,0.0,0.0,0.0,0.0,0.0,0.0,0.0,0.0,0.0,0.0,0.0,0.0,0.0,0.0,0.0,0.0,0.0,0.0,0.0,0.0,0.0,0.0,0.0,0.0,0.0,0.0,0.0,0.0,0.0,0.0,0.0,0.0,0.0,0.0,0.0,0.0,0.0,0.0,0.0,0.0,0.0,0.0,0.0,0.0,0.0,0.0,0.0,0.0,0.0,0.0,0.0,0.0,0.0,0.0,1.7927,1.5675,1.4122,1.3405,1.1981,1.1209,1.1173,0.0,0.0,0.0,0.0,0.0,0.0,0.0,0.0,0.0,0.0,0.0,0.0,0.0,0.0,0.0,0.0,0.0,0.0,0.0,0.0,0.0,0.0,0.0,0.0,0.0,0.0,0.0,0.0,0.0,0.0,0.0,0.0,0.0,0.0,0.0,0.0,0.0,0.0,0.0,0.0,0.0,0.0,0.0,0.0,0.0,0.0,0.0,0.0,0.0,0.0,0.0,0.0,0.0,0.0,0.0,0.0,0.0,0.0,0.0,0.0,0.0,0.0,0.0,0.0,0.0,0.0,0.0,0.0,0.0,0.0,0.0,0.0,0.0,0.0,0.0,0.0,0.0,0.0,0.0,0.0,0.0,0.0,0.0,0.0,0.0,0.0,0.0,0.0,0.0,0.0,0.0,0.0,0.0,0.0,0.0,0.0,0.0,0.0,0.0,0.0,0.0,0.0,0.0,0.0,0.0,0.0,0.0,0.0,2.0821,1.8193,1.6158,1.4849,1.3371,1.2455,0.0,0.0,0.0,0.0,0.0,0.0,0.0,0.0,0.0,0.0,0.0,0.0,0.0,0.0,0.0,0.0,0.0,0.0,0.0,0.0,0.0,0.0,0.0,0.0,0.0,0.0,0.0,0.0,0.0,0.0,0.0,0.0,0.0,0.0,0.0,0.0,0.0,0.0,0.0,0.0,0.0,0.0,0.0,0.0,0.0,0.0,0.0,0.0,0.0,0.0,0.0,0.0,0.0,0.0,0.0,0.0,0.0,0.0,0.0,0.0,0.0,0.0,0.0,0.0,0.0,0.0,0.0,0.0,0.0,0.0,0.0,0.0,0.0,0.0,0.0,0.0,0.0,0.0,0.0,0.0,0.0,0.0,0.0,0.0,0.0,0.0,0.0,0.0,0.0,0.0,0.0,0.0,0.0,0.0,0.0,0.0,0.0,0.0,0.0,0.0,0.0,0.0,0.0,0.0,0.0,0.0,0.0,0.0,0.0,2.1028,1.9854,1.8334,1.6499,1.3955,1.2532,0.0,0.0,0.0,0.0,0.0,0.0,0.0,0.0,0.0,0.0,0.0,0.0,0.0,0.0,0.0,0.0,0.0,0.0,0.0,0.0,0.0,0.0,0.0,0.0,0.0,0.0,0.0,0.0,0.0,0.0,0.0,0.0,0.0,0.0,0.0,0.0,0.0,0.0,0.0,0.0,0.0,0.0,0.0,0.0,0.0,0.0,0.0,0.0,0.0,0.0,0.0,0.0,0.0,0.0,0.0,0.0,0.0,0.0,0.0,0.0,0.0,0.0,0.0,0.0,0.0,0.0,0.0,0.0,0.0,0.0,0.0,0.0,0.0,0.0,0.0,0.0,0.0,0.0,0.0,0.0,0.0,0.0,0.0,0.0,0.0,0.0,0.0,0.0,0.0,0.0,0.0,0.0,0.0,0.0,0.0,0.0,0.0,0.0,0.0,0.0,0.0,0.0,0.0,0.0,0.0,0.0,0.0,0.0,2.1519,2.1905,2.0913,1.9783,1.8502,1.5157,1.3394,0.0,0.0,0.0,0.0,0.0,0.0,0.0,0.0,0.0,0.0,0.0,0.0,0.0,0.0,0.0,0.0,0.0,0.0,0.0,0.0,0.0,0.0,0.0,0.0,0.0,0.0,0.0,0.0,0.0,0.0,0.0,0.0,0.0,0.0,0.0,0.0,0.0,0.0,0.0,0.0,0.0,0.0,0.0,0.0,0.0,0.0,0.0,0.0,0.0,0.0,0.0,0.0,0.0,0.0,0.0,0.0,0.0,0.0,0.0,0.0,0.0,0.0,0.0,0.0,0.0,0.0,0.0,0.0,0.0,0.0,0.0,0.0,0.0,0.0,0.0,0.0,0.0,0.0,0.0,0.0,0.0,0.0,0.0,0.0,0.0,0.0,0.0,0.0,0.0,0.0,0.0,0.0,0.0,0.0,0.0,0.0,0.0,0.0,0.0,0.0,0.0,0.0,0.0,0.0,0.0,0.0,0.0,0.0,2.2193,2.2942,2.1711,2.0893,2.0462,1.6691,1.4707,0.0,0.0,0.0,0.0,0.0,0.0,0.0,0.0,0.0,0.0,0.0,0.0,0.0,0.0,0.0,0.0,0.0,0.0,0.0,0.0,0.0,0.0,0.0,0.0,0.0,0.0,0.0,0.0,0.0,0.0,0.0,0.0,0.0,0.0,0.0,0.0,0.0,0.0,0.0,0.0,0.0,0.0,0.0,0.0,0.0,0.0,0.0,0.0,0.0,0.0,0.0,0.0,0.0,0.0,0.0,0.0,0.0,0.0,0.0,0.0,0.0,0.0,0.0,0.0,0.0,0.0,0.0,0.0,0.0,0.0,0.0,0.0,0.0,0.0,0.0,0.0,0.0,0.0,0.0,0.0,0.0,0.0,0.0,0.0,0.0,0.0,0.0,0.0,0.0,0.0,0.0,0.0,0.0,0.0,0.0,0.0,0.0,0.0,0.0,0.0,0.0,0.0,0.0,0.0,0.0,0.0,0.0,0.0,2.3143,2.358,2.2898,2.2219,2.1579,1.7833,1.6065,0.0,0.0,0.0,0.0,0.0,0.0,0.0,0.0,0.0,0.0,0.0,0.0,0.0,0.0,0.0,0.0,0.0,0.0,0.0,0.0,0.0,0.0,0.0,0.0,0.0,0.0,0.0,0.0,0.0,0.0,0.0,0.0,0.0,0.0,0.0,0.0,0.0,0.0,0.0,0.0,0.0,0.0,0.0,0.0,0.0,0.0,0.0,0.0,0.93,0.0,0.0,0.0,0.0,0.0,0.0,0.0,0.0,0.0,0.0,0.0,0.0,0.0,0.0,0.0,0.0,0.0,0.0,0.0,0.0,0.0,0.0,0.0,0.0,0.0,0.0,0.0,0.0,0.0,0.0,0.0,0.0,0.0,0.0,0.0,0.0,0.0,0.0,0.0,0.0,0.0,0.0,0.0,0.0,0.0,0.0,0.0,0.0,0.0,0.0,0.0,0.0,0.0,0.0,0.0,0.0,0.0,0.0,0.0,2.3974,2.4457,2.3892,2.3458,2.3083,2.057,1.8758,0.0,0.0,0.0,0.0,0.0,0.0,0.0,0.0,0.0,0.0,0.0,0.0,0.0,0.0,0.0,0.0,0.0,0.0,0.0,0.0,0.0,0.0,0.0,0.0,0.0,0.0,0.0,0.0,0.0,0.0,0.0,0.0,0.0,0.0,0.0,0.0,0.0,0.0,0.0,0.0,0.0,0.0,0.0,0.0,0.0,0.0,0.0,0.0,0.0,0.0,0.0,0.0,0.0,0.0,0.0,0.0,0.0,0.0,0.0,0.0,0.0,0.0,0.0,0.0,0.0,0.0,0.0,0.0,0.0,0.0,0.0,0.0,0.0,0.0,0.0,0.0,0.0,0.0,0.0,0.0,0.0,0.0,0.0,0.0,0.0,0.0,0.0,0.0,0.0,0.0,0.0,0.0,0.0,0.0,0.0,0.0,0.0,0.0,0.0,0.0,0.0,0.0,0.0,0.0,0.0,0.0,0.0,2.3701,2.4804,2.544,2.4831,2.4535,2.4647,2.3342,2.1521,1.9207,0.0,0.0,0.0,0.0,0.0,0.0,0.0,0.0,0.0,0.0,0.0,0.0,0.0,0.0,0.0,0.0,0.0,0.0,0.0,0.0,0.0,0.0,0.0,0.0,0.0,0.0,0.0,0.0,0.0,0.0,0.0,0.0,0.0,0.0,0.0,0.0,0.0,0.0,0.9054,0.9413,0.0,0.0,0.0,0.0,0.0,0.0,0.0,0.0,0.9645,0.0,0.0,0.0,0.0,0.0,0.0,0.0,0.0,0.0,0.0,0.0,0.0,0.0,0.0,0.0,0.0,0.0,0.0,0.0,0.0,0.0,0.0,0.0,0.0,0.0,0.0,0.0,0.0,0.0,0.0,0.0,0.0,0.0,0.0,0.0,0.0,0.0,0.0,0.0,0.0,0.0,0.0,0.0,0.0,0.0,0.0,0.0,0.0,0.0,0.0,0.0,0.0,0.0,0.0,0.0,0.0,2.3082,2.4815,2.5923,2.6358,2.5931,2.5484,2.501,2.3864,2.2499,2.0961,0.0,0.0,0.0,0.0,0.0,0.0,0.0,0.0,0.0,0.0,0.0,0.0,0.0,0.0,0.0,0.0,0.0,0.0,0.0,0.0,0.0,0.0,0.0,0.0,0.0,0.0,0.0,0.0,0.0,0.0,0.0,0.0,0.0,0.0,0.0,0.0,0.0,0.0,0.0,0.9964,1.0129,0.0,0.0,0.0,0.0,0.0,0.0,0.0,0.0,1.0657,0.0,0.0,0.0,0.0,0.0,0.0,0.0,0.0,0.0,0.0,0.0,0.0,0.0,0.0,0.0,0.0,0.0,0.0,0.0,0.0,0.0,0.0,0.0,0.0,0.0,0.0,0.0,0.0,0.0,0.0,0.0,0.0,0.0,0.0,0.0,0.0,0.0,0.0,0.0,0.0,0.0,0.0,0.0,0.0,0.0,0.0,0.0,0.0,0.0,0.0,0.0,0.0,0.0,0.0,0.0,2.375,2.5504,2.666,2.7126,2.6843,2.6387,2.5785,2.4501,2.3114,0.0,0.0,0.0,0.0,0.0,0.0,0.0,0.0,0.0,0.0,0.0,0.0,0.0,0.0,0.0,0.0,0.0,0.0,0.0,0.0,0.0,0.0,0.0,0.0,0.0,0.0,0.0,0.0,0.0,0.0,0.0,0.0,0.0,0.0,0.0,0.0,0.0,0.0,0.0,0.0,1.0254,1.041,1.0186,0.0,0.0,0.0,0.0,0.0,0.0,1.1781,1.1523,0.0,0.0,0.0,0.0,0.0,0.0,0.0,0.0,0.0,0.0,0.0,0.0,0.0,0.0,0.0,0.0,0.0,0.0,0.0,0.0,0.0,0.0,0.0,0.0,0.0,0.0,0.0,0.0,0.0,0.0,0.0,0.0,0.0,0.0,0.0,0.0,0.0,0.0,0.0,0.0,0.0,0.0,0.0,0.0,0.0,0.0,0.0,0.0,0.0,0.0,0.0,0.0,0.0,0.0,0.0,2.4257,2.6006,2.7181,2.777,2.7529,2.7075,2.6419,2.509,2.3634,0.0,0.0,0.0,0.0,0.0,0.0,0.0,0.0,0.0,0.0,0.0,0.0,0.0,0.0,0.0,0.0,0.0,0.0,0.0,0.0,0.0,0.0,0.0,0.0,0.0,0.0,0.0,0.0,0.0,0.0,0.0,0.0,0.0,0.0,0.0,0.0,0.0,0.0,0.0,0.0,0.0,1.0989,1.0737,1.0618,0.0,0.0,0.0,0.0,1.283,1.3039,0.0,0.0,0.0,0.0,0.0,0.0,0.0,0.0,0.0,0.0,0.0,0.0,0.0,0.0,0.0,0.0,0.0,0.0,0.0,0.0,0.0,0.0,0.0,0.0,0.0,0.0,0.0,0.0,0.0,0.0,0.0,0.0,0.0,0.0,0.0,0.0,0.0,0.0,0.0,0.0,0.0,0.0,0.0,0.0,0.0,0.0,0.0,0.0,0.0,0.0,0.0,0.0,0.0,0.0,0.0,0.0,2.4532,2.6339,2.7516,2.8085,2.7823,2.7275,2.64,2.5483,2.4156,0.0,0.0,0.0,0.0,0.0,0.0,0.0,0.0,0.0,0.0,0.0,0.0,0.0,0.0,0.0,0.0,0.0,0.0,0.0,0.0,0.0,0.0,0.0,0.0,0.0,0.0,0.0,0.0,0.0,0.0,0.0,0.0,0.0,0.0,0.0,0.0,0.0,0.0,0.0,0.0,0.0,1.2238,1.2088,1.2049,1.2245,0.0,0.0,1.44,1.4281,1.5006,0.0,0.0,0.0,0.0,0.0,0.0,0.0,0.0,0.0,0.0,0.0,0.0,0.0,0.0,0.0,0.0,0.0,0.0,0.0,0.0,0.0,0.0,0.0,0.0,0.0,0.0,0.0,0.0,0.0,0.0,0.0,0.0,0.0,0.0,0.0,0.0,0.0,0.0,0.0,0.0,0.0,0.0,0.0,0.0,0.0,0.0,0.0,0.0,0.0,0.0,0.0,0.0,0.0,0.0,0.0,2.2859,2.4586,2.6373,2.759,2.8138,2.7898,2.7281,2.6433,2.5371,2.4154,0.0,0.0,0.0,0.0,0.0,0.0,0.0,0.0,0.0,0.0,0.0,0.0,0.0,0.0,0.0,0.0,0.0,0.0,0.0,0.0,0.0,0.0,0.0,0.0,0.0,0.0,0.0,0.0,0.0,0.0,0.0,0.0,0.0,0.0,0.0,0.0,0.0,0.0,0.0,0.0,0.0,0.0,1.3185,1.3339,0.0,0.0,0.0,1.5873,1.6126,0.0,0.0,0.0,0.0,0.0,0.0,0.0,0.0,0.0,0.0,0.0,0.0,0.0,0.0,0.0,0.0,0.0,0.0,0.0,0.0,0.0,0.0,0.0,0.0,0.0,0.0,0.0,0.0,0.0,0.0,0.0,0.0,0.0,0.0,0.0,0.0,0.0,0.0,0.0,0.0,0.0,0.0,0.0,0.0,0.0,0.0,0.0,0.0,0.0,0.0,0.0,0.0,0.0,0.0,0.0,0.0,0.0,2.4586,2.652,2.7737,2.8165,2.8024,2.7495,2.6647,2.5592,0.0,0.0,0.0,0.0,0.0,0.0,0.0,0.0,0.0,0.0,0.0,0.0,0.0,0.0,0.0,0.0,0.0,0.0,0.0,0.0,0.0,0.0,0.0,0.0,0.0,0.0,0.0,1.2549,0.0,0.0,0.0,0.0,0.0,0.0,0.0,0.0,0.0,0.0,0.0,0.0,0.0,0.0,1.4824,1.4602,1.4926,1.5345,0.0,0.0,1.7339,1.7859,1.8903,1.9069,0.0,0.0,0.0,0.0,0.0,0.0,0.0,0.0,0.0,0.0,0.0,0.0,0.0,0.0,0.0,0.0,0.0,0.0,0.0,0.0,0.0,0.0,0.0,0.0,0.0,0.0,0.0,0.0,0.0,0.0,0.0,0.0,0.0,0.0,0.0,0.0,0.0,0.0,0.0,0.0,0.0,0.0,0.0,0.0,0.0,0.0,0.0,0.0,0.0,0.0,0.0,0.0,0.0,0.0,0.0,2.4613,2.6941,2.8138,2.8192,2.8425,2.8123,2.7269,2.66,2.5464,0.0,0.0,0.0,0.0,0.0,0.0,0.0,0.0,0.0,0.0,0.0,0.0,0.0,0.0,0.0,0.0,0.0,0.0,0.0,0.0,0.0,0.0,0.0,0.0,0.0,0.0,0.0,0.0,0.0,0.0,0.0,0.0,0.0,0.0,0.0,0.0,0.0,0.0,0.0,0.0,0.0,1.6788,1.6698,1.7045,1.7469,0.0,1.8368,1.8819,1.9284,2.0117,2.0102,1.8382,0.0,0.0,0.0,0.0,0.0,0.0,0.0,0.0,0.0,0.0,0.0,0.0,0.0,0.0,0.0,0.0,0.0,0.0,0.0,0.0,0.0,0.0,0.0,0.0,0.0,0.0,0.0,0.0,0.0,0.0,0.0,0.0,0.0,0.0,0.0,0.0,0.0,0.0,0.0,0.0,0.0,0.0,0.0,0.0,0.0,0.0,0.0,0.0,0.0,0.0,0.0,0.0,0.0,2.342,2.5443,2.7269,2.8345,2.8671,2.8644,2.8371,2.7857,2.7088,2.5919,0.0,0.0,0.0,0.0,0.0,0.0,0.0,0.0,0.0,0.0,0.0,0.0,0.0,0.0,0.0,0.0,0.0,0.0,0.0,0.0,0.0,0.0,0.0,0.0,0.0,0.0,0.0,0.0,1.4487,1.4212,1.3723,0.0,0.0,0.0,0.0,0.0,0.0,0.0,0.0,0.0,0.0,1.8993,1.9217,1.9669,0.0,0.0,2.0208,2.0329,2.0633,2.1131,2.0924,1.9332,1.7619,0.0,0.0,0.0,0.0,0.0,0.0,0.0,0.0,0.0,0.0,0.0,0.0,0.0,0.0,0.0,0.0,0.0,0.0,0.0,0.0,0.0,0.0,0.0,0.0,0.0,0.0,0.0,0.0,0.0,0.0,0.0,0.0,0.0,0.0,0.0,0.0,0.0,0.0,0.0,0.0,0.0,0.0,0.0,0.0,0.0,0.0,0.0,0.0,0.0,0.0,0.0,0.0,2.3634,2.5831,2.7556,2.8639,2.8988,2.8903,2.8684,2.8326,2.7609,2.6453,0.0,0.0,0.0,0.0,0.0,0.0,0.0,0.0,0.0,0.0,0.0,0.0,0.0,0.0,0.0,0.0,0.0,0.0,0.0,0.0,0.0,0.0,0.0,0.0,0.0,0.0,0.0,0.0,1.4971,1.4811,1.4784,0.0,0.0,0.0,0.0,0.0,0.0,0.0,0.0,0.0,0.0,2.056,2.0883,2.1488,2.1829,2.1757,2.166,2.1578,2.159,2.1834,2.1473,1.9871,0.0,0.0,0.0,0.0,0.0,0.0,0.0,0.0,0.0,0.0,0.0,0.0,0.0,0.0,0.0,0.0,0.0,0.0,0.0,0.0,0.0,0.0,0.0,0.0,0.0,0.0,0.0,1.9401,0.0,0.0,1.9377,0.0,0.0,0.0,0.0,0.0,0.0,0.0,0.0,0.0,0.0,0.0,0.0,0.0,0.0,0.0,0.0,0.0,0.0,0.0,0.0,0.0,0.0,2.3759,2.5512,2.7808,2.901,2.9015,2.9312,2.9179,2.8631,2.8305,2.7188,2.5109,0.0,0.0,0.0,0.0,0.0,0.0,0.0,0.0,0.0,0.0,0.0,0.0,0.0,0.0,0.0,0.0,0.0,0.0,0.0,0.0,0.0,0.0,0.0,0.0,0.0,0.0,1.5538,1.527,1.5305,0.0,0.0,0.0,0.0,0.0,0.0,0.0,0.0,0.0,0.0,2.0011,2.1253,2.1483,2.2175,2.2657,2.2619,2.2657,2.2509,2.2069,2.2152,2.1664,0.0,0.0,0.0,0.0,0.0,0.0,0.0,0.0,0.0,0.0,0.0,0.0,0.0,0.0,0.0,0.0,0.0,0.0,0.0,0.0,0.0,0.0,0.0,0.0,0.0,0.0,0.0,2.1876,2.1644,0.0,0.0,0.0,0.0,0.0,0.0,0.0,0.0,0.0,0.0,0.0,2.3741,2.3772,0.0,0.0,0.0,0.0,0.0,0.0,0.0,0.0,0.0,0.0,0.0,0.0,2.404,2.6313,2.8115,2.921,2.9584,2.9526,2.9414,2.9192,2.8553,2.6834,2.399,0.0,0.0,0.0,0.0,0.0,0.0,0.0,0.0,0.0,0.0,0.0,0.0,0.0,0.0,0.0,0.0,0.0,0.0,0.0,0.0,0.0,0.0,0.0,0.0,0.0,1.6563,0.0,0.0,0.0,0.0,0.0,0.0,0.0,0.0,0.0,0.0,0.0,1.8715,2.0031,2.1202,2.2136,2.2677,2.3431,2.395,0.0,0.0,0.0,0.0,0.0,0.0,0.0,0.0,0.0,0.0,0.0,0.0,0.0,0.0,1.9213,1.8236,1.8056,1.7946,1.7573,0.0,0.0,0.0,0.0,0.0,0.0,0.0,0.0,0.0,0.0,0.0,0.0,0.0,0.0,2.4944,2.4666,2.3799,0.0,0.0,0.0,0.0,0.0,0.0,0.0,0.0,2.4172,2.485,2.5678,2.5804,2.5951,0.0,2.6139,2.5024,0.0,0.0,0.0,0.0,0.0,0.0,0.0,0.0,2.4401,2.6754,2.8369,2.941,2.9864,2.9726,2.9601,2.9495,2.846,2.6747,2.4297,2.293,2.1325,0.0,0.0,0.0,0.0,0.0,0.0,0.0,0.0,0.0,0.0,0.0,0.0,0.0,0.0,0.0,0.0,0.0,0.0,0.0,0.0,0.0,0.0,0.0,1.7102,0.0,0.0,0.0,0.0,0.0,0.0,0.0,0.0,0.0,1.8931,1.9503,2.0284,2.1256,2.2066,2.2809,2.3451,0.0,0.0,0.0,0.0,0.0,0.0,0.0,2.1797,2.11,2.0653,2.0299,2.0079,2.045,2.1002,2.1653,0.0,0.0,2.1171,2.094,2.0838,2.0531,2.0792,2.1015,2.0777,2.1148,2.1481,0.0,0.0,0.0,0.0,0.0,0.0,0.0,0.0,2.875,2.8553,0.0,2.6528,0.0,0.0,0.0,0.0,2.1778,2.2819,0.0,0.0,2.5879,2.6587,2.6881,2.7175,2.7362,2.7342,2.7362,2.7008,2.6299,2.4138,0.0,0.0,0.0,0.0,0.0,0.0,2.4802,2.6794,2.8577,2.9619,2.99,2.9913,2.978,2.9481,2.8117,2.6961,2.6024,2.4329,2.2695,2.1227,2.0586,0.0,0.0,0.0,0.0,0.0,0.0,0.0,0.0,0.0,0.0,0.0,0.0,0.0,0.0,0.0,0.0,0.0,0.0,0.0,0.0,1.8003,0.0,0.0,0.0,0.0,0.0,0.0,0.0,0.0,0.0,0.0,2.0079,2.0888,2.1625,2.1897,0.0,0.0,0.0,0.0,2.4628,2.4628,2.4628,2.4375,2.3595,2.3292,2.2923,2.2299,0.0,0.0,2.2358,2.2678,2.3133,2.3781,2.4195,2.435,2.3896,2.3736,2.3752,2.3728,2.3888,2.4113,2.3945,2.404,2.4432,3.683,0.0,0.0,0.0,0.0,3.214,3.2304,3.2643,3.2522,3.2166,3.1568,2.9936,0.0,0.0,0.0,0.0,0.0,0.0,2.4919,2.6193,2.6974,2.7602,2.811,2.8369,2.8503,2.8516,2.8503,2.8123,2.7308,2.6479,2.4874,2.2579,0.0,0.0,0.0,0.0,2.509,2.7115,2.8706,2.9619,2.9913,2.9913,2.978,2.9508,2.8871,2.8016,2.6961,2.5837,2.4422,2.2749,2.1924,0.0,0.0,0.0,0.0,0.0,0.0,0.0,0.0,0.0,0.0,0.0,0.0,0.0,0.0,0.0,0.0,0.0,0.0,0.0,1.9669,1.9127,1.8598,0.0,0.0,0.0,0.0,0.0,0.0,0.0,0.0,0.0,2.2163,2.2272,2.2381,0.0,0.0,2.3651,2.3768,2.4415,2.4885,2.4885,2.5041,0.0,2.4607,2.4339,2.4153,2.4172,2.4657,2.5196,2.5569,2.5719,2.5794,2.5798,2.5896,2.5884,2.5562,2.5186,2.4876,2.4728,2.4873,2.5029,2.4981,2.521,2.546,4.0923,3.7809,3.6293,3.5594,3.5496,3.5847,3.6424,3.708,3.6761,3.6481,3.6032,3.3681,3.1367,2.9054,2.6351,0.0,0.0,0.0,2.638,2.7375,2.819,2.8831,2.9321,2.9584,2.9673,2.9566,2.9566,2.9165,2.8404,2.811,2.7054,2.5229,0.0,0.0,2.3777,2.4623,2.5925,2.763,2.8973,2.974,2.9913,2.9913,2.9833,2.9659,2.9237,2.8623,2.7837,2.6827,2.5651,2.423,2.3251,2.2151,0.0,0.0,0.0,0.0,0.0,0.0,0.0,0.0,0.0,0.0,0.0,1.7367,1.7354,0.0,0.0,0.0,1.952,2.026,2.0724,2.0496,0.0,0.0,0.0,0.0,0.0,0.0,0.0,2.2082,2.2976,2.3676,2.3912,2.3944,2.3812,2.3498,2.3929,2.4354,2.4559,0.0,2.5234,2.546,2.5511,2.5487,2.5343,2.5111,2.505,2.5424,2.5945,2.6486,2.692,2.7004,2.6956,2.6823,2.6753,2.6715,2.6546,2.6256,2.5919,2.556,2.5692,2.5861,2.5873,2.6078,2.6305,4.3825,4.2553,4.0567,3.939,3.8895,3.9646,4.0694,4.1724,4.099,4.0861,4.0921,3.7444,3.4714,3.2479,2.8245,0.0,2.6361,2.7398,2.8041,2.8403,2.9476,3.0114,3.044,3.0684,3.0671,3.0377,3.039,3.0083,2.9495,2.917,2.8743,2.8165,2.5778,2.4796,2.5323,2.6112,2.7108,2.8245,2.9388,2.9931,2.9953,2.9927,2.9913,2.99,2.9344,2.8916,2.8631,2.7535,2.65,2.5619,2.4516,2.3384,2.2221,0.0,0.0,0.0,0.0,0.0,0.0,0.0,0.0,0.0,0.0,0.0,0.0,0.0,0.0,0.0,2.0359,0.0,2.1719,2.1994,0.0,0.0,0.0,2.0948,2.1936,2.2545,2.3294,2.438,0.0,0.0,2.536,2.5641,2.5547,2.4836,2.4969,2.5294,2.5774,2.5644,2.5692,2.6184,2.6112,2.5979,2.6039,2.5825,2.5825,2.6281,2.6524,2.6801,2.7052,2.7101,2.7077,2.7066,2.7042,2.7077,2.7077,2.704,2.692,2.6425,2.6463,2.6608,2.6596,2.6811,2.704,4.6213,4.521,4.4051,4.2377,4.0586,4.1375,4.2054,4.2586,4.2402,4.2222,4.1839,3.9352,3.6274,3.2777,3.0264,2.9045,2.8912,2.9279,2.9557,2.9738,3.0115,3.043,3.0711,3.0755,3.0658,3.039,3.039,3.0105,2.9521,2.9419,2.9072,2.8484,2.7869,2.7402,2.7094,2.7281,2.7869,2.8796,2.9789,3.027,3.027,3.0011,2.9913,2.9913,2.9566,2.9245,2.8895,2.8238,2.7449,2.6527,2.5611,2.4569,2.3442,2.2171,0.0,0.0,0.0,0.0,0.0,0.0,0.0,0.0,0.0,1.9052,1.9266,0.0,2.0217,0.0,2.1376,2.2308,2.2842,2.3333,0.0,0.0,2.2923,2.2901,2.3183,2.3862,2.4565,2.5242,2.5411,2.5715,2.622,2.6175,2.6124,2.6136,2.6174,2.6186,2.6136,2.6425,2.6644,2.6799,2.7064,2.7306,2.727,2.727,2.7221,2.7413,2.7462,2.7535,2.7583,2.7618,2.7618,2.763,2.763,2.763,2.7595,2.763,2.7559,2.7414,2.7161,2.692,2.692,2.7125,2.733,4.7308,4.6409,4.5697,4.437,4.2718,4.2806,4.3173,4.365,4.332,4.3246,4.319,4.068,3.7977,3.5216,3.3696,3.2723,3.2221,3.1989,3.1655,3.1301,3.1096,3.1045,3.1206,3.1183,3.1045,3.0742,3.0511,3.015,2.97,2.9673,2.9513,2.9192,2.9446,2.9406,2.9072,2.8543,2.8583,2.921,3.0003,3.039,3.04,3.0217,2.9993,2.9726,2.9432,2.9085,2.8657,2.8211,2.7609,2.682,2.5966,2.5085,2.4195,2.2907,2.1719,0.0,0.0,0.0,0.0,0.0,0.0,0.0,0.0,0.0,0.0,0.0,2.1563,2.183,2.2582,2.3313,2.4035,2.4735,2.5059,2.4938,2.4967,2.5074,2.5224,2.5871,2.6464,2.69,2.7025,2.7207,2.7515,2.7276,2.709,2.7248,2.7178,2.7004,2.6666,2.6835,2.704,2.7173,2.7523,2.7811,2.7811,2.7811,2.7811,2.7811,2.7811,2.7811,2.7811,2.7811,2.7811,2.7811,2.7811,2.7811,2.7811,2.7811,2.7811,2.7775,2.7559,2.7378,2.7354,2.7475,2.7595,4.7678,4.6838,4.6375,4.5682,4.4847,4.4124,4.4203,4.4733,4.4031,4.4027,4.4366,4.1599,3.9612,3.8319,3.7387,3.6419,3.5395,3.4735,3.3853,3.2835,3.2132,3.1776,3.1728,3.1698,3.1513,3.1132,3.0684,3.0247,2.9904,2.9953,2.9944,2.9993,3.0515,3.0795,3.0742,2.9744,2.9384,2.9722,3.0226,3.048,3.0507,3.0417,3.0123,2.9575,2.9157,2.8698,2.8173,2.7823,2.7368,2.682,2.6033,2.5339,2.4733,2.3638,2.2626,0.0,2.1205,0.0,0.0,0.0,0.0,0.0,0.0,0.0,0.0,2.2482,2.2882,2.3483,2.3821,2.4347,2.5208,2.6018,2.652,2.658,2.6814,2.7108,2.7436,2.7965,2.8419,2.8684,2.8771,2.8809,2.8795,2.8415,2.809,2.8032,2.7872,2.7559,2.7221,2.7161,2.7294,2.7475,2.7716,2.798,2.7945,2.7921,2.7921,2.7909,2.7933,2.7897,2.7921,2.7921,2.7909,2.7909,2.7933,2.7921,2.7897,2.7909,2.7909,2.7956,2.7932,2.786,2.7799,2.78,2.7944,4.7884,4.7343,4.6917,4.6427,4.5887,4.5755,4.5483,4.5168,4.5021,4.4467,4.357,4.2271,4.1008,3.9767,3.8892,3.778,3.6557,3.5949,3.4964,3.3633,3.2819,3.2225,3.1879,3.1769,3.142,3.0889,3.0755,3.0434,2.9904,3.0167,3.0319,3.0333,3.0644,3.0795,3.0782,0.0,0.0,0.0,3.0768,3.0822,3.1036,3.0618,3.0217,2.9811,2.9085,0.0,2.7816,2.7516,2.7208,2.6807,2.644,0.0,0.0,0.0,0.0,0.0,0.0,0.0,0.0,0.0,0.0,0.0,2.469,2.4727,2.3875,2.3834,2.4115,2.4708,2.501,2.5451,2.6079,2.674,2.7208,2.7428,2.7764,2.8058,2.8323,2.8649,2.897,2.9285,2.9031,2.89,2.9081,2.8532,2.8138,2.8175,2.7933,2.7763,2.7691,2.7824,2.798,2.8065,2.8234,2.8427,2.8451,2.8427,2.8391,2.8451,2.8451,2.8427,2.8415,2.8427,2.8439,2.8427,2.8451,2.8427,2.8427,2.8451,2.8415,2.8439,2.8427,2.8307,2.7885,2.798,2.8149,4.8376,4.8092,4.7688,4.7332,0.0,4.6875,4.6617,4.6299,4.5931,4.5365,4.4729,4.4097,4.3319,4.2469,4.1391,4.0176,3.8817,3.7611,3.6254,3.4847,3.3572,3.2741,3.2236,3.187,3.1436,3.1009,3.0738,3.0457,3.0176,3.031,3.0457,3.0604,3.1032,3.1246,3.1246,3.1246,3.1223,3.1199,3.1052,3.1076,3.1186,3.0795,3.0368,2.9891,2.9183,0.0,0.0,0.0,0.0,0.0,0.0,0.0,0.0,0.0,0.0,2.395,2.3808,2.3759,2.3754,2.4436,2.5018,2.5459,2.6339,2.646,2.5539,2.5625,2.5911,2.6353,2.666,2.7021,2.7442,2.7862,2.8182,2.8364,2.8751,2.9085,2.9259,2.9624,2.9953,3.0074,2.9814,2.9705,2.9937,2.9432,2.9138,2.9231,2.8863,2.8576,2.8552,2.834,2.8246,2.8391,2.8488,2.8596,2.8596,2.8596,2.8596,2.8596,2.8596,2.8596,2.8596,2.8596,2.8596,2.8596,2.8596,2.8596,2.8596,2.8596,2.8596,2.8596,2.8596,2.8524,2.8234,2.8295,2.8391,4.9048,4.8883,4.859,4.8394,4.8229,4.7905,4.7715,4.7601,4.6778,0.0,0.0,4.589,4.5413,4.4842,4.3706,4.2435,4.1052,3.9368,3.7852,3.6477,3.4902,3.3863,3.3343,3.2691,3.2185,3.1755,3.1181,3.0843,3.0675,3.0606,3.0658,3.0902,3.1433,3.1724,3.1724,3.1724,3.1567,3.1316,3.1303,3.1279,3.1279,3.0999,3.0608,3.0087,2.9424,2.881,2.8264,2.7903,2.7482,2.696,2.6707,2.6486,2.6305,2.6005,2.5825,2.5812,2.5651,2.5651,2.5892,2.5979,2.6293,2.6814,2.7615,2.7802,2.7121,2.7302,2.7556,2.7829,2.8104,2.8358,2.8657,2.8863,2.9015,2.9068,2.953,2.9824,2.9904,3.0381,3.0644,3.0658,3.0434,3.043,3.0532,3.0195,3.0041,3.0124,2.9649,2.9351,2.9207,2.8653,2.8343,2.8439,2.8524,2.8584,2.8536,2.8584,2.8572,2.8512,2.856,2.8584,2.8548,2.8572,2.8596,2.8596,2.8596,2.8596,2.8596,2.8596,2.8596,2.8596,2.8596,2.8596,2.8596,2.8596,2.8584,4.9758,4.9434,4.9745,4.9663,4.9297,4.9219,4.9009,4.8613,4.7645,4.7027,4.6709,4.6633,4.5966,4.4861,4.4287,4.3337,4.2052,4.0978,3.9974,3.8966,3.764,3.6767,3.6259,3.5507,3.4742,3.4022,3.3267,3.2505,3.1805,3.1312,3.1106,3.1173,3.1527,3.1724,3.1724,3.1724,3.1674,3.1634,3.1634,3.1634,3.162,3.1316,3.0986,3.0662,2.986,2.9138,2.8564,2.8016,2.7655,2.7575,2.7315,2.7248,2.7449,2.7195,2.7055,2.7048,2.7235,2.7348,2.7402,2.7883,2.8289,2.8615,2.9223,2.9138,2.8112,2.8066,2.8192,2.8444,2.8577,2.8657,2.8916,2.9037,2.9183,2.9406,2.9499,2.9646,2.9927,3.027,3.0404,3.0154,3.0247,3.0297,3.0162,3.0044,2.987,2.9591,2.9441,2.9231,2.8799,2.862,2.8451,2.8331,2.8451,2.8476,2.8367,2.8451,2.8451,2.8294,2.8451,2.8476,2.8331,2.8463,2.856,2.8596,2.8596,2.8596,2.8596,2.8596,2.8596,2.8596,2.8596,2.8596,2.8596,2.8596,2.8596,5.0195,5.0215,5.0219,5.0219,5.0152,4.9703,4.9391,4.9176,4.8501,4.8104,4.7915,4.768,4.7121,4.6325,4.5426,4.4545,4.3738,4.2861,4.2098,4.1354,4.0398,3.9713,3.9165,3.8245,3.7266,3.6353,3.4975,3.3851,3.2912,3.1945,3.1463,3.1476,3.1634,3.1724,3.1724,3.1724,3.1724,3.1724,3.1724,3.1724,3.1687,3.1383,3.1146,3.1022,3.035,2.9766,2.9339,2.8898,2.8545,2.8203,2.8091,2.7997,2.7957,2.7997,2.7989,2.8003,2.827,2.8409,2.8396,2.8663,2.8943,2.9237,2.9673,2.9766,2.9436,2.953,2.9655,2.978,2.9793,2.9847,2.9958,2.9971,3.0024,3.0203,3.0194,3.027,3.0368,3.0501,3.0564,3.0408,3.039,3.039,3.0394,3.004,2.9817,2.9682,2.9357,2.8789,2.8281,2.8174,2.8174,2.8198,2.8174,2.8174,2.8162,2.815,2.8186,2.8186,2.8186,2.8174,2.8174,2.8331,2.8427,2.8572,2.8596,2.8596,2.8596,2.8596,2.8596,2.8596,2.8596,2.8596,2.8596,2.8596,2.8596,5.0586,5.0762,5.0566,5.0586,5.0723,4.9859,4.9508,4.9469,4.916,4.9027,4.8968,4.8578,4.8125,4.7653,4.6589,4.5846,4.5376,4.4753,4.4181,4.3678,4.314,4.2602,4.2029,4.0955,3.9969,3.8934,3.7053,3.5658,3.4703,3.3312,3.2562,3.247,3.2283,3.2138,3.2043,3.2043,3.2019,3.2043,3.2138,3.2043,3.1711,3.1436,3.1333,3.1359,3.0885,3.0474,3.0301,2.99,2.9495,2.9067,2.8938,2.8839,2.8714,2.8893,2.9032,2.9112,2.9312,2.9388,2.941,2.941,2.9517,2.9766,3.0047,3.0314,3.0564,3.0845,3.0952,3.0822,3.0728,3.0755,3.0728,3.0755,3.0795,3.0795,3.0795,3.0755,3.0782,3.0849,3.0885,3.0795,3.0671,3.0658,3.0646,3.0234,2.9849,2.977,2.9177,2.8451,2.8063,2.7933,2.7993,2.8077,2.798,2.7872,2.7993,2.7909,2.7896,2.8041,2.7909,2.7885,2.7981,2.8089,2.827,2.8451,2.856,2.8548,2.8524,2.856,2.8548,2.8512,2.8536,2.8596,2.8596,2.8669,2.8657,5.1089,5.0879,5.1128,5.1069,5.0742,4.9879,4.9547,4.9527,4.9469,4.9449,4.9391,4.9007,4.8597,4.8115,4.7589,4.7137,4.6787,4.6576,4.6288,4.594,4.5649,4.528,4.4774,4.3733,4.2928,4.2127,4.0027,3.8638,3.7927,3.6175,3.5182,3.482,3.4082,3.3469,3.3092,3.3069,3.3059,3.3083,3.3469,3.3045,3.1782,3.1674,3.1781,3.2011,3.145,3.1263,3.1406,3.0761,3.027,3.0226,2.9927,2.99,3.0145,3.0212,3.0323,3.0528,3.0581,3.0635,3.0608,3.0635,3.0618,3.0688,3.0925,3.1109,3.1176,3.1467,3.139,3.1048,3.0878,3.0835,3.0795,3.0822,3.0849,3.0875,3.0835,3.0795,3.0835,3.0999,3.1066,3.0822,3.0942,3.1039,3.0825,3.0511,3.0118,2.9564,2.9079,2.8616,2.8474,2.8281,2.8136,2.8125,2.798,2.7716,2.7619,2.7703,2.768,2.7571,2.7655,2.7703,2.7655,2.7885,2.8222,2.8294,2.8464,2.8536,2.8403,2.8391,2.85,2.8391,2.8427,2.8596,2.8632,2.8753,2.8801,5.1304,5.1167,5.1343,5.1304,5.1069,5.0503,5.0269,5.0273,5.0019,4.9902,4.9902,4.973,4.9555,4.9355,4.8893,4.8745,4.8842,4.8513,4.8486,4.8497,4.8192,4.7929,4.766,4.671,4.5847,4.4944,4.2926,4.1531,4.0563,3.8854,3.7623,3.6929,3.6033,3.5038,3.4112,3.4066,3.408,3.4066,3.48,3.5286,3.5326,3.3884,3.2926,3.2701,3.2188,3.1719,3.1406,3.1049,3.0795,3.0644,3.0501,3.0488,3.0631,3.0644,3.0684,3.0782,3.0795,3.0795,3.0795,3.0795,3.0934,3.1187,3.1746,3.2189,3.2529,3.3112,3.3356,3.3042,3.2029,3.1326,3.1373,3.134,3.134,3.1289,3.1156,3.1072,3.1026,3.1009,3.0915,3.0845,3.0889,3.0942,3.0766,3.0472,3.0031,2.9467,2.9129,2.8954,2.8681,2.85,2.8321,2.8027,2.7848,2.7764,2.7631,2.7559,2.7511,2.7426,2.7342,2.7282,2.7462,2.768,2.8005,2.8162,2.8439,2.85,2.8258,2.8391,2.8524,2.8343,2.8391,2.8596,2.8596,2.8681,2.8693,5.1397,5.1397,5.1397,5.1397,5.1362,5.0952,5.0801,5.0781,5.0469,5.0351,5.0395,5.0469,5.0527,5.0449,4.9961,4.9883,5.0141,4.9961,4.998,5.016,4.9844,4.9683,4.9578,4.8745,4.7927,4.7033,4.5372,4.3868,4.2644,4.1231,4.0069,3.9246,3.8212,3.7046,3.5878,3.5785,3.5785,3.584,3.6714,3.7865,3.8686,3.6876,3.5079,3.3955,3.3058,3.2286,3.162,3.1503,3.141,3.1313,3.1219,3.1156,3.1142,3.1076,3.1059,3.1036,3.1059,3.1036,3.1059,3.1059,3.1301,3.1941,3.2738,3.3488,3.4181,3.5008,3.5453,3.5406,3.4159,3.33,3.2563,3.2516,3.2516,3.2526,3.2273,3.2117,3.1972,3.1679,3.1458,3.1255,3.1219,3.0989,3.0826,3.0526,3.0168,2.9677,2.9521,2.9343,2.8957,2.883,2.863,2.8123,2.8017,2.7932,2.7751,2.7547,2.7402,2.727,2.7137,2.7125,2.7306,2.7547,2.7824,2.8041,2.8355,2.8427,2.8174,2.8271,2.856,2.8415,2.8451,2.8596,2.8596,2.8644,2.8669,5.1397,5.1397,5.1397,5.1397,5.1358,5.0996,5.082,5.0816,5.0801,5.0781,5.084,5.1128,5.1343,5.1245,5.0508,5.0199,5.0278,5.0547,5.0527,5.0297,5.0199,5.018,5.0093,4.9213,4.8742,4.8473,4.7153,4.5488,4.3742,4.3138,4.2611,4.2065,4.0825,3.9608,3.8631,3.8513,3.8577,3.8552,3.9487,4.0601,4.1366,4.0547,3.8505,3.5982,3.4088,3.3124,3.2622,3.227,3.223,3.2536,3.2249,3.2093,3.2056,3.1839,3.1749,3.1739,3.1728,3.1705,3.1762,3.1796,3.2198,3.3116,3.4096,3.4966,3.5958,3.6914,3.7437,3.746,3.7269,3.6475,3.5063,3.4689,3.4572,3.4572,3.4557,3.4318,3.3802,3.3276,3.2862,3.2363,3.185,3.1435,3.0967,3.0877,3.0633,3.0264,3.0112,2.9932,2.9561,2.9408,2.9181,2.8775,2.8571,2.8342,2.7666,2.757,2.739,2.7257,2.7245,2.7077,2.7209,2.739,2.7679,2.7956,2.8319,2.8391,2.8101,2.8149,2.8451,2.8524,2.8524,2.8596,2.8596,2.8813,2.8813,5.2065,5.1836,5.1519,5.1397,5.1377,5.1245,5.1187,5.1187,5.1187,5.1187,5.1206,5.1343,5.1397,5.1382,5.1089,5.0952,5.0933,5.0855,5.0835,5.0918,5.0703,5.0586,5.0503,4.9971,4.9526,4.9176,4.8691,4.7757,4.663,4.6332,4.5708,4.465,4.3579,4.227,4.0925,4.0698,4.0681,4.0735,4.1616,4.2772,4.3752,4.2796,4.1391,3.9925,3.7203,3.5383,3.4619,3.4273,3.4135,3.4249,3.3951,3.3757,3.3743,3.3681,3.361,3.3624,3.3634,3.361,3.361,3.361,3.4071,3.504,3.598,3.6961,3.7945,3.8909,3.9526,3.9526,3.9526,3.9069,3.8474,3.7354,3.6552,3.6568,3.6545,3.622,3.5383,3.459,3.3807,3.2998,3.2232,3.1616,3.1474,3.1416,3.1307,3.1165,3.1117,3.0832,3.0511,3.0368,3.0093,2.971,2.9542,2.9405,2.9004,2.8284,2.786,2.7667,2.7558,2.7569,2.7665,2.7868,2.817,2.8289,2.857,2.8643,2.8446,2.8315,2.8571,2.8692,2.8705,2.8705,2.8596,2.8789,2.8765,5.2539,5.2266,5.1948,5.1831,5.1811,5.1831,5.1811,5.1811,5.1811,5.1811,5.1811,5.1811,5.1753,5.1636,5.1616,5.1519,5.1401,5.1109,5.1128,5.1343,5.0996,5.0855,5.0894,5.0566,5.0234,4.9898,4.9605,4.9017,4.8208,4.8103,4.7417,4.6197,4.541,4.4219,4.2824,4.2602,4.2602,4.2725,4.3397,4.4391,4.5238,4.4397,4.3544,4.2726,4.0549,3.8464,3.6919,3.6482,3.6362,3.6392,3.6022,3.5713,3.5669,3.5783,3.5783,3.5646,3.5616,3.5654,3.5631,3.5631,3.6073,3.7062,3.7998,3.8978,3.9953,4.0969,4.1444,4.1534,4.1534,4.1534,4.1308,4.03,3.9265,3.8795,3.8677,3.8279,3.7185,3.6312,3.502,3.3474,3.2469,3.1948,3.1735,3.1701,3.1677,3.1724,3.1724,3.1487,3.1035,3.0892,3.0689,3.0223,3.0032,2.9932,2.9706,2.9194,2.8747,2.8514,2.8346,2.8279,2.8271,2.8478,2.8624,2.8685,2.8782,2.8892,2.8856,2.8675,2.8726,2.8885,2.8959,2.9006,2.8862,2.8741,2.8705,5.2715,5.2695,5.2695,5.2617,5.2573,5.2598,5.2631,5.2617,5.2637,5.2553,5.2539,5.2612,5.2383,5.2148,5.2031,5.1836,5.1499,5.1382,5.1362,5.1362,5.1035,5.1055,5.1304,5.0972,5.0738,5.062,4.9898,4.9075,4.835,4.8327,4.778,4.6789,4.638,4.5637,4.4442,4.4436,4.4406,4.4424,4.4766,4.5292,4.5766,4.5274,4.4784,4.4365,4.3623,4.2059,3.95,3.8918,3.8799,3.8958,3.8402,3.791,3.7835,3.8034,3.8073,3.7804,3.7685,3.7669,3.7685,3.774,3.818,3.907,3.9987,4.0896,4.181,4.2757,4.3337,4.331,4.3341,4.3416,4.3367,4.3143,4.2429,4.1043,4.092,4.0582,3.9461,3.8521,3.6892,3.4034,3.2786,3.2232,3.1853,3.1724,3.1724,3.1724,3.1701,3.1545,3.113,3.1059,3.0713,3.0366,3.0366,3.0471,3.0293,3.0066,2.9772,2.9481,2.9303,2.9175,2.9157,2.9284,2.9337,2.9423,2.9487,2.9575,2.9492,2.9323,2.9207,2.932,2.9323,2.9164,2.8934,2.8741,2.8753,5.3189,5.315,5.2832,5.2715,5.2715,5.2715,5.2715,5.2715,5.2715,5.2715,5.2715,5.2715,5.2612,5.2461,5.2226,5.2012,5.1855,5.1558,5.1397,5.1401,5.1265,5.1265,5.1362,5.1284,5.1094,5.0762,5.0254,4.9832,4.9573,4.9511,4.92,4.8614,4.8334,4.7633,4.6376,4.64,4.6129,4.5519,4.5554,4.5742,4.5883,4.576,4.5572,4.5436,4.527,4.466,4.3809,4.2103,4.1258,4.1304,4.0882,4.0587,4.0543,4.0593,4.061,4.0526,4.0493,4.0493,4.0493,4.0476,4.0708,4.1389,4.2012,4.2649,4.3285,4.3906,4.427,4.4311,4.4329,4.4329,4.4329,4.4329,4.3842,4.3108,4.3112,4.2795,4.1603,3.971,3.7141,3.471,3.3469,3.2658,3.1948,3.1711,3.1748,3.1724,3.1724,3.1569,3.1487,3.1392,3.1439,3.1212,3.1212,3.107,3.0951,3.0879,3.0734,3.0433,3.0193,3.0048,3.0031,3.0022,3.0077,3.0117,3.0207,3.021,3.0128,2.9976,2.9848,2.9512,2.9309,2.9079,2.8813,2.8825,2.9006,5.3613,5.3599,5.332,5.3178,5.3178,5.3178,5.3203,5.3178,5.3178,5.3203,5.3178,5.3178,5.308,5.293,5.2681,5.2486,5.2305,5.1987,5.1889,5.1792,5.1499,5.1397,5.1397,5.1397,5.1187,5.084,5.0547,5.0356,5.0199,5.0176,4.9938,4.9468,4.9396,4.8762,4.7635,4.7497,4.711,4.6455,4.6336,4.6342,4.6342,4.6342,4.6342,4.6342,4.6342,4.6342,4.6228,4.4834,4.3879,4.3468,4.3193,4.304,4.2899,4.2987,4.3063,4.2922,4.2887,4.2887,4.2881,4.2829,4.2974,4.3321,4.3598,4.3874,4.4237,4.4581,4.4696,4.4719,4.4701,4.4719,4.4701,4.4701,4.4623,4.4563,4.4476,4.4128,4.306,4.0758,3.8267,3.6196,3.4791,3.3587,3.2611,3.2019,3.1877,3.1772,3.1724,3.1724,3.1724,3.1701,3.1714,3.1714,3.1582,3.1545,3.1653,3.1653,3.1653,3.1386,3.1073,3.0915,3.082,3.0857,3.0885,3.0909,3.0938,3.0985,3.0903,3.0605,3.0382,2.9922,2.9596,2.9673,2.9723,2.9576,2.9635,5.3998,5.3972,5.3998,5.3939,5.392,5.392,5.39,5.3959,5.3939,5.3875,5.3939,5.3881,5.375,5.3482,5.3287,5.3072,5.2773,5.2637,5.2553,5.2402,5.1948,5.1616,5.1636,5.1577,5.1343,5.1035,5.0898,5.0644,5.0434,5.0414,5.0021,4.9713,4.9684,4.9072,4.8359,4.8052,4.7798,4.72,4.7117,4.7093,4.7045,4.7039,4.7039,4.702,4.7002,4.7002,4.6917,4.6766,4.6369,4.5543,4.5283,4.509,4.4971,4.5205,4.5106,4.4809,4.481,4.4787,4.4806,4.4776,4.4786,4.4827,4.4873,4.4824,4.5017,4.5053,4.5026,4.5031,4.4916,4.4843,4.4861,4.4861,4.5008,4.5242,4.526,4.4696,4.3461,4.1741,4.0011,3.8193,3.6568,3.5043,3.3681,3.2971,3.2402,3.195,3.1834,3.1885,3.1885,3.1912,3.1794,3.1808,3.1874,3.1821,3.1848,3.1701,3.1701,3.1653,3.145,3.1402,3.1355,3.1379,3.1402,3.145,3.1487,3.1582,3.149,3.1084,3.0874,3.0656,3.0579,3.0712,3.0503,3.0132,3.0007,5.3972,5.3972,5.3972,5.3972,5.3972,5.3972,5.3972,5.3972,5.3972,5.3972,5.3972,5.3972,5.3939,5.3803,5.3521,5.3326,5.317,5.2871,5.2715,5.2695,5.2495,5.2358,5.2285,5.2051,5.1855,5.168,5.1387,5.1187,5.1089,5.1011,5.0958,5.0876,5.075,5.0368,4.9651,4.9449,4.8825,4.7854,4.7697,4.7474,4.7197,4.7149,4.7088,4.7088,4.713,4.713,4.716,4.748,4.7387,4.6714,4.6635,4.6599,4.6468,4.6536,4.65,4.6408,4.6379,4.6415,4.6415,4.6397,4.6415,4.647,4.6305,4.647,4.6452,4.6182,4.6054,4.598,4.5773,4.5577,4.5577,4.5558,4.5627,4.5723,4.5755,4.5436,4.4653,4.3677,4.2289,4.075,3.8924,3.7106,3.5471,3.4258,3.3384,3.2651,3.2361,3.23,3.227,3.226,3.2219,3.2209,3.2235,3.2078,3.1944,3.177,3.1714,3.1701,3.1653,3.1629,3.1592,3.1606,3.1629,3.1677,3.1606,3.1653,3.1511,3.1231,3.1212,3.1181,3.0859,3.0648,3.0392,3.0108,3.0193,5.3972,5.3972,5.3972,5.3972,5.3972,5.3972,5.3972,5.3972,5.3972,5.3972,5.3972,5.3972,5.3972,5.3959,5.3769,5.3633,5.3613,5.3354,5.3256,5.3256,5.3236,5.3022,5.2734,5.2422,5.2266,5.2095,5.1836,5.1577,5.1397,5.1397,5.1397,5.1358,5.1397,5.1042,5.0344,5.0305,4.9724,4.8643,4.8392,4.8149,4.7656,4.7607,4.7607,4.7607,4.7632,4.768,4.7949,4.8265,4.8116,4.7645,4.7624,4.7787,4.7745,4.7528,4.7432,4.7432,4.7239,4.7051,4.7088,4.7088,4.7088,4.7094,4.7088,4.7088,4.702,4.6855,4.6709,4.6457,4.625,4.6085,4.598,4.603,4.6237,4.636,4.6274,4.5944,4.5388,4.4562,4.3619,4.2319,4.0758,3.9011,3.7191,3.5905,3.4619,3.3588,3.3013,3.2808,3.2614,3.2643,3.2621,3.257,3.2489,3.2329,3.2158,3.1984,3.1821,3.1781,3.1754,3.1741,3.1724,3.1724,3.1724,3.1724,3.1724,3.1677,3.1534,3.145,3.1442,3.1289,3.0879,3.076,3.0713,3.0546,3.0581,5.3972,5.3972,5.3972,5.3972,5.3972,5.3972,5.3972,5.3972,5.3972,5.3972,5.3972,5.3972,5.3972,5.3972,5.3939,5.3978,5.3978,5.3881,5.392,5.3881,5.3842,5.3568,5.3002,5.2851,5.2637,5.2388,5.2232,5.1953,5.1753,5.1636,5.1577,5.1675,5.1636,5.1382,5.1113,5.0933,5.0288,4.9587,4.9333,4.9125,4.8719,4.8638,4.8663,4.8663,4.8527,4.87,4.9008,4.9204,4.8986,4.8255,4.8602,4.8769,4.8726,4.8327,4.8081,4.7986,4.7697,4.7442,4.7295,4.7406,4.7332,4.7351,4.7314,4.7222,4.7295,4.724,4.7057,4.6806,4.6567,4.6329,4.6164,4.6347,4.6635,4.6855,4.6733,4.6213,4.5556,4.4997,4.4397,4.3568,4.2213,4.0768,3.9312,3.7767,3.6255,3.4789,3.4088,3.3478,3.3134,3.2902,3.2864,3.281,3.269,3.2543,3.2382,3.2198,3.1998,3.1888,3.1861,3.1821,3.1714,3.1724,3.1724,3.1724,3.1724,3.1724,3.1677,3.1629,3.1616,3.1569,3.1307,3.145,3.1582,3.1331,3.1236,5.3972,5.3972,5.3972,5.3972,5.3972,5.3972,5.3972,5.3972,5.3972,5.3972,5.3972,5.3972,5.3972,5.3972,5.3972,5.3972,5.3972,5.3972,5.3972,5.3972,5.3972,5.3939,5.3627,5.3418,5.3209,5.3019,5.2715,5.2519,5.2377,5.2299,5.2422,5.2358,5.228,5.2347,5.219,5.1805,5.1511,5.0862,5.0514,5.0214,4.9977,4.9934,4.9934,4.9915,4.9696,4.9601,4.9784,5.0127,5.0258,5.0075,4.9812,4.9715,4.9579,4.9145,4.8895,4.8865,4.8669,4.8384,4.8164,4.8255,4.8341,4.7992,4.7944,4.8029,4.8011,4.7717,4.7552,4.7314,4.6898,4.6549,4.6494,4.6727,4.702,4.713,4.7057,4.6782,4.6305,4.5868,4.5465,4.5069,4.4216,4.3188,4.1947,4.0005,3.8241,3.6407,3.5154,3.4292,3.3708,3.3196,3.3106,3.3026,3.2946,3.2837,3.265,3.2452,3.2262,3.2075,3.2008,3.2008,3.1901,3.1754,3.1767,3.1741,3.1724,3.1701,3.1727,3.1701,3.1677,3.1701,3.1724,3.1724,3.1724,3.1724,3.1701,5.3972,5.3972,5.3972,5.3972,5.3972,5.3972,5.3972,5.3972,5.3972,5.3972,5.3972,5.3972,5.3972,5.3972,5.3972,5.3972,5.3972,5.3972,5.3972,5.4056,5.4193,5.4336,5.4316,5.4062,5.3853,5.3463,5.317,5.293,5.2773,5.2734,5.2676,5.2715,5.2734,5.2631,5.2715,5.25,5.1969,5.1408,5.13,5.1053,5.0607,5.0722,5.0841,5.0797,5.0633,5.0593,5.0885,5.1083,5.1385,5.144,5.1119,5.0746,5.05,5.0086,4.9871,4.9972,4.9697,4.9384,4.9137,4.8894,4.8708,4.8322,4.8311,4.8311,4.8292,4.8066,4.7882,4.7705,4.7356,4.7081,4.7057,4.7228,4.7424,4.7589,4.7479,4.7277,4.7045,4.6567,4.609,4.5839,4.5093,4.4341,4.3216,4.1724,3.968,3.757,3.5849,3.4913,3.3694,3.3269,3.3295,3.3255,3.3227,3.3106,3.2944,3.2743,3.2503,3.2316,3.2182,3.2222,3.2246,3.2048,3.1837,3.1848,3.1821,3.1767,3.1767,3.1741,3.1701,3.1724,3.1724,3.1724,3.1724,3.1724,3.1724,5.3972,5.3972,5.3972,5.3972,5.3972,5.3972,5.3972,5.3972,5.3972,5.3972,5.4037,5.4056,5.4173,5.4134,5.4232,5.4213,5.4232,5.4252,5.4349,5.4388,5.4648,5.4746,5.4746,5.457,5.4283,5.3619,5.3521,5.3301,5.3164,5.2924,5.3144,5.3047,5.2969,5.3041,5.2969,5.2787,5.2521,5.1953,5.1923,5.1831,5.1323,5.1502,5.1661,5.1661,5.1508,5.1601,5.1831,5.1995,5.2183,5.264,5.2191,5.1806,5.144,5.0938,5.0641,5.0924,5.0452,5.0043,4.9545,4.9227,4.8873,4.8432,4.8304,4.8311,4.8292,4.8274,4.8127,4.7962,4.7742,4.7681,4.7699,4.7754,4.7944,4.8109,4.7937,4.7791,4.7589,4.7081,4.6641,4.6203,4.593,4.5466,4.4457,4.3108,4.0894,3.8776,3.7041,3.5408,3.4164,3.3414,3.3414,3.3389,3.3309,3.3282,3.3146,3.3078,3.2824,3.2623,3.2436,3.2449,3.2554,3.2449,3.2276,3.2035,3.1981,3.1928,3.1848,3.1767,3.1727,3.1714,3.1724,3.1724,3.1724,3.1724,3.1724,5.3972,5.3972,5.3972,5.3972,5.3972,5.3972,5.3972,5.3972,5.3972,5.3998,5.4056,5.4414,5.4551,5.4648,5.4961,5.5052,5.4954,5.4941,5.498,5.5,5.5156,5.5195,5.5156,5.4961,5.4648,5.4414,5.416,5.4043,5.4101,5.4023,5.3848,5.4121,5.3881,5.3705,5.3588,5.3476,5.3203,5.2813,5.2704,5.2585,5.2676,5.2787,5.2884,5.282,5.2556,5.2502,5.2543,5.2579,5.2615,5.264,5.2166,5.2114,5.2059,5.1485,5.0981,5.0766,5.0781,5.0489,4.9807,4.9506,4.9203,4.8854,4.8561,4.8359,4.8366,4.8366,4.8402,4.8329,4.8237,4.8127,4.7736,4.8029,4.8219,4.8292,4.8237,4.8029,4.7772,4.7534,4.7295,4.6941,4.6766,4.6512,4.5489,4.4187,4.2063,3.9871,3.7914,3.5933,3.4189,3.3614,3.3464,3.3439,3.3375,3.3362,3.3335,3.3307,3.3173,3.2984,3.281,3.2703,3.277,3.2837,3.2717,3.2516,3.2276,3.2142,3.2021,3.1861,3.1754,3.1714,3.1714,3.1701,3.1724,3.1724,3.1724,5.3972,5.3972,5.3972,5.3972,5.3972,5.3972,5.3972,5.3972,5.3998,5.4134,5.4375,5.459,5.4805,5.5,5.5195,5.5312,5.5332,5.5312,5.5312,5.5332,5.5481,5.5599,5.5599,5.539,5.5351,5.5215,5.4922,5.4629,5.4629,5.4193,5.4336,5.4453,5.4213,5.3998,5.3978,5.3783,5.3599,5.3418,5.3379,5.334,5.3424,5.358,5.3691,5.3633,5.349,5.3373,5.3354,5.3354,5.3373,5.3292,5.2893,5.2736,5.259,5.2221,5.1655,5.1394,5.1262,5.095,5.0283,5.0012,4.9617,4.9276,4.9001,4.8928,4.8909,4.8946,4.8873,4.8891,4.8909,4.8879,4.8708,4.8616,4.8598,4.8561,4.8432,4.8219,4.8066,4.7992,4.7846,4.7607,4.7247,4.6925,4.6604,4.5065,4.3142,4.1065,3.8946,3.6774,3.4593,3.407,3.3911,3.3492,3.3467,3.3415,3.3402,3.3375,3.3362,3.3227,3.3118,3.3011,3.2998,3.3051,3.3104,3.3051,3.2784,3.2465,3.2158,3.1984,3.1874,3.1741,3.1714,3.1701,3.1701,3.1724,3.1724,5.3972,5.3972,5.3972,5.3972,5.3972,5.3972,5.3972,5.3972,5.3972,5.4173,5.4551,5.4746,5.5,5.5293,5.5462,5.5586,5.5566,5.5605,5.5644,5.5703,5.5891,5.6028,5.6028,5.593,5.5833,5.5677,5.5364,5.5169,5.5,5.4609,5.4609,5.4765,5.4466,5.4134,5.416,5.4017,5.3789,5.373,5.3783,5.3808,5.3672,5.3828,5.3972,5.3972,5.3972,5.3959,5.39,5.3881,5.39,5.3798,5.3563,5.3371,5.3262,5.2845,5.2562,5.2459,5.1899,5.1332,5.0837,5.0358,4.9911,4.9617,4.9533,4.9496,4.9459,4.9368,4.9441,4.9514,4.9459,4.9423,4.9276,4.9111,4.8903,4.8774,4.8524,4.8292,4.8274,4.8237,4.8219,4.7962,4.7589,4.7387,4.7205,4.6177,4.4305,4.2663,4.0561,3.8248,3.6231,3.5073,3.4606,3.3866,3.3547,3.3494,3.3429,3.3389,3.3375,3.3322,3.3253,3.3173,3.3187,3.3213,3.3253,3.3267,3.3211,3.2879,3.2505,3.2144,3.1998,3.1888,3.1767,3.1701,3.1701,3.1724,3.1724,5.3972,5.3972,5.3972,5.3972,5.3972,5.3972,5.3972,5.3972,5.3972,5.4017,5.4258,5.4863,5.5215,5.5442,5.6113,5.6367,5.6413,5.6355,5.6316,5.6289,5.6387,5.6426,5.6426,5.6067,5.6009,5.595,5.5579,5.5521,5.5501,5.5273,5.5312,5.5442,5.4922,5.4596,5.4473,5.4154,5.3998,5.3939,5.3978,5.3959,5.392,5.3959,5.3998,5.3972,5.3972,5.3972,5.3972,5.3972,5.3972,5.3972,5.3921,5.3896,5.3819,5.3416,5.316,5.28,5.2164,5.1292,5.0897,5.0513,5.0244,5.0087,4.9815,4.9569,4.9624,4.9643,4.9643,4.9514,4.9551,4.9569,4.9507,4.9159,4.8958,4.8756,4.8543,4.8366,4.8311,4.8311,4.8311,4.8292,4.7944,4.8017,4.798,4.6765,4.5498,4.3917,4.2137,3.9784,3.7566,3.6121,3.4897,3.4064,3.3668,3.3614,3.3429,3.3389,3.3389,3.3389,3.3349,3.332,3.332,3.332,3.3347,3.336,3.3307,3.324,3.2906,3.2559,3.2225,3.2075,3.2008,3.1861,3.1701,3.1738,3.1845,5.4232,5.3972,5.3972,5.3972,5.3972,5.3972,5.3972,5.3972,5.3972,5.4154,5.4414,5.4746,5.5195,5.5696,5.6348,5.6589,5.6609,5.6609,5.6609,5.6609,5.6609,5.6609,5.6543,5.6406,5.6308,5.6211,5.6152,5.6152,5.6094,5.5677,5.5501,5.5716,5.5137,5.4674,5.4648,5.4232,5.4056,5.3998,5.3972,5.3972,5.3972,5.3972,5.3972,5.3972,5.3972,5.4017,5.3992,5.3972,5.3972,5.3972,5.3972,5.3972,5.387,5.3538,5.3185,5.3109,5.2466,5.195,5.1673,5.1162,5.0889,5.0742,5.0447,5.0222,5.0167,5.0131,5.0131,5.0186,5.0193,5.0083,4.9801,4.9452,4.9141,4.8891,4.8549,4.8402,4.8311,4.8311,4.8311,4.8311,4.8311,4.8311,4.8224,4.7358,4.6384,4.5346,4.3338,4.0907,3.8349,3.6117,3.4997,3.402,3.3801,3.3748,3.3547,3.3389,3.3389,3.3389,3.3389,3.3349,3.3362,3.3375,3.3389,3.3389,3.3349,3.328,3.3173,3.2957,3.2596,3.2423,3.2276,3.2155,3.2072,3.2179,3.226,5.4681,5.4466,5.4252,5.4095,5.3972,5.3972,5.3972,5.3972,5.3972,5.4219,5.4512,5.4785,5.5332,5.597,5.6426,5.6609,5.6609,5.6609,5.6609,5.6609,5.6609,5.6609,5.6609,5.6562,5.6562,5.6609,5.6511,5.653,5.6374,5.6055,5.582,5.5845,5.5254,5.4844,5.4609,5.4414,5.4213,5.4232,5.4238,5.416,5.4037,5.3972,5.3972,5.4037,5.4095,5.4154,5.4173,5.433,5.4369,5.4388,5.4408,5.4447,5.435,5.4138,5.3938,5.377,5.3248,5.2804,5.2456,5.2007,5.1563,5.1226,5.1044,5.057,5.0607,5.0699,5.068,5.0589,5.0607,5.0424,5.0131,4.9716,4.9331,4.8928,4.8543,4.8421,4.8311,4.8311,4.8311,4.8311,4.8311,4.8311,4.812,4.7684,4.707,4.6498,4.4561,4.2026,3.9262,3.6501,3.5236,3.4306,3.4201,3.4067,3.3708,3.3547,3.3507,3.3414,3.3389,3.3389,3.3389,3.3389,3.3389,3.3389,3.3389,3.3349,3.3293,3.3106,3.2944,3.273,3.257,3.2554,3.2527,3.2607,3.2607,5.5469,5.5716,5.4941,5.4433,5.4056,5.3972,5.3992,5.4017,5.4017,5.4115,5.4408,5.4961,5.584,5.6406,5.664,5.6726,5.6648,5.6609,5.6667,5.6667,5.6628,5.6706,5.6745,5.6745,5.6667,5.6667,5.6628,5.6609,5.6589,5.6472,5.6172,5.5872,5.5371,5.5039,5.4785,5.457,5.4473,5.4473,5.4492,5.4336,5.4115,5.3972,5.3972,5.4095,5.4394,5.4629,5.4674,5.4902,5.5032,5.5039,5.5019,5.5039,5.4928,5.487,5.4772,5.463,5.395,5.3504,5.3136,5.2223,5.1348,5.094,5.0725,5.0699,5.0699,5.0699,5.0699,5.0699,5.0699,5.0461,5.0138,4.9753,4.9349,4.8854,4.8487,4.8402,4.8311,4.8311,4.8311,4.8311,4.8311,4.8311,4.8311,4.7923,4.7837,4.7313,4.5106,4.2551,3.9642,3.7029,3.574,3.4866,3.4734,3.4467,3.3974,3.3774,3.3654,3.3494,3.3389,3.3389,3.3389,3.3389,3.3389,3.3389,3.3389,3.3389,3.3362,3.3213,3.3091,3.2957,3.2864,3.2837,3.2797,3.281,3.2781,5.5098,5.4759,5.4961,5.498,5.4759,5.4531,5.4252,5.4076,5.4316,5.472,5.5208,5.6048,5.6614,5.6953,5.7293,5.7234,5.6992,5.6973,5.6953,5.6973,5.6973,5.7156,5.7195,5.7051,5.6973,5.6875,5.6765,5.6609,5.6609,5.6609,5.6113,5.5677,5.5364,5.5078,5.4805,5.4648,5.4551,5.4433,5.4512,5.4453,5.4095,5.3972,5.3972,5.4037,5.4453,5.4674,5.4726,5.5078,5.5234,5.5312,5.5312,5.5312,5.5351,5.5351,5.5371,5.5234,5.4421,5.3819,5.3269,5.2265,5.1304,5.0836,5.0699,5.0699,5.0699,5.0699,5.0699,5.0699,5.068,5.0505,4.9826,4.9569,4.9276,4.8751,4.8457,4.8384,4.8311,4.8311,4.8311,4.8311,4.8311,4.8311,4.8311,4.8267,4.8267,4.8001,4.5564,4.3036,4.0245,3.7771,3.6456,3.5355,3.5131,3.4681,3.4161,3.3935,3.3788,3.3602,3.3455,3.3495,3.3536,3.3389,3.3414,3.3389,3.3402,3.3415,3.3414,3.332,3.3252,3.3133,3.3133,3.3185,3.3131,3.3038,3.2998,5.5039,5.4662,5.5228,5.5273,5.4922,5.4609,5.4316,5.4115,5.4492,5.5254,5.6126,5.6777,5.7207,5.7402,5.75,5.75,5.7168,5.7051,5.7063,5.707,5.709,5.7324,5.7383,5.7246,5.6894,5.6953,5.6797,5.6609,5.6609,5.6609,5.6094,5.5586,5.5273,5.5,5.459,5.4635,5.4512,5.4394,5.4433,5.4453,5.4076,5.3972,5.4134,5.4232,5.4687,5.5,5.5156,5.543,5.5527,5.5488,5.543,5.539,5.5449,5.5508,5.5566,5.5266,5.4699,5.3856,5.3254,5.2062,5.1167,5.0732,5.0699,5.0699,5.0699,5.0699,5.0699,5.0699,5.0662,5.0431,4.9735,4.9716,4.9386,4.8891,4.8671,4.8561,4.8384,4.8311,4.8311,4.8311,4.8311,4.8311,4.8311,4.8261,4.7964,4.7647,4.589,4.357,4.1248,3.8963,3.723,3.6195,3.5435,3.4863,3.4294,3.4268,3.4202,3.3976,3.3843,3.3789,3.3788,3.3654,3.3574,3.3627,3.3614,3.3521,3.3427,3.336,3.336,3.3362,3.336,3.3307,3.3307,3.3227,3.328,5.5462,5.5826,5.5813,5.513,5.4173,5.4056,5.4076,5.4154,5.4648,5.5514,5.6523,5.6777,5.7234,5.7683,5.7656,5.7461,5.7246,5.6914,5.6875,5.709,5.6973,5.6992,5.7051,5.7012,5.6855,5.666,5.6628,5.6609,5.6609,5.6609,5.6101,5.5586,5.5312,5.4876,5.4154,5.4473,5.4694,5.4674,5.4655,5.4414,5.4095,5.3972,5.4173,5.4473,5.4941,5.5293,5.5371,5.5638,5.5716,5.5618,5.5403,5.5449,5.5657,5.5774,5.593,5.6119,5.5086,5.4443,5.417,5.2025,5.1014,5.0732,5.0699,5.0699,5.0699,5.0699,5.0699,5.0699,5.068,5.0497,5.0222,5.0002,4.9526,4.9093,4.8873,4.8653,4.8457,4.8311,4.8311,4.8311,4.8311,4.8311,4.8311,4.8187,4.774,4.7025,4.579,4.406,4.2118,4.0373,3.8623,3.723,3.6313,3.5417,3.4952,3.476,3.4615,3.4389,3.4176,3.407,3.4095,3.4043,3.3988,3.3933,3.3774,3.3654,3.3534,3.3375,3.3389,3.3389,3.3389,3.3362,3.3375,3.3389,3.3389,5.4805,5.4681,5.498,5.4687,5.4134,5.4622,5.4726,5.4668,5.5488,5.6374,5.7031,5.7558,5.7941,5.8156,5.8058,5.7832,5.7539,5.7207,5.7168,5.7148,5.6965,5.7305,5.739,5.7148,5.6953,5.6914,5.6804,5.6609,5.6609,5.6609,5.6289,5.582,5.5371,5.4798,5.4349,5.4394,5.4615,5.4355,5.4433,5.4473,5.4056,5.4017,5.4095,5.4316,5.4935,5.5228,5.5247,5.5599,5.5677,5.5521,5.5273,5.5332,5.5521,5.5638,5.5813,5.5715,5.4796,5.3827,5.2969,5.1482,5.1115,5.0836,5.0699,5.0699,5.0699,5.0699,5.0699,5.0699,5.0699,5.0479,5.0178,5.0112,4.9709,4.9104,4.8793,4.8634,4.8451,4.8366,4.8311,4.8311,4.8311,4.8311,4.8311,4.8311,4.7939,4.7641,4.6658,4.5481,4.3713,4.2058,4.0358,3.8719,3.7479,3.6336,3.5588,3.5209,3.4815,3.451,3.435,3.423,3.427,3.439,3.4242,3.408,3.3921,3.3801,3.3681,3.3549,3.3415,3.3389,3.3455,3.3429,3.3389,3.3389,3.3389,5.4271,5.4056,5.4512,5.4531,5.433,5.4863,5.5058,5.5234,5.6015,5.668,5.7246,5.7805,5.8097,5.8156,5.8097,5.7988,5.7625,5.7187,5.7121,5.7121,5.7004,5.7207,5.7324,5.7246,5.6914,5.6914,5.6804,5.6609,5.6609,5.6609,5.6308,5.5872,5.5501,5.4961,5.4551,5.4512,5.4492,5.4232,5.4252,5.4297,5.4056,5.4017,5.4095,5.4394,5.4746,5.5039,5.5058,5.5195,5.5364,5.5137,5.5,5.498,5.5137,5.5273,5.543,5.5136,5.4739,5.3663,5.2416,5.1936,5.1485,5.0803,5.0725,5.0699,5.0699,5.0699,5.0699,5.0699,5.0699,5.057,5.0369,5.0277,5.0002,4.9397,4.9196,4.9056,4.8634,4.8524,4.8421,4.8402,4.8311,4.8311,4.8311,4.8311,4.8187,4.7964,4.7647,4.6451,4.5297,4.3789,4.2109,4.0415,3.8707,3.7384,3.6312,3.5435,3.5039,3.4656,3.4563,3.451,3.4656,3.479,3.4496,3.4294,3.4281,3.4162,3.3908,3.3736,3.3736,3.3696,3.3669,3.3589,3.3429,3.3389,3.3389,5.3972,5.4056,5.4492,5.4648,5.4713,5.483,5.5234,5.5865,5.595,5.6419,5.716,5.7246,5.7539,5.7715,5.7441,5.7305,5.7207,5.6863,5.6875,5.6953,5.6816,5.6992,5.6973,5.6836,5.6738,5.6687,5.6609,5.6609,5.6609,5.6609,5.6348,5.6009,5.5716,5.5293,5.5,5.4844,5.4583,5.4232,5.4056,5.4095,5.3972,5.3972,5.4154,5.4414,5.4668,5.4844,5.4883,5.4941,5.4805,5.457,5.431,5.4414,5.4531,5.4687,5.4941,5.5013,5.4837,5.3738,5.2632,5.2279,5.1666,5.0907,5.0699,5.0699,5.0699,5.0699,5.0699,5.0699,5.0699,5.0699,5.0644,5.0552,5.0424,5.0149,4.9966,4.9544,4.8994,4.8738,4.8598,4.8487,4.8347,4.8311,4.8311,4.8311,4.8311,4.8211,4.7988,4.7623,4.6526,4.5631,4.3925,4.2083,4.0322,3.8485,3.7363,3.6355,3.5556,3.5262,3.5029,3.4977,3.5084,3.5057,3.4829,3.4655,3.4696,3.4548,3.4162,3.4083,3.4176,3.411,3.3949,3.3801,3.3641,3.3454,3.3414,5.3972,5.4017,5.4154,5.4394,5.4772,5.5312,5.5872,5.6367,5.6406,5.6582,5.6777,5.709,5.7265,5.7363,5.7265,5.7207,5.7051,5.6855,5.6726,5.6687,5.6687,5.6699,5.668,5.6687,5.6609,5.6609,5.6609,5.6609,5.6609,5.6609,5.6589,5.6387,5.6172,5.5879,5.5618,5.5521,5.4857,5.431,5.4076,5.4037,5.4017,5.3972,5.4134,5.4232,5.4512,5.4609,5.4447,5.4629,5.4512,5.4193,5.4095,5.4134,5.4154,5.4492,5.4785,5.4765,5.4389,5.368,5.2659,5.2408,5.1943,5.1044,5.0732,5.0699,5.0699,5.0699,5.0699,5.0699,5.0699,5.0699,5.0699,5.0625,5.0516,5.0351,5.0167,4.9856,4.9324,4.9067,4.8909,4.8524,4.8402,4.8311,4.8311,4.8311,4.8311,4.8311,4.8236,4.802,4.7672,4.6758,4.5656,4.3814,4.2195,4.0435,3.8707,3.756,3.6595,3.5874,3.5533,3.523,3.5164,3.511,3.5043,3.495,3.4843,3.4603,3.4296,3.435,3.4509,3.4337,3.4176,3.4015,3.3841,3.3694,3.3561,5.418,5.4037,5.4219,5.4629,5.5234,5.5898,5.6348,5.6589,5.6609,5.6609,5.6648,5.6836,5.6973,5.6953,5.6953,5.6933,5.6914,5.6745,5.6628,5.6628,5.6609,5.6628,5.6609,5.6609,5.6609,5.6609,5.6609,5.6609,5.6609,5.6609,5.6609,5.6589,5.6609,5.6308,5.5989,5.5735,5.5247,5.4662,5.4277,5.418,5.4056,5.3972,5.3972,5.4056,5.4355,5.4193,5.4076,5.4375,5.4213,5.4037,5.3972,5.3972,5.4017,5.4297,5.4414,5.4375,5.4187,5.3647,5.2948,5.2768,5.2054,5.1355,5.0992,5.0888,5.0758,5.0699,5.0699,5.0699,5.0699,5.0699,5.0699,5.0662,5.0534,5.0387,5.0222,5.0057,4.9764,4.9471,4.9067,4.8653,4.8451,4.8347,4.8311,4.8311,4.8311,4.8311,4.8311,4.8236,4.8069,4.7697,4.6776,4.543,4.3975,4.2434,4.0682,3.8837,3.7629,3.657,3.5586,3.5322,3.5257,3.5177,3.5097,3.499,3.4857,3.471,3.4617,3.4696,3.4763,3.4629,3.4523,3.4389,3.4242,3.4082,3.3961,5.4414,5.4056,5.4557,5.5137,5.5852,5.6328,5.6589,5.6609,5.6609,5.6609,5.6628,5.6628,5.6667,5.6706,5.6706,5.6706,5.6706,5.6628,5.6609,5.6609,5.6609,5.6609,5.6609,5.6609,5.6609,5.6609,5.6609,5.6609,5.6609,5.6609,5.6609,5.6609,5.6609,5.6406,5.6152,5.6067,5.5683,5.5098,5.4805,5.4668,5.4134,5.3972,5.3972,5.3972,5.4037,5.3972,5.3972,5.4017,5.3972,5.3972,5.3972,5.3972,5.4017,5.4037,5.4056,5.4056,5.4037,5.3685,5.3282,5.3057,5.244,5.1854,5.1511,5.1148,5.0862,5.0725,5.0699,5.0699,5.0699,5.0699,5.0699,5.0699,5.0589,5.0552,5.0461,5.0241,4.9966,4.9599,4.9141,4.8744,4.8451,4.8366,4.8311,4.8311,4.8311,4.8311,4.8311,4.8311,4.8261,4.8144,4.7548,4.6694,4.5531,4.4026,4.2297,4.0476,3.8733,3.7472,3.6334,3.5559,3.5533,3.5375,3.5204,3.5097,3.5004,3.5084,3.507,3.5044,3.499,3.499,3.4897,3.4816,3.4669,3.4456,3.4362,5.4433,5.4076,5.4818,5.5293,5.5547,5.6269,5.6609,5.6609,5.6609,5.6609,5.6609,5.6609,5.6609,5.6609,5.6609,5.6609,5.6609,5.6609,5.6609,5.6609,5.6609,5.6609,5.6609,5.6609,5.6609,5.6609,5.6609,5.6609,5.6609,5.6609,5.6609,5.6609,5.6609,5.6491,5.6367,5.6348,5.5996,5.541,5.5293,5.4824,5.4115,5.3972,5.3972,5.3972,5.3972,5.3972,5.3972,5.3972,5.3972,5.3972,5.3972,5.3972,5.3972,5.3972,5.3972,5.3972,5.3972,5.3717,5.3461,5.3211,5.2698,5.1957,5.1466,5.1174,5.0914,5.0758,5.0699,5.0699,5.0699,5.0699,5.0699,5.0699,5.0699,5.0699,5.068,5.0424,5.0167,4.9709,4.9232,4.8928,4.8579,4.8421,4.8366,4.8311,4.8311,4.8311,4.8311,4.8311,4.8311,4.8236,4.8013,4.7292,4.6826,4.5455,4.3814,4.2271,4.0605,3.8837,3.755,3.6728,3.5902,3.548,3.5204,3.5204,3.5177,3.5204,3.5204,3.5177,3.5164,3.5164,3.5137,3.5003,3.495,3.4776,3.4749,5.498,5.4681,5.5286,5.556,5.5677,5.6308,5.6609,5.6609,5.6609,5.6609,5.6609,5.6609,5.6609,5.6609,5.6609,5.6609,5.6609,5.6609,5.6609,5.6609,5.6628,5.6609,5.6609,5.6609,5.6609,5.6609,5.6609,5.6609,5.6609,5.6609,5.6609,5.6609,5.6609,5.6609,5.6589,5.6406,5.6087,5.5618,5.5547,5.4896,5.4115,5.4134,5.4115,5.4095,5.3972,5.3972,5.3972,5.3972,5.3972,5.3972,5.3972,5.3972,5.3972,5.3972,5.3972,5.3972,5.3947,5.387,5.364,5.3384,5.298,5.2234,5.1873,5.1692,5.0836,5.0699,5.0699,5.0699,5.0699,5.0699,5.0699,5.0699,5.0699,5.0699,5.0699,5.057,5.0351,5.0057,4.9764,4.9581,4.9166,4.8689,4.8579,4.8359,4.8366,4.8311,4.8311,4.8311,4.8311,4.8311,4.8088,4.7864,4.7417,4.6851,4.5556,4.4076,4.2578,4.0811,3.8941,3.7263,3.6072,3.5533,3.5204,3.5204,3.5204,3.5204,3.5204,3.5204,3.5204,3.5191,3.5177,3.5124,3.5097,3.5057,3.499,5.5599,5.5286,5.5696,5.5852,5.5911,5.6387,5.6609,5.6609,5.6609,5.6609,5.6609,5.6609,5.6609,5.6609,5.6609,5.6609,5.6648,5.6738,5.6699,5.6648,5.668,5.666,5.6648,5.6609,5.6609,5.6609,5.6609,5.6609,5.6609,5.6609,5.6609,5.6609,5.6609,5.6609,5.6465,5.6145,5.5794,5.5501,5.5208,5.4687,5.4453,5.4394,5.4258,5.4095,5.3972,5.3972,5.3972,5.3972,5.3972,5.3972,5.3972,5.3972,5.3972,5.3972,5.3972,5.3972,5.3972,5.3947,5.3896,5.3845,5.3256,5.2691,5.2511,5.1943,5.1037,5.0699,5.0699,5.0699,5.0699,5.0699,5.0699,5.0699,5.0699,5.0699,5.0699,5.0699,5.0516,5.0314,5.0167,5.0039,4.9544,4.8994,4.8763,4.8543,4.8377,4.8347,4.8311,4.8311,4.8311,4.8311,4.8211,4.8162,4.7964,4.7374,4.6768,4.5707,4.4228,4.2501,4.0528,3.8161,3.6308,3.5849,3.5454,3.5204,3.5204,3.5204,3.5204,3.5204,3.5204,3.5204,3.5191,3.5177,3.5164,3.5137,3.5164,5.5462,5.4863,5.5605,5.5735,5.5605,5.625,5.6609,5.6609,5.6609,5.6609,5.6609,5.6609,5.6609,5.6609,5.6609,5.6628,5.6667,5.6836,5.6797,5.664,5.6894,5.6816,5.668,5.6648,5.6628,5.6609,5.6609,5.6609,5.6609,5.6609,5.6609,5.6609,5.6609,5.6589,5.653,5.6191,5.5833,5.5579,5.5293,5.4844,5.4512,5.4355,5.4095,5.4017,5.3972,5.3972,5.3972,5.3972,5.3972,5.3972,5.3972,5.3972,5.3972,5.3972,5.3972,5.3972,5.3972,5.3972,5.3972,5.3972,5.341,5.2588,5.2305,5.1892,5.1167,5.0699,5.0699,5.0699,5.0699,5.0699,5.0699,5.0699,5.0699,5.0699,5.0699,5.0699,5.0607,5.0387,5.0204,4.9929,4.9544,4.9196,4.8994,4.8744,4.8439,4.8384,4.8329,4.8329,4.8311,4.8311,4.8311,4.8311,4.8311,4.7982,4.741,4.6943,4.5631,4.3992,4.2058,3.9522,3.755,3.6296,3.5849,3.5349,3.5204,3.5204,3.5204,3.5204,3.5204,3.5204,3.5204,3.5191,3.5204,3.5204,3.5204]}]]